     2              OBSERVATION DATA    GPS                 RINEX VERSION / TYPE
TRRINEXO-V2.3.1-LH UCLA/SCEC 28-FEB-1994                    PGM / RUN BY / DATE
                                                            COMMENT
Original Marker Name: 6003                                  COMMENT
Campaign Name: Northridge 1994                              COMMENT
4-Character Station Name: 6003                              COMMENT
6-Character Antenna Code: TRMSST                            COMMENT
Vertical Measurement Point: BGP                             COMMENT
Vertical Offset to Rinex Ref. Point: 0.0597                 COMMENT
Radial Measurement Point: NGP                               COMMENT
Radial Offset to Rinex Ref. Point: 0.2334                   COMMENT
Antenna Height from Field Measurement: 1.4970 m             COMMENT
Original XYZ: -2523371.1021 -4636797.6304 3567916.1441      COMMENT
New XYZ position is based on association with SCEC monument COMMENT
E1E9I1G4+0011. Position of that monument is believed to be  COMMENT
valid to within 1 m horizontally; vertical accuracy         COMMENT
should be no worse than 3-times this value.                 COMMENT
                                                            COMMENT
Revised Rinex header created by UCSD GPS archive for        COMMENT
GSAC on 18-Apr-1999 (1999:108) 22:09:06 GMT                 COMMENT
For assistance contact dagnew@ucsd.edu or hjohnson@ucsd.edu COMMENT
                                                            COMMENT
NORTHRIDGE LS 6172 1992                                     MARKER NAME
J. ROEPEL LOS ANGELES COUNTY                                OBSERVER / AGENCY
1962 TRIMBLE 4000 SST 4.81                                  REC # / TYPE / VERS
430 TR 4000SST L1/L2 GEO                                    ANT # / TYPE
 -2523366.0000 -4636803.0000  3567951.0000                  APPROX POSITION XYZ
        1.4190        0.0000        0.0000                  ANTENNA: DELTA H/E/N
     1     2     0                                          WAVELENGTH FACT L1/2
     3    C1    L1    L2                                    # / TYPES OF OBSERV
    30                                                      INTERVAL
  1994     2    16    16    58   30.000000                  TIME OF FIRST OBS
  1994     2    16    22    59   60.000000                  TIME OF LAST OBS
     0                                                      # OF SATELLITES
                                                            END OF HEADER
 94  2 16 16 58 30.0000000  0  6 25  1 14 15 22 29
  21357249.836       32676.22717
  24776277.625       43191.17314
  21507355.500      -28427.25817
  21566012.414       35661.25117
  23541460.609      -38727.48115
  22909040.063      -22542.03316
 94  2 16 16 59  0.0000000  0  6 25  1 14 15 22 29
  21369706.688       98128.821 7     25513.77818
  24792661.266      129337.403 3     33533.05311
  21496533.156      -85307.536 7    -22164.89617
  21579619.406      107145.827 7     27872.13217
  23526696.250     -116277.343 5    -30226.48612
  22900434.844      -67760.460 6    -17634.92615
 94  2 16 16 59 30.0000000  0  6 25  1 14 15 22 29
  21382191.898      163730.018 7     76631.561 8
  24809002.148      215197.599 3    100437.019 2
  21485707.680     -142207.617 7    -66502.613 7
  21593262.570      178866.098 7     83758.027 7
  23511924.617     -193923.705 5    -90729.994 3
  22891798.344     -113131.630 6    -52989.089 5
 94  2 16 17  0  0.0000000  0  6 25  1 14 15 22 29
  21394703.445      229482.819 7    127867.485 8
  24825286.258      300772.728 3    167118.853 2
  21474873.125     -199127.971 7   -110856.119 7
  21606954.531      250824.778 7    139829.703 7
  23497132.867     -271656.727 5   -151301.074 4
  22883129.586     -158642.725 6    -88452.246 5
 94  2 16 17  0 30.0000000  0  6 25  1 14 15 22 29
  21407251.188      295415.908 7    179243.885 8
  24841516.859      386096.274 3    233604.650 1
  21464041.227     -256044.322 7   -155206.518 7
  21620696.734      323046.738 7    196106.519 7
  23482332.148     -349453.313 5   -211921.721 3
  22874458.078     -204258.883 6   -123997.283 5
 94  2 16 17  1  0.0000000  0  6 25  1 14 15 22 29
  21419829.023      361528.944 7    230760.497 8
  24857711.695      471203.313 2    299921.736 2
  21453214.719     -312941.830 7   -199542.236 7
  21634492.961      395533.068 7    252589.350 7
  23467507.945     -427327.777 5   -272603.001 4
  22865751.797     -249979.418 6   -159623.645 5
 94  2 16 17  1 30.0000000  0  6 25  1 14 15 22 29
  21432447.078      427831.575 7    282424.848 8
  24873877.328      556110.590 3    366083.182 1
  21442394.250     -369803.957 7   -243850.381 7
  21648345.516      468291.034 7    309283.831 7
  23452670.000     -505286.983 5   -333350.352 4
  22857037.758     -295785.986 6   -195317.065 5
 94  2 16 17  2  0.0000000  0  6 25  1 14 15 22 29
  21445098.656      494328.560 7    334240.648 8
  24889980.078      640819.421 2    432089.955 1
  21431582.219     -426615.210 7   -288118.883 7
  21662236.250      541319.899 7    366189.409 7
  23437825.859     -583338.722 6   -394169.803 2
  22848301.445     -341672.873 6   -231073.063 5
 94  2 16 17  2 30.0000000  0  6 25  1 14 15 22 29
  21457792.703      561023.302 7    386210.536 8
  24906088.867      725355.654 3    497962.251 1
  21420789.664     -483349.699 7   -332327.567 7
  21676186.023      614628.132 7    423312.689 6
  23422946.734     -661476.994 5   -455056.678 4
  22839557.984     -387633.116 6   -266886.231 5
 94  2 16 17  3  0.0000000  0  6 25  1 14 15 22 29
  21470523.719      627925.289 7    438341.927 8
  24922143.969      809714.242 3    563696.125 2
  21410012.117     -539978.603 7   -376453.975 7
  21690193.766      688222.344 7    480658.796 7
  23408067.766     -739678.243 5   -515992.685 4
  22830794.828     -433656.906 6   -302748.912 5
 94  2 16 17  3 30.0000000  0  6 25  1 14 15 22 29
  21483300.578      695053.056 7    490649.234 8
  24938152.945      893870.049 3    629272.011 1
  21399255.945     -596496.927 7   -420494.230 7
  21704256.109      762107.875 7    538231.923 7
  23393175.469     -817911.984 5   -576953.946 5
  22822030.125     -479734.530 6   -338653.519 5
 94  2 16 17  4  0.0000000  0  6 25  1 14 15 22 29
  21496118.094      762425.993 7    543147.609 8
  24954139.844      977820.709 4    694688.037 1
  21388524.930     -652897.978 7   -464443.101 7
  21718371.047      836294.297 7    596039.491 7
  23378294.258     -896141.797 5   -637912.180 5
  22813256.063     -525866.083 6   -374600.196 5
 94  2 16 17  4 30.0000000  0  6 25  1 14 15 22 29
  21508981.914      830032.750 7    595828.173 8
  24970043.273     1061547.179 3    759929.359 2
  21377812.547     -709205.391 7   -508319.002 7
  21732541.234      910773.573 7    654075.266 7
  23363410.305     -974358.674 5   -698860.329 5
  22804461.078     -572064.695 6   -410599.105 5
 94  2 16 17  5  0.0000000  0  6 25  1 14 15 22 29
  21521897.852      897893.664 7    648706.767 8
  24985941.352     1145054.306 3    824999.808 1
  21367111.070     -765411.283 7   -552115.793 7
  21746768.125      985552.569 7    712344.578 7
  23348533.102    -1052540.677 5   -759781.267 5
  22795658.594     -618318.901 6   -446641.357 5
 94  2 16 17  5 30.0000000  0  5 25 14 15 22 29
  21534858.484      966000.309 7    701776.863 8
  21356438.414     -821520.907 7   -595837.587 7
  21761061.164     1060634.878 7    770850.251 7
  23333654.797    -1130689.825 5   -820676.587 5
  22786849.734     -664620.272 6   -482720.352 5
 94  2 16 17  6  0.0000000  0  5 25 14 15 22 29
  21547857.695     1034320.074 7    755013.008 8
  21345778.711     -877524.122 7   -639476.456 7
  21775400.602     1136012.616 7    829586.112 7
  23318789.664    -1208819.600 5   -881556.838 5
  22778028.789     -710962.098 6   -518830.872 5
 94  2 16 17  6 30.0000000  0  5 25 14 15 22 29
  21560896.742     1102849.153 7    808412.248 8
  21335144.508     -933406.152 7   -683020.899 7
  21789804.172     1211686.675 6    888552.876 6
  23303922.477    -1286938.270 5   -942428.407 5
  22769208.313     -757328.861 6   -554960.827 5
 94  2 16 17  7  0.0000000  0  5 25 14 15 22 29
  21573980.695     1171590.828 7    861977.157 7
  21324541.133     -989129.428 7   -726441.635 7
  21804266.266     1287662.151 6    947754.512 7
  23289063.289    -1365049.065 5  -1003293.813 5
  22760381.750     -803709.303 6   -591101.430 5
 94  2 16 17  7 30.0000000  0  5 25 14 15 22 29
  21587098.695     1240531.194 7    915696.886 8
  21313965.742    -1044700.492 7   -769743.768 7
  21818774.773     1363932.307 6   1007185.770 6
  23274203.164    -1443156.841 6  -1064156.880 5
  22751553.633     -850098.695 6   -627249.005 5
 94  2 16 17  8  0.0000000  0  5 25 14 15 22 29
  21600262.086     1309696.201 7    969591.650 7
  21303420.266    -1100108.078 7   -812918.507 7
  21833339.555     1440500.384 6   1066849.182 6
  23259335.719    -1521252.624 6  -1125010.548 5
  22742722.250     -896502.730 6   -663407.990 5
 94  2 16 17  8 30.0000000  0  5 25 14 15 22 29
  21613471.117     1379112.759 7   1023682.435 7
  21292911.227    -1155351.478 7   -855965.315 7
  21847970.805     1517372.559 6   1126749.545 7
  23244480.125    -1599314.698 5  -1185837.992 5
  22733894.156     -942928.806 6   -699584.156 5
 94  2 16 17  9  0.0000000  0  5 25 14 15 22 29
  21626726.844     1448775.673 7   1077965.185 8
  21282430.078    -1210445.092 7   -898895.407 7
  21862664.641     1594546.912 7   1186885.359 6
  23229642.133    -1677319.386 6  -1246620.656 5
  22725049.305     -989383.304 6   -735782.464 5
 94  2 16 17  9 30.0000000  0  5 25 14 15 22 29
  21640034.203     1518706.374 7   1132456.584 8
  21271969.703    -1265396.340 7   -941714.553 7
  21877406.063     1672033.186 6   1247264.243 6
  23214811.094    -1755233.804 5  -1307333.033 5
  22716204.977    -1035864.721 6   -772001.729 5
 94  2 16 17 10  0.0000000  0  5 25 14 15 22 29
  21653389.781     1588888.500 8   1187143.917 7
  21261539.883    -1320208.223 7   -984425.111 7
  21892206.766     1749821.568 6   1307878.524 6
  23199998.641    -1833062.464 5  -1367978.552 5
  22707352.211    -1082393.762 6   -808258.106 5
 94  2 16 17 10 30.0000000  0  5 25 14 15 22 29
  21666787.367     1659297.735 7   1242008.209 7
  21251132.102    -1374879.575 7  -1027026.162 7
  21907073.586     1827905.677 7   1368723.255 6
  23185209.703    -1910802.625 5  -1428555.150 5
  22698491.188    -1128960.886 6   -844544.150 5
 94  2 16 17 11  0.0000000  0  5 25 14 15 22 29
  21680222.172     1729909.130 7   1297030.020 8
  21240760.305    -1429408.711 7  -1069516.409 7
  21921982.891     1906271.201 6   1429787.259 6
  23170429.789    -1988477.662 5  -1489080.972 5
  22689622.438    -1175570.909 6   -880863.627 5
 94  2 16 17 11 30.0000000  0  5 25 14 15 22 29
  21693704.453     1800740.790 8   1352223.461 8
  21230421.539    -1483749.424 7  -1111859.821 7
  21936954.391     1984936.836 6   1491085.118 6
  23155658.820    -2066087.234 5  -1549555.832 5
  22680750.461    -1222199.332 6   -917197.443 5
 94  2 16 17 12  0.0000000  0  5 25 14 15 22 29
  21707222.156     1871784.863 7   1407582.435 7
  21220119.508    -1537879.348 7  -1154038.982 7
  21951975.234     2063899.758 6   1552614.631 6
  23140902.719    -2143630.622 5  -1609979.109 5
  22671867.031    -1268831.587 6   -953534.228 6
 94  2 16 17 12 30.0000000  0  5 25 14 15 22 29
  21720786.547     1943051.995 8   1463115.205 8
  21209858.438    -1591786.733 7  -1196044.729 7
  21967058.555     2143160.440 6   1614376.167 6
  23126163.281    -2221089.789 5  -1670336.796 5
  22663001.531    -1315457.139 6   -989865.793 5
 94  2 16 17 13  0.0000000  0  5 25 14 15 22 29
  21734391.617     2014553.045 8   1518830.259 7
  21199642.734    -1645467.061 7  -1237873.570 7
  21982196.859     2222717.232 6   1676368.442 6
  23111441.695    -2298452.005 5  -1730618.937 5
  22654124.094    -1362087.785 6  -1026201.330 5
 94  2 16 17 13 30.0000000  0  5 25 14 15 22 29
  21748038.719     2086285.436 7   1574725.589 7
  21189469.648    -1698934.238 7  -1279536.309 7
  21997392.680     2302556.863 6   1738581.100 6
  23096733.133    -2375708.950 5  -1790819.065 5
  22645248.188    -1408727.037 6  -1062543.577 6
 94  2 16 17 14  0.0000000  0  5 25 14 15 22 29
  21761737.008     2158254.423 7   1630805.270 7
  21179334.477    -1752198.998 7  -1321041.317 7
  22012640.469     2382675.607 6   1801011.255 6
  23082059.719    -2452855.514 6  -1850933.195 5
  22636379.070    -1455371.676 6  -1098890.027 6
 94  2 16 17 14 30.0000000  0  5 25 14 15 22 29
  21775476.672     2230472.576 7   1687079.110 7
  21169238.086    -1805258.305 7  -1362386.249 7
  22027938.539     2463093.426 6   1863674.460 6
  23067392.609    -2529885.928 5  -1910956.818 5
  22627504.195    -1502004.790 6  -1135227.491 6
 94  2 16 17 15  0.0000000  0  5 25 14 15 22 29
  21789268.555     2302930.845 7   1743540.070 7
  21159180.867    -1858120.288 7  -1403577.403 7
  22043299.609     2543804.186 6   1926565.927 6
  23052757.688    -2606806.867 5  -1970895.155 5
  22618626.094    -1548628.838 6  -1171557.897 6
 94  2 16 17 15 30.0000000  0  5 25 14 15 22 29
  21803096.023     2375614.287 7   1800176.473 8
  21149154.648    -1910793.340 7  -1444621.342 7
  22058710.594     2624801.117 6   1989680.374 6
  23038148.656    -2683620.946 6  -2030750.244 5
  22609759.148    -1595236.228 6  -1207875.339 6
 94  2 16 17 16  0.0000000  0  5 25 14 15 22 29
  21816971.484     2448524.405 7   1856989.505 8
  21139169.758    -1963275.489 7  -1485516.516 7
  22074181.875     2706090.643 6   2053022.848 6
  23023550.695    -2760310.014 5  -2090507.924 5
  22600894.055    -1641823.831 6  -1244177.358 6
 94  2 16 17 16 30.0000000  0  5 25 14 15 22 29
  21830890.273     2521654.447 7   1913973.923 7
  21129219.117    -2015560.766 7  -1526258.289 7
  22089704.148     2787671.581 6   2116592.362 6
  23008987.258    -2836842.084 5  -2150143.267 5
  22592029.352    -1688405.707 6  -1280474.928 6
 94  2 16 17 17  0.0000000  0  5 25 14 15 22 29
  21844847.328     2595010.081 7   1971134.122 7
  21119307.352    -2067638.021 7  -1566837.964 7
  22105283.547     2869534.430 6   2180381.565 6
  22994457.383    -2913206.851 5  -2209648.260 5
  22583163.719    -1734992.980 6  -1316776.713 6
 94  2 16 17 17 30.0000000  0  5 25 14 15 22 29
  21858852.805     2668595.735 7   2028473.548 7
  21109440.078    -2119496.827 7  -1607247.416 7
  22120919.852     2951677.867 6   2244389.411 6
  22979963.031    -2989412.992 6  -2269029.619 5
  22574294.711    -1781586.851 6  -1353083.631 6
 94  2 16 17 18  0.0000000  0  5 25 14 15 22 29
  21872897.063     2742397.857 7   2085981.648 8
  21099614.883    -2171135.854 7  -1647485.617 7
  22136599.555     3034088.800 6   2308605.690 6
  22965480.336    -3065484.037 5  -2328305.703 5
  22565429.188    -1828205.356 6  -1389409.730 6
 94  2 16 17 18 30.0000000  0  5 25 14 15 22 29
  21886981.281     2816430.736 7   2143669.561 7
  21089833.469    -2222521.646 7  -1687526.493 7
  22152331.031     3116786.612 6   2373045.514 6
  22951033.242    -3141409.765 5  -2387468.570 5
  22556556.234    -1874826.199 6  -1425737.669 6
 94  2 16 17 19  0.0000000  0  5 25 14 15 22 29
  21901113.711     2890688.997 7   2201533.086 7
  21080104.195    -2273659.661 7  -1727374.295 7
  22168125.188     3199762.715 6   2437702.189 6
  22936605.898    -3217217.462 6  -2446539.444 5
  22547684.141    -1921443.153 6  -1462062.566 6
 94  2 16 17 19 30.0000000  0  5 25 14 15 22 29
  21915282.313     2965140.201 7   2259546.959 8
  21070412.102    -2324586.501 7  -1767057.555 7
  22183966.008     3282998.239 6   2502561.011 6
  22922201.273    -3292911.474 6  -2505521.737 5
  22538808.875    -1968071.658 6  -1498396.458 6
 94  2 16 17 20  0.0000000  0  5 25 14 15 22 29
  21929489.516     3039804.989 7   2317727.239 7
  21060766.594    -2375291.060 7  -1806567.610 7
  22199857.820     3366514.343 6   2567638.466 6
  22907827.852    -3368446.128 6  -2564379.829 5
  22529942.367    -2014698.096 6  -1534728.739 6
 94  2 16 17 20 30.0000000  0  5 25 14 15 22 29
  21943740.555     3114676.801 7   2376068.858 7
  21051154.898    -2425776.135 7  -1845906.632 7
  22215789.969     3450294.720 6   2632921.840 6
  22893486.055    -3443820.096 6  -2623112.711 5
  22521062.914    -2061334.440 6  -1571068.729 6
 94  2 16 17 21  0.0000000  0  5 25 14 15 22 29
  21958023.328     3189766.424 7   2434580.172 7
  21041597.734    -2476020.425 7  -1885058.022 7
  22231796.414     3534345.406 6   2698415.862 6
  22879175.336    -3519018.153 6  -2681708.520 5
  22512187.148    -2107972.232 6  -1607409.861 6
 94  2 16 17 21 30.0000000  0  5 25 14 15 22 29
  21972356.273     3265065.576 7   2493254.759 7
  21032082.492    -2526009.693 7  -1924010.704 7
  22247833.219     3618663.906 6   2764118.561 6
  22864901.250    -3594028.768 6  -2740158.273 5
  22503317.898    -2154607.544 6  -1643749.043 6
 94  2 16 17 22  0.0000000  0  5 25 14 15 22 29
  21986728.914     3340589.957 7   2552104.847 7
  21022625.852    -2575695.683 7  -1962727.067 7
  22263939.375     3703253.192 6   2830032.243 6
  22850657.438    -3668857.811 6  -2798466.528 5
  22494440.617    -2201219.045 6  -1680069.677 6
 94  2 16 17 22 30.0000000  0  5 25 14 15 22 29
  22001139.555     3416330.436 7   2611123.322 7
  21013232.844    -2625060.688 7  -2001193.311 7
  22280085.602     3788108.863 6   2896153.506 6
  22836454.055    -3743510.580 6  -2856637.452 5
  22485578.406    -2247794.971 6  -1716362.590 6
 94  2 16 17 23  0.0000000  0  5 25 14 15 22 29
  22015592.133     3492280.305 7   2670304.976 7
  21003898.125    -2674126.293 7  -2039426.244 7
  22296283.109     3873226.641 6   2962479.007 6
  22822282.750    -3817984.115 6  -2914668.697 5
  22476728.086    -2294335.430 6  -1752627.879 6
 94  2 16 17 23 30.0000000  0  5 25 14 15 22 29
  22030088.797     3568448.371 7   2729656.667 7
  20994613.969    -2722908.588 7  -2077438.436 7
  22312524.586     3958604.341 6   3029007.051 6
  22808149.016    -3892275.979 6  -2972558.391 5
  22467880.922    -2340828.083 6  -1788855.906 6
 94  2 16 17 24  0.0000000  0  5 25 14 15 22 29
  22044625.359     3644839.948 7   2789182.508 7
  20985378.625    -2771428.209 7  -2115245.949 7
  22328825.203     4044242.930 6   3095738.365 6
  22794044.617    -3966378.315 6  -3030300.410 5
  22459043.063    -2387281.410 6  -1825053.326 6
 94  2 16 17 24 30.0000000  0  5 25 14 15 22 29
  22059201.031     3721441.652 7   2848872.080 7
  20976190.789    -2819717.311 7  -2152873.835 7
  22345166.445     4130138.895 6   3162670.236 6
  22779978.352    -4040271.277 6  -3087879.296 5
  22450208.703    -2433713.371 6  -1861234.076 6
 94  2 16 17 25  0.0000000  0  5 25 14 15 22 29
  22073822.219     3798254.824 7   2908726.449 7
  20967048.125    -2867781.351 7  -2190326.346 7
  22361564.922     4216290.197 6   3229801.081 6
  22765962.852    -4113943.594 6  -3145286.244 5
  22441371.898    -2480120.201 6  -1897395.262 6
 94  2 16 17 25 30.0000000  0  5 25 14 15 22 29
  22088477.898     3875283.529 7   2968748.777 7
  20957943.664    -2915599.405 7  -2227587.183 7
  22378008.695     4302702.138 6   3297135.010 6
  22751985.750    -4187383.501 6  -3202512.101 5
  22432551.328    -2526497.455 6  -1933533.388 6
 94  2 16 17 26  0.0000000  0  5 25 14 15 22 29
  22103173.813     3952509.979 7   3028925.171 7
  20948892.992    -2963168.784 7  -2264654.244 7
  22394492.172     4389361.207 6   3364661.519 6
  22738058.773    -4260593.591 6  -3259558.905 5
  22423718.891    -2572879.240 6  -1969675.052 6
 94  2 16 17 26 30.0000000  0  5 25 14 15 22 29
  22117908.695     4029951.879 7   3089269.465 7
  20939902.289    -3010439.370 7  -2301488.489 7
  22411039.211     4476274.373 6   3432386.018 6
  22724172.313    -4333567.188 6  -3316421.423 5
  22414899.734    -2619236.825 6  -2005797.864 6
 94  2 16 17 27  0.0000000  0  5 25 14 15 22 29
  22132686.266     4107602.620 7   3149776.501 7
  20930960.094    -3057410.490 7  -2338089.376 8
  22427617.805     4563423.789 6   3500294.594 6
  22710324.953    -4406333.630 6  -3373122.529 6
  22406080.969    -2665572.021 6  -2041903.218 6
 94  2 16 17 27 30.0000000  0  5 25 14 15 22 29
  22147507.563     4185484.797 7   3210463.849 7
  20922084.047    -3104057.627 7  -2374437.802 8
  22444255.023     4650824.719 6   3568399.174 6
  22696520.258    -4478875.806 6  -3429648.897 6
  22397267.281    -2711877.044 6  -2077985.076 6
 94  2 16 17 28  0.0000000  0  5 25 14 15 22 29
  22162369.352     4263593.307 7   3271327.591 7
  20913270.195    -3150370.468 7  -2410525.747 8
  22460937.430     4738472.815 6   3636696.335 6
  22682754.719    -4551190.225 6  -3485997.792 6
  22388467.109    -2758142.601 6  -2114036.173 6
 94  2 16 17 28 30.0000000  0  5 25 14 15 22 29
  22177273.258     4341909.772 7   3332353.375 7
  20904520.461    -3196358.497 7  -2446360.589 8
  22477652.375     4826356.840 6   3705177.336 6
  22669040.273    -4623288.211 6  -3542178.052 6
  22379671.438    -2804354.882 6  -2150045.757 6
 94  2 16 17 29  0.0000000  0  5 25 14 15 22 29
  22192215.898     4420424.283 7   3393533.451 7
  20895823.414    -3242047.510 7  -2481962.421 8
  22494427.195     4914476.838 6   3773842.223 6
  22655360.180    -4695160.003 6  -3598182.056 6
  22370886.102    -2850536.604 6  -2186031.526 6
 94  2 16 17 29 30.0000000  0  5 25 14 15 22 29
  22207189.594     4499128.652 7   3454861.475 7
  20887190.367    -3287436.984 7  -2517330.847 8
  22511231.312     5002831.698 6   3842690.120 6
  22641737.578    -4766788.469 6  -3653996.425 6
  22362100.586    -2896689.804 6  -2221995.050 6
 94  2 16 17 30  0.0000000  0  5 25 14 15 22 29
  22222199.555     4577999.641 7   3516319.348 7
  20878604.992    -3332537.147 7  -2552473.829 8
  22528089.906     5091407.770 6   3911710.386 6
  22628142.133    -4838185.177 6  -3709630.226 5
  22353322.641    -2942822.439 6  -2257942.547 6
 94  2 16 17 30 30.0000000  0  5 25 14 15 22 29
  22237244.570     4657047.827 7   3577915.260 7
  20870078.867    -3377346.979 7  -2587390.583 8
  22544992.516     5180214.281 6   3980910.220 6
  22614611.016    -4909336.079 6  -3765072.478 5
  22344544.398    -2988944.191 6  -2293881.565 6
 94  2 16 17 31  0.0000000  0  5 25 14 15 22 29
  22252314.828     4736269.127 7   3639646.098 7
  20861610.984    -3421857.743 7  -2622074.294 8
  22561937.398     5269247.429 6   4050286.637 5
  22601113.758    -4980230.283 6  -3820314.725 6
  22335766.398    -3035061.301 6  -2329816.970 6
 94  2 16 17 31 30.0000000  0  5 25 14 15 22 29
  22267427.891     4815666.945 7   3701514.467 7
  20853198.414    -3466064.347 7  -2656521.006 8
  22578922.891     5358501.367 6   4119835.113 6
  22587672.594    -5050866.440 6  -3875355.888 6
  22327000.180    -3081151.586 6  -2365731.464 6
 94  2 16 17 32  0.0000000  0  5 25 14 15 22 29
  22282565.813     4895238.014 7   3763517.844 7
  20844844.398    -3509960.901 7  -2690726.109 8
  22595949.320     5447968.568 6   4189549.759 6
  22574280.320    -5121245.542 6  -3930196.775 6
  22318231.813    -3127222.061 6  -2401630.545 6
 94  2 16 17 32 30.0000000  0  5 25 14 15 22 29
  22297744.438     4974994.764 7   3825665.905 7
  20836554.391    -3553533.842 7  -2724679.048 8
  22613010.773     5537655.139 6   4259435.360 6
  22560939.695    -5191349.459 6  -3984823.169 6
  22309476.273    -3173254.543 6  -2437500.014 6
 94  2 16 17 33  0.0000000  0  5 25 14 15 22 29
  22312962.477     5054942.300 7   3887962.627 7
  20828324.547    -3596772.814 7  -2758371.750 8
  22630121.078     5627564.494 6   4329494.553 5
  22547656.859    -5261171.424 6  -4039229.913 5
  22300729.148    -3219214.711 6  -2473313.140 6
 94  2 16 17 33 30.0000000  0  5 25 14 15 22 29
  22328210.430     5135079.526 7   3950407.162 7
  20820158.766    -3639687.165 7  -2791811.507 8
  22647280.922     5717687.027 6   4399719.843 6
  22534415.109    -5330716.670 6  -4093420.972 6
  22291989.414    -3265121.292 6  -2509084.515 6
 94  2 16 17 34  0.0000000  0  5 25 14 15 22 29
  22343492.406     5215405.450 7   4012998.727 7
  20812059.031    -3682259.003 7  -2824984.367 8
  22664457.398     5808023.145 6   4470111.569 6
  22521240.953    -5399979.894 6  -4147392.315 6
  22283262.844    -3310988.906 6  -2544825.521 6
 94  2 16 17 34 30.0000000  0  6 25 18 14 15 22 29
  22358812.891     5295914.443 7   4075732.937 6
  24752046.180      -37806.95513
  20804019.703    -3724497.532 7  -2857897.504 8
  22681683.008     5898566.605 6   4540664.870 6
  22508112.117    -5468971.260 6  -4201151.806 5
  22274546.586    -3356814.618 6  -2580533.879 6
 94  2 16 17 35  0.0000000  0  6 25 18 14 15 22 29
  22374169.203     5376602.104 7   4138606.400 6
  24737657.578     -113468.899 2    -29484.18511
  20796045.383    -3766399.323 7  -2890548.267 7
  22698958.516     5989318.540 6   4611380.607 6
  22495029.227    -5537690.363 6  -4254699.151 6
  22265827.844    -3402604.730 6  -2616214.514 6
 94  2 16 17 35 30.0000000  0  5 25 14 15 22 29
  22389556.773     5457466.083 7   4201617.233 6
  20788136.328    -3807959.774 7  -2922933.038 8
  22716267.383     6080267.865 6   4682250.151 5
  22482009.531    -5606135.394 6  -4308032.924 6
  22257122.266    -3448375.674 6  -2651880.193 6
 94  2 16 17 36  0.0000000  0  5 25 14 15 22 29
  22404977.844     5538515.899 7   4264772.886 6
  20780299.547    -3849158.193 7  -2955035.711 8
  22733618.023     6171426.630 6   4753282.897 6
  22469039.383    -5674287.658 6  -4361138.564 6
  22248417.695    -3494091.752 6  -2687503.128 6
 94  2 16 17 36 30.0000000  0  5 25 14 15 22 29
  22420436.250     5619744.005 7   4328067.453 6
  20772524.391    -3890000.724 7  -2986861.073 8
  22751001.961     6262792.110 6   4824476.714 6
  22456126.313    -5742147.330 6  -4414016.207 6
  22239734.203    -3539745.434 6  -2723077.443 6
 94  2 16 17 37  0.0000000  0  5 25 14 15 22 29
  22435929.578     5701152.891 7   4391502.887 6
  20764818.641    -3930493.702 7  -3018414.040 7
  22768422.734     6354352.864 6   4895822.700 6
  22443263.844    -5809709.807 6  -4466662.295 6
  22231048.773    -3585349.957 6  -2758613.441 6
 94  2 16 17 37 30.0000000  0  5 25 14 15 22 29
  22451457.617     5782761.649 7   4455094.062 6
  20757182.352    -3970633.079 7  -3049691.496 7
  22785883.195     6446103.965 6   4967317.007 5
  22430473.250    -5876970.119 6  -4519072.924 6
  22222385.867    -3630908.333 6  -2794113.488 6
 94  2 16 17 38  0.0000000  0  5 25 14 15 22 29
  22467020.773     5864570.146 7   4518840.887 6
  20749613.383    -4010418.721 7  -3080693.299 7
  22803381.641     6538053.753 6   5038966.134 5
  22417729.359    -5943922.061 6  -4571243.245 6
  22213728.836    -3676418.522 6  -2829575.977 6
 94  2 16 17 38 30.0000000  0  6 25 18 14 15 22 29
  22482630.328     5946571.986 7   4582738.354 7
  24636674.008      -37928.09113
  20742105.992    -4049864.750 7  -3111430.470 7
  22820912.102     6630194.504 6   5110764.069 5
  22405046.531    -6010571.998 6  -4623178.277 6
  22205068.055    -3721904.209 6  -2865019.370 6
 94  2 16 17 39  0.0000000  0  6 25 18 14 15 22 29
  22498271.547     6028760.921 7   4646781.616 7
  24622247.055     -113813.892 4    -29569.84911
  20734665.820    -4088964.587 7  -3141897.894 7
  22838485.305     6722525.356 6   5182710.132 5
  22392426.672    -6076897.204 6  -4674860.243 6
  22196419.867    -3767364.985 7  -2900443.360 6
 94  2 16 17 39 30.0000000  0  6 25 18 14 15 22 29
  22513946.016     6111111.962 7   4710951.176 7
  24607785.672     -189746.808 3    -88738.316 1
  20727291.469    -4127703.035 7  -3172083.688 7
  22856094.422     6815049.856 6   5254807.079 5
  22379870.250    -6142880.795 6  -4726276.003 6
  22187770.109    -3812797.425 6  -2935845.268 6
 94  2 16 17 40  0.0000000  0  6 25 18 14 15 22 29
  22529639.375     6193592.242 7   4775221.461 7
  24593331.977     -265746.174 3   -147958.574 1
  20719986.492    -4166082.624 7  -3201989.866 7
  22873737.164     6907760.319 6   5327048.943 5
  22367379.445    -6208520.546 6  -4777423.876 6
  22179134.195    -3858202.727 7  -2971226.025 6
 94  2 16 17 40 30.0000000  0  6 25 18 14 15 22 29
  22545359.969     6276202.065 7   4839592.674 6
  24578844.500     -341808.257 3   -207227.688 1
  20712757.953    -4204080.412 7  -3231598.543 7
  22891415.203     7000652.713 6   5399432.575 5
  22354955.258    -6273812.956 6  -4828301.068 6
  22170493.695    -3903577.508 6  -3006582.999 6
 94  2 16 17 41  0.0000000  0  6 25 18 14 15 22 29
  22561103.500     6358942.925 7   4904066.001 6
  24564363.477     -417918.654 3   -266534.486 1
  20705601.648    -4241690.080 7  -3260904.782 7
  22909120.727     7093721.006 6   5471953.265 5
  22342595.711    -6338757.442 6  -4878907.151 6
  22161869.477    -3948918.681 7  -3041913.795 6
 94  2 16 17 41 30.0000000  0  6 25 18 14 15 22 29
  22576872.016     6441830.025 7   4968653.276 6
  24549882.195     -494056.029 3   -325862.303 1
  20698524.484    -4278903.243 7  -3289902.059 7
  22926868.617     7186971.242 6   5544615.734 5
  22330301.625    -6403360.897 6  -4929247.504 6
  22153250.656    -3994213.664 6  -3077208.593 6
 94  2 16 17 42  0.0000000  0  6 25 18 14 15 22 29
  22592682.633     6524884.233 7   5033370.794 6
  24535405.016     -570216.220 3   -385207.858 1
  20691511.141    -4315732.377 7  -3318600.083 7
  22944647.727     7280396.568 6   5617414.638 5
  22318072.758    -6467635.485 7  -4979331.583 6
  22144642.945    -4039452.901 6  -3112459.952 6
 94  2 16 17 42 30.0000000  0  6 25 18 14 15 22 29
  22608521.305     6608113.586 7   5098224.766 6
  24520894.492     -646383.472 3   -444558.908 2
  20684571.742    -4352186.802 7  -3347006.133 7
  22962446.023     7373988.910 6   5690343.671 5
  22305902.242    -6531589.567 6  -5029165.904 6
  22136045.750    -4084631.988 6  -3147664.438 6
 94  2 16 17 43  0.0000000  0  6 25 18 14 15 22 29
  22624389.227     6691519.569 7   5163216.385 6
  24506406.328     -722543.328 4   -503904.251 1
  20677705.609    -4388280.584 7  -3375131.164 7
  22980293.359     7467750.922 6   5763404.921 5
  22293795.641    -6595206.082 7  -5078737.199 6
  22127462.398    -4129732.257 6  -3182807.512 6
 94  2 16 17 43 30.0000000  0  6 25 18 14 15 22 29
  22640296.313     6775108.970 7   5228350.913 6
  24491919.109     -798694.444 4   -563242.764 1
  20670910.133    -4423996.511 7  -3402961.763 7
  22998173.875     7561686.606 6   5836601.502 5
  22281755.031    -6658467.715 6  -5128031.950 6
  22118897.742    -4174737.275 6  -3217876.349 6
 94  2 16 17 44  0.0000000  0  6 25 18 14 15 22 29
  22656237.906     6858878.384 7   5293625.720 6
  24477414.664     -874857.835 4   -622590.870 1
  20664183.664    -4459342.107 7  -3430503.797 7
  23016079.438     7655778.153 6   5909919.528 5
  22269787.156    -6721386.219 7  -5177059.358 6
  22110344.797    -4219666.501 6  -3252886.121 6
 94  2 16 17 44 30.0000000  0  6 25 18 14 15 22 29
  22672211.672     6942821.020 7   5359035.493 6
  24462929.094     -951020.156 4   -681938.171 2
  20657533.203    -4494290.151 7  -3457736.048 7
  23034018.445     7750038.206 6   5983368.874 5
  22257879.789    -6783937.689 6  -5225800.729 6
  22101811.148    -4264517.710 7  -3287835.114 6
 94  2 16 17 45  0.0000000  0  6 25 18 14 15 22 29
  22688215.273     7026918.178 7   5424565.684 6
  24448432.727    -1027208.359 4   -741305.617 1
  20650961.289    -4528837.134 7  -3484655.777 7
  23051978.352     7844454.089 6   6056939.617 5
  22246049.227    -6846122.729 7  -5274256.600 6
  22093290.766    -4309316.761 7  -3322743.457 6
 94  2 16 17 45 30.0000000  0  6 25 18 14 15 22 29
  22704248.813     7111165.352 6   5490212.762 6
  24433919.797    -1103435.675 4   -800703.523 2
  20644461.586    -4562971.156 7  -3511253.722 7
  23069976.883     7939023.338 6   6130629.877 5
  22234284.867    -6907956.140 7  -5322438.438 6
  22084774.227    -4354080.793 6  -3357624.503 6
 94  2 16 17 46  0.0000000  0  6 25 18 14 15 22 29
  22720303.703     7195558.040 7   5555973.211 7
  24419391.805    -1179688.991 3   -860121.706 1
  20638045.867    -4596686.316 7  -3537525.277 7
  23088008.414     8033755.803 6   6204447.315 5
  22222585.234    -6969435.025 7  -5370344.031 6
  22076263.398    -4398802.441 7  -3392472.532 6
 94  2 16 17 46 30.0000000  0  6 25 18 14 15 22 29
  22736386.016     7280066.784 7   5621824.098 6
  24404898.797    -1255966.576 4   -919558.834 1
  20631711.117    -4629984.429 7  -3563471.864 7
  23106065.047     8128641.898 6   6278384.471 5
  22210948.875    -7030561.030 6  -5417974.662 6
  22067757.055    -4443485.276 7  -3427290.312 6
 94  2 16 17 47  0.0000000  0  6 25 18 14 15 22 29
  22752492.609     7364705.097 7   5687775.972 6
  24390364.266    -1332269.989 3   -979016.047 1
  20625453.063    -4662861.433 7  -3589090.314 7
  23124147.336     8223679.191 6   6352439.433 5
  22199387.109    -7091336.913 6  -5465332.463 6
  22059264.250    -4488122.247 7  -3462072.359 6
 94  2 16 17 47 30.0000000  0  6 25 18 14 15 22 29
  22768624.289     7449468.457 7   5753825.280 6
  24375853.742    -1408591.582 4  -1038487.484 2
  20619276.984    -4695317.511 7  -3614380.773 7
  23142261.383     8318862.027 6   6426607.814 5
  22187887.672    -7151764.874 6  -5512419.160 6
  22050781.320    -4532704.290 7  -3496811.597 6
 94  2 16 17 48  0.0000000  0  6 25 18 14 15 22 29
  22784779.828     7534370.863 7   5819982.951 6
  24361326.523    -1484916.542 3  -1097961.492 1
  20613183.727    -4727344.415 7  -3639336.805 7
  23160401.000     8414192.937 6   6500891.582 5
  22176457.055    -7211819.866 6  -5559215.238 6
  22042311.352    -4577216.534 7  -3531496.444 6
 94  2 16 17 48 30.0000000  0  6 25 18 14 15 22 29
  22800963.414     7619420.008 7   5886254.947 6
  24346802.578    -1561248.195 4  -1157440.715 1
  20607172.445    -4758939.875 7  -3663956.657 7
  23178569.359     8509664.793 6   6575285.152 5
  22165102.656    -7271486.456 6  -5605708.672 6
  22033849.461    -4621665.361 7  -3566131.883 6
 94  2 16 17 49  0.0000000  0  6 25 18 14 15 22 29
  22817176.195     7704621.957 6   5952645.999 6
  24332286.109    -1637592.312 4  -1216929.666 1
  20601239.773    -4790111.578 7  -3688246.313 7
  23196761.586     8605273.877 6   6649785.657 5
  22153824.172    -7330756.680 7  -5651893.231 6
  22025404.148    -4666051.227 7  -3600718.264 6
 94  2 16 17 49 30.0000000  0  6 25 18 14 15 22 29
  22833421.930     7789983.720 6   6019161.576 6
  24317742.297    -1713938.765 4  -1276420.385 1
  20595386.016    -4820856.174 7  -3712203.147 7
  23214988.797     8701023.698 5   6724395.842 5
  22142630.047    -7389614.757 7  -5697756.646 6
  22016968.688    -4710367.540 7  -3635250.440 6
 94  2 16 17 50  0.0000000  0  6 25 18 14 15 22 29
  22849697.094     7875513.437 7   6085808.023 6
  24303218.875    -1790290.607 3  -1335915.299 1
  20589620.656    -4851181.367 7  -3735833.175 7
  23233226.344     8796910.007 5   6799112.372 5
  22131502.227    -7448052.021 7  -5743292.160 6
  22008546.648    -4754615.357 6  -3669729.249 6
 94  2 16 17 50 30.0000000  0  6 25 18 14 15 22 29
  22866007.086     7961202.287 6   6152578.493 6
  24288693.305    -1866653.513 4  -1395418.817 2
  20583929.734    -4881089.178 7  -3759137.964 7
  23251499.227     8892928.009 5   6873931.520 5
  22120462.492    -7506067.221 6  -5788498.779 6
  22000140.023    -4798789.165 7  -3704150.402 6
 94  2 16 17 51  0.0000000  0  6 25 18 14 15 22 29
  22882338.133     8047040.753 6   6219465.531 6
  24274158.211    -1943024.687 4  -1454928.797 2
  20578313.578    -4910589.599 7  -3782125.319 7
  23269787.281     8989074.033 5   6948850.424 5
  22109505.711    -7563673.802 7  -5833387.032 6
  21991755.883    -4842879.497 7  -3738506.497 6
 94  2 16 17 51 30.0000000  0  6 25 18 14 15 22 29
  22898697.117     8133028.610 6   6286468.989 6
  24259621.391    -2019394.137 4  -1514437.413 1
  20572777.063    -4939683.137 7  -3804795.624 7
  23288111.883     9085349.945 5   7023870.551 5
  22098625.328    -7620860.823 7  -5877948.331 6
  21983383.094    -4886880.616 7  -3772793.090 6
 94  2 16 17 52  0.0000000  0  6 25 18 14 15 22 29
  22915088.828     8219140.208 6   6353568.862 6
  24245078.531    -2095770.589 3  -1573951.505 2
  20567316.258    -4968374.455 7  -3827152.505 7
  23306466.641     9181748.800 5   7098986.455 5
  22087816.977    -7677637.513 7  -5922189.895 6
  21975027.695    -4930784.719 7  -3807004.087 6
 94  2 16 17 52 30.0000000  0  6 25 18 14 15 22 29
  22931492.867     8305352.398 6   6420747.111 6
  24230554.930    -2172157.984 3  -1633474.138 1
  20561935.969    -4996658.351 7  -3849191.920 7
  23324832.039     9278267.292 5   7174195.587 5
  22077086.625    -7734010.287 6  -5966116.714 6
  21966689.484    -4974599.947 7  -3841145.837 6
 94  2 16 17 53  0.0000000  0  6 25 18 14 15 22 29
  22947912.773     8391652.253 6   6487993.660 6
  24216018.891    -2248554.184 4  -1693003.655 1
  20556628.508    -5024539.419 7  -3870917.434 7
  23343217.484     9374898.119 5   7249492.251 5
  22066437.164    -7789988.283 7  -6009735.918 6
  21958359.688    -5018347.927 7  -3875235.173 6
 94  2 16 17 53 30.0000000  0  6 25 18 14 15 22 29
  22964359.547     8478049.366 6   6555315.999 6
  24201472.695    -2324957.997 4  -1752539.022 1
  20551408.094    -5051984.512 7  -3892303.231 7
  23361627.078     9471648.922 5   7324882.416 5
  22055861.594    -7845549.419 6  -6053030.303 6
  21950053.672    -5062020.567 7  -3909265.828 6
 94  2 16 17 54  0.0000000  0  6 25 18 14 15 22 29
  22980811.625     8564537.866 6   6622709.559 6
  24186934.133    -2401377.608 4  -1812086.750 1
  20546268.359    -5078984.762 7  -3913342.390 7
  23380059.578     9568505.359 5   7400354.902 5
  22045367.055    -7900702.733 7  -6096006.905 6
  21941758.227    -5105630.012 7  -3943247.224 6
 94  2 16 17 54 30.0000000  0  6 25 18 14 15 22 29
  22997295.781     8651148.091 6   6690197.966 6
  24172391.352    -2477792.672 5  -1871630.925 1
  20541221.320    -5105521.144 7  -3934020.097 7
  23398507.516     9665476.056 5   7475916.410 5
  22034949.805    -7955433.069 7  -6138653.900 6
  21933468.992    -5149179.938 7  -3977182.255 6
 94  2 16 17 55  0.0000000  0  6 25 18 14 15 22 29
  23013798.188     8737888.214 6   6757787.596 6
  24157839.070    -2554205.686 4  -1931173.480 1
  20536257.555    -5131600.123 7  -3954341.395 7
  23416980.883     9762550.915 5   7551559.065 5
  22024617.477    -8009739.269 7  -6180970.390 6
  21925193.461    -5192668.243 7  -4011069.266 6
 94  2 16 17 55 30.0000000  0  6 25 18 14 15 22 29
  23030335.625     8824768.930 6   6825486.769 6
  24143295.664    -2630619.135 3  -1990716.369 1
  20531382.656    -5157206.473 7  -3974294.399 7
  23435484.477     9859729.411 6   7627282.497 5
  22014367.586    -8063622.004 7  -6222956.913 6
  21916928.219    -5236084.401 7  -4044900.035 6
 94  2 16 17 56  0.0000000  0  6 25 18 14 15 22 29
  23046896.406     8911798.283 6   6893301.767 6
  24128767.328    -2707019.451 3  -2050249.068 1
  20526603.719    -5182344.681 7  -3993882.622 7
  23454001.336     9957011.879 6   7703086.938 4
  22004187.070    -8117078.990 6  -6264611.683 6
  21908678.914    -5279435.611 7  -4078680.206 6
 94  2 16 17 56 30.0000000  0  6 25 18 14 15 22 29
  23063483.461     8998956.985 6   6961217.545 6
  24114225.391    -2783424.106 3  -2109785.129 1
  20521906.055    -5207026.975 7  -4013115.583 7
  23472523.500    10054388.841 5   7778965.006 4
  21994103.047    -8170117.680 7  -6305940.516 6
  21900439.078    -5322734.888 7  -4112419.901 6
 94  2 16 17 57  0.0000000  0  6 25 18 14 15 22 29
  23080091.070     9086240.966 6   7029230.951 6
  24099694.195    -2859824.929 4  -2169318.199 1
  20517298.227    -5231234.595 7  -4031978.669 7
  23491070.219    10151869.302 5   7854923.751 3
  21984092.273    -8222706.783 7  -6346919.024 6
  21892217.188    -5365967.782 7  -4146107.886 6
 94  2 16 17 57 30.0000000  0  6 25 18 14 15 22 29
  23096721.508     9173635.633 6   7097330.606 6
  24085156.688    -2936229.965 5  -2228854.567 1
  20512778.523    -5254972.546 7  -4050475.775 7
  23509636.039    10249439.928 5   7930952.727 3
  21974174.805    -8274849.954 7  -6387550.035 6
  21883993.992    -5409151.775 7  -4179757.747 6
 94  2 16 17 58  0.0000000  0  6 25 18 14 15 22 29
  23113378.219     9261132.594 6   7165509.968 6
  24070603.844    -3012633.737 5  -2288389.927 1
  20508349.172    -5278257.433 7  -4068619.851 7
  23528224.164    10347098.610 5   8007050.331 4
  21964338.039    -8326522.812 7  -6427814.561 6
  21875789.484    -5452286.199 7  -4213368.989 6
 94  2 16 17 58 30.0000000  0  6 25 18 14 15 22 29
  23130042.008     9348725.221 6   7233763.885 6
  24056067.156    -3089038.405 4  -2347925.996 2
  20504005.633    -5301091.611 7  -4086412.726 7
  23546817.828    10444843.782 5   8083215.316 5
  21954596.352    -8377719.948 7  -6467708.395 6
  21867593.914    -5495352.372 7  -4246927.038 6
 94  2 16 17 59  0.0000000  0  6 25 18 14 15 22 29
  23146732.422     9436416.666 6   7302094.813 6
  24041524.281    -3165441.959 4  -2407461.221 1
  20499743.266    -5323477.521 7  -4103856.298 7
  23565437.727    10542666.199 5   8159440.503 4
  21944935.211    -8428455.388 7  -6507242.471 6
  21859415.078    -5538344.755 7  -4280427.594 6
 94  2 16 17 59 30.0000000  0  6 25 18 14 15 22 29
  23163437.125     9524222.007 6   7370514.483 6
  24026989.656    -3241838.626 4  -2466991.071 2
  20495570.328    -5345411.936 7  -4120948.058 7
  23584071.953    10640576.549 5   8235734.190 5
  21935371.078    -8478736.190 7  -6546422.285 6
  21851246.719    -5581246.871 7  -4313857.803 6
 94  2 16 18  0  0.0000000  0  6 25 18 14 15 22 29
  23180165.578     9612124.791 6   7439010.087 6
  24012464.750    -3318249.132 5  -2526531.738 2
  20491480.125    -5366894.977 7  -4137688.103 7
  23602718.070    10738568.009 5   8312091.071 4
  21925887.117    -8528575.002 7  -6585257.701 6
  21843104.109    -5624052.026 7  -4347212.467 6
 94  2 16 18  0 30.0000000  0  6 25 18 14 15 22 29
  23196912.039     9700119.626 6   7507577.406 6
  23997918.281    -3394682.823 5  -2586090.420 2
  20487484.883    -5387915.269 7  -4154067.563 7
  23621373.609    10836635.842 5   8388507.475 4
  21916484.461    -8577991.087 7  -6623763.710 7
  21834976.750    -5666751.890 7  -4380485.077 6
 94  2 16 18  1  0.0000000  0  6 25 18 14 15 22 29
  23213669.219     9788209.576 6   7576218.833 6
  23983358.484    -3471135.233 5  -2645663.727 2
  20483571.820    -5408463.223 7  -4170078.960 7
  23640052.477    10934781.493 5   8464984.506 4
  21907164.289    -8626976.332 7  -6661933.993 6
  21826871.750    -5709356.761 7  -4413683.681 6
 94  2 16 18  1 30.0000000  0  6 25 18 14 15 22 29
  23230453.008     9876389.928 6   7644930.696 6
  23968808.383    -3547604.551 4  -2705250.183 2
  20479750.273    -5428541.433 7  -4185724.334 7
  23658744.578    11033002.649 5   8541520.390 4
  21897925.305    -8675511.508 7  -6699753.575 6
  21818780.430    -5751866.488 7  -4446808.130 7
 94  2 16 18  2  0.0000000  0  6 25 18 14 15 22 29
  23247246.750     9964663.703 6   7713715.361 6
  23954253.844    -3624075.538 4  -2764837.956 2
  20476021.992    -5448145.592 7  -4201000.311 7
  23677447.797    11131289.951 5   8618107.806 4
  21888774.617    -8723593.045 7  -6737219.665 6
  21810703.164    -5794284.958 7  -4479861.482 7
 94  2 16 18  2 30.0000000  0  6 25 18 14 15 22 29
  23264068.117    10053048.960 6   7782586.898 5
  23939703.922    -3700534.516 5  -2824416.359 2
  20472382.703    -5467280.036 7  -4215910.277 7
  23696166.133    11229631.829 5   8694737.742 4
  21879710.523    -8771217.105 7  -6774329.286 6
  21802652.477    -5836628.612 7  -4512856.513 7
 94  2 16 18  3  0.0000000  0  6 25 18 14 15 22 29
  23280913.719    10141573.394 6   7851566.893 5
  23925166.781    -3776960.275 5  -2883968.866 2
  20468832.555    -5485930.416 7  -4230443.044 7
  23714888.531    11328041.009 5   8771420.110 4
  21870747.742    -8818352.064 7  -6811057.782 6
  21794608.375    -5878892.144 7  -4545789.141 7
 94  2 16 18  3 30.0000000  0  6 25 18 14 15 22 29
  23297787.859    10230222.051 6   7920643.684 5
  23910632.266    -3853357.478 5  -2943499.114 2
  20465371.695    -5504097.254 7  -4244599.041 7
  23733624.766    11426507.159 5   8848146.874 4
  21861866.938    -8865003.471 7  -6847409.491 6
  21786576.727    -5921076.865 7  -4578660.331 7
 94  2 16 18  4  0.0000000  0  6 25 18 14 15 22 29
  23314684.219    10318999.725 6   7989821.005 5
  23896095.289    -3929723.590 4  -3003005.116 2
  20462011.719    -5521769.815 7  -4258369.874 7
  23752372.664    11525037.257 5   8924923.507 4
  21853088.320    -8911161.603 7  -6883376.827 6
  21778566.828    -5963172.078 7  -4611461.804 7
 94  2 16 18  4 30.0000000  0  6 25 18 14 15 22 29
  23331594.445    10407879.200 6   8059077.619 6
  23881563.383    -4006087.210 4  -3062509.226 1
  20458741.742    -5538951.496 7  -4271758.206 7
  23771141.594    11623622.346 5   9001742.966 4
  21844396.945    -8956823.491 7  -6918957.477 7
  21770575.641    -6005177.045 7  -4644192.939 7
 94  2 16 18  5  0.0000000  0  6 25 18 14 15 22 29
  23348522.109    10496823.615 6   8128384.854 5
  23867023.414    -4082457.958 4  -3122018.845 2
  20455566.297    -5555645.587 7  -4284766.601 7
  23789909.070    11722257.227 5   9078601.201 4
  21835802.609    -9001995.797 7  -6954156.646 6
  21762599.836    -6047096.276 7  -4676857.271 7
 94  2 16 18  5 30.0000000  0  6 25 18 14 15 22 29
  23365457.141    10585826.832 6   8197737.898 5
  23852487.141    -4158823.178 4  -3181524.168 2
  20452483.875    -5571830.925 7  -4297378.550 7
  23808692.219    11820946.393 5   9155501.755 4
  21827291.664    -9046673.978 7  -6988970.771 6
  21754642.141    -6088921.228 7  -4709448.134 7
 94  2 16 18  6  0.0000000  0  6 25 18 14 15 22 29
  23382403.352    10674893.872 6   8267140.660 6
  23837973.578    -4235184.201 5  -3241026.219 3
  20449502.125    -5587501.525 7  -4309589.417 7
  23827478.055    11919687.941 5   9232443.097 4
  21818887.617    -9090853.653 7  -7023396.466 6
  21746699.539    -6130652.545 7  -4741966.033 7
 94  2 16 18  6 30.0000000  0  6 25 18 14 15 22 29
  23399369.344    10764029.434 6   8336596.813 5
  23823438.977    -4311540.571 4  -3300524.620 2
  20446618.086    -5602666.993 7  -4321406.667 7
  23846274.086    12018468.336 5   9309414.742 3
  21810574.516    -9134556.875 7  -7057450.892 7
  21738772.625    -6172316.726 7  -4774431.629 7
 94  2 16 18  7  0.0000000  0  6 25 18 14 15 22 29
  23416347.203    10853249.149 6   8406118.552 5
  23808916.219    -4387873.353 5  -3360004.686 2
  20443825.242    -5617334.964 7  -4332836.266 6
  23865079.234    12117288.454 5   9386417.329 5
  21802349.922    -9177778.802 7  -7091130.277 6
  21730855.859    -6213923.333 7  -4806852.363 7
 94  2 16 18  7 30.0000000  0  6 25 18 14 15 22 29
  23433341.109    10942559.193 6   8475710.695 5
  23794384.844    -4464187.410 4  -3419470.122 3
  20441128.820    -5631516.610 7  -4343886.902 7
  23883898.086    12216141.710 5   9463445.715 4
  21794214.922    -9220521.610 7  -7124436.333 7
  21722951.125    -6255455.804 7  -4839215.331 7
 94  2 16 18  8  0.0000000  0  6 25 18 14 15 22 29
  23450355.164    11031975.042 6   8545385.268 6
  23779862.016    -4540483.024 5  -3478921.217 3
  20438517.227    -5645229.294 7  -4354572.117 7
  23902708.523    12315032.169 5   9540503.089 4
  21786171.570    -9262778.830 7  -7157364.013 7
  21715061.117    -6296895.056 7  -4871505.649 7
 94  2 16 18  8 30.0000000  0  6 25 18 14 15 22 29
  23467394.445    11121493.710 6   8615139.961 5
  23765358.398    -4616752.581 5  -3538351.997 2
  20435992.758    -5658482.282 7  -4364899.124 7
  23921532.078    12413960.158 5   9617589.731 4
  21778224.391    -9304551.885 7  -7189914.440 7
  21707201.562    -6338226.113 7  -4903711.664 7
 94  2 16 18  9  0.0000000  0  6 25 18 14 15 22 29
  23484442.414    11211083.184 6   8684949.839 5
  23750852.375    -4693001.136 5  -3597766.420 2
  20433566.023    -5671262.717 7  -4374857.911 7
  23940372.906    12512922.554 5   9694703.196 3
  21770373.641    -9345821.540 7  -7222072.596 7
  21699355.688    -6379423.012 7  -4935813.138 7
 94  2 16 18  9 30.0000000  0  6 25 18 14 15 22 29
  23501499.094    11300733.498 6   8754807.112 5
  23736333.258    -4769237.440 5  -3657171.279 3
  20431224.547    -5683556.419 7  -4384437.421 7
  23959200.305    12611913.336 5   9771838.802 2
  21762610.734    -9386592.842 7  -7253842.439 7
  21691548.977    -6420481.645 7  -4967806.875 7
 94  2 16 18 10  0.0000000  0  6 25 18 14 15 22 29
  23518569.578    11390445.931 6   8824712.797 5
  23721836.430    -4845463.567 5  -3716568.207 2
  20428976.031    -5695353.210 7  -4393629.739 7
  23978046.367    12710928.609 5   9848993.456 3
  21754955.656    -9426860.916 7  -7285220.145 7
  21683757.063    -6461424.630 7  -4999710.502 7
 94  2 16 18 10 30.0000000  0  6 25 18 14 15 22 29
  23535656.922    11480210.029 6   8894658.737 5
  23707339.031    -4921678.381 5  -3775956.295 2
  20426833.109    -5706631.766 7  -4402418.238 7
  23996894.430    12809963.017 5   9926163.005 3
  21747384.398    -9466623.021 7  -7316203.577 7
  21675981.750    -6502255.363 7  -5031526.655 7
 94  2 16 18 11  0.0000000  0  6 25 18 14 15 22 29
  23552742.391    11570024.069 6   8964643.586 5
  23692830.039    -4997884.788 5  -3835337.832 2
  20424787.937    -5717385.125 7  -4410797.495 7
  24015736.805    12909014.902 5  10003346.174 3
  21739918.273    -9505865.548 7  -7346782.155 7
  21668232.141    -6542988.281 7  -5063266.588 7
 94  2 16 18 11 30.0000000  0  6 25 18 14 15 22 29
  23569851.203    11659909.902 6   9034684.384 5
  23678330.977    -5074080.781 5  -3894711.279 2
  20422838.180    -5727626.612 7  -4418777.893 7
  24034595.852    13008082.480 5  10080541.562 3
  21732546.523    -9544588.127 7  -7376955.582 7
  21660499.773    -6583641.504 7  -5094944.434 7
 94  2 16 18 12  0.0000000  0  6 25 18 14 15 22 29
  23586971.750    11749881.300 6   9104791.851 5
  23663830.719    -5150257.151 5  -3954069.426 2
  20420982.961    -5737359.549 7  -4426362.011 7
  24053444.297    13107166.819 4  10157750.026 4
  21725279.938    -9582774.525 7  -7406711.200 7
  21652777.391    -6624204.495 7  -5126551.956 7
 94  2 16 18 12 30.0000000  0  6 25 18 14 15 22 29
  23604103.977    11839933.077 6   9174961.945 5
  23649340.477    -5226414.089 5  -4013412.423 2
  20419231.508    -5746595.830 7  -4433559.130 7
  24072296.867    13206259.152 5  10234964.722 3
  21718112.016    -9620419.931 7  -7436045.270 7
  21645080.648    -6664674.514 7  -5158087.047 7
 94  2 16 18 13  0.0000000  0  6 25 18 14 15 22 29
  23621254.609    11930062.615 6   9245192.632 5
  23634857.898    -5302556.592 5  -4072744.172 2
  20417565.016    -5755340.068 7  -4440372.838 7
  24091155.555    13305357.871 5  10312184.383 2
  21711059.633    -9657516.936 7  -7464952.027 7
  21637391.313    -6705064.388 7  -5189559.677 7
 94  2 16 18 13 30.0000000  0  6 25 18 14 15 22 29
  23638429.617    12020287.621 6   9315497.719 5
  23620362.563    -5378679.729 5  -4132060.846 2
  20415996.078    -5763572.823 7  -4446787.981 7
  24110026.789    13404464.110 5  10389409.913 2
  21704100.664    -9694069.223 7  -7493434.301 7
  21629727.219    -6745358.141 7  -5220957.416 7
 94  2 16 18 14  0.0000000  0  6 25 18 14 15 22 29
  23655605.703    12110592.548 5   9385865.079 5
  23605891.203    -5454788.459 5  -4191366.271 1
  20414527.984    -5771280.843 7  -4452794.251 6
  24128888.875    13503567.675 5  10466633.365 2
  21697247.609    -9730097.363 7  -7521508.158 7
  21622075.063    -6785555.484 7  -5252280.011 7
 94  2 16 18 14 30.0000000  0  6 25 18 14 15 22 29
  23672812.547    12200958.349 6   9456279.847 5
  23591401.008    -5530881.157 5  -4250659.217 2
  20413166.461    -5778451.017 7  -4458381.425 7
  24147733.570    13602668.106 4  10543854.374 2
  21690483.531    -9765613.163 7  -7549182.789 7
  21614446.922    -6825663.335 7  -5283532.880 7
 94  2 16 18 15  0.0000000  0  6 25 18 14 15 22 29
  23690008.430    12291378.263 5   9526736.777 5
  23576936.633    -5606941.571 5  -4309927.010 3
  20411910.078    -5785062.556 8  -4463533.289 7
  24166595.219    13701775.032 4  10621080.477 2
  21683823.031    -9800623.811 7  -7576463.801 7
  21606828.516    -6865665.285 7  -5314703.228 7
 94  2 16 18 15 30.0000000  0  6 25 18 14 15 22 29
  23707229.727    12381845.518 5   9597230.592 5
  23562466.875    -5682967.548 5  -4369167.988 2
  20410753.164    -5791127.956 7  -4468259.592 7
  24185449.539    13800876.750 3  10698302.477 2
  21677258.063    -9835149.280 7  -7603366.756 7
  21599240.906    -6905562.406 7  -5345791.891 7
 94  2 16 18 16  0.0000000  0  6 25 18 14 15 22 29
  23724455.953    12472347.742 6   9667751.674 5
  23548002.453    -5758951.231 5  -4428375.989 3
  20409700.867    -5796660.896 7  -4472571.002 7
  24204318.531    13899973.175 4  10775520.349 2
  21670780.523    -9869182.256 7  -7629885.954 7
  21591667.711    -6945350.509 7  -5376795.610 7
 94  2 16 18 16 30.0000000  0  6 25 18 14 15 22 29
  23741670.750    12562870.707 6   9738288.927 5
  23533544.133    -5834904.814 5  -4487560.546 3
  20408743.070    -5801685.741 7  -4476486.491 7
  24223171.617    13999057.859 5  10852729.100 4
  21664402.305    -9902714.629 7  -7656015.073 7
  21584116.922    -6985023.869 7  -5407709.905 7
 94  2 16 18 17  0.0000000  0  6 25 18 14 15 22 29
  23758903.523    12653430.695 6   9808855.016 5
  23519106.594    -5910828.420 5  -4546721.764 3
  20407883.781    -5806207.400 7  -4480009.883 7
  24242022.133    14098128.756 4  10929927.088 3
  21658114.547    -9935729.894 7  -7681741.250 7
  21576593.320    -7024576.087 7  -5438529.824 7
 94  2 16 18 17 30.0000000  0  6 25 18 14 15 22 29
  23776160.188    12744050.668 6   9879467.844 5
  23504664.258    -5986727.260 5  -4605863.668 4
  20407118.500    -5810224.392 7  -4483140.030 7
  24260859.141    14197183.833 3  11007112.775 2
  21651934.766    -9968200.204 7  -7707042.790 7
  21569086.086    -7064005.003 7  -5469253.650 7
 94  2 16 18 18  0.0000000  0  6 25 18 14 15 22 29
  23793406.789    12834725.876 6   9950123.723 5
  23490224.898    -6062611.164 5  -4664993.917 3
  20406454.008    -5813721.447 7  -4485865.039 7
  24279708.125    14296219.468 4  11084283.276 2
  21645866.023   -10000103.083 7  -7731902.178 7
  21561615.508    -7103306.175 7  -5499877.941 7
 94  2 16 18 18 30.0000000  0  6 25 18 14 15 22 29
  23810674.500    12925463.688 6  10020828.399 5
  23475786.789    -6138483.542 5  -4724115.212 5
  20405890.469    -5816688.979 7  -4488177.421 7
  24298553.516    14395235.507 3  11161438.508 3
  21639907.305   -10031422.855 7  -7756307.188 7
  21554156.188    -7142481.383 7  -5530404.080 7
 94  2 16 18 19  0.0000000  0  6 25 18 14 15 22 29
  23827964.938    13016278.068 6  10091592.744 5
  23461347.703    -6214338.828 5  -4783223.175 5
  20405424.000    -5819123.081 7  -4490074.157 7
  24317399.523    14494225.180 4  11238573.190 1
  21634055.016   -10062166.127 7  -7780262.998 7
  21546720.141    -7181555.244 7  -5560851.237 7
 94  2 16 18 19 30.0000000  0  6 25 18 14 15 22 29
  23845249.133    13107152.185 6  10162403.627 5
  23446914.078    -6290182.018 5  -4842321.707 4
  20405063.992    -5821025.805 7  -4491556.820 7
  24336222.469    14593181.589 3  11315681.959 2
  21628312.688   -10092351.433 7  -7803784.014 7
  21539301.969    -7220536.047 7  -5591225.892 7
 94  2 16 18 20  0.0000000  0  6 25 18 14 15 22 29
  23862550.891    13198076.995 6  10233254.022 5
  23432483.039    -6366004.923 5  -4901404.438 4
  20404803.133    -5822394.390 7  -4492623.275 7
  24355043.859    14692103.790 4  11392764.081 2
  21622670.117   -10121995.823 7  -7826883.545 7
  21531900.797    -7259417.666 7  -5621523.254 7
 94  2 16 18 20 30.0000000  0  6 25 18 14 15 22 29
  23879873.227    13289067.838 6  10304155.872 4
  23418069.172    -6441787.396 5  -4960455.643 3
  20404644.305    -5823238.577 7  -4493281.111 7
  24373872.016    14790999.517 5  11469825.581 2
  21617128.484   -10151108.452 7  -7849568.716 7
  21524523.945    -7298195.446 7  -5651739.691 7
 94  2 16 18 21  0.0000000  0  7 25 18 14 15 22 29 19
  23897193.328    13380108.659 5  10375096.704 3
  23403652.375    -6517527.657 5  -5019473.978 4
  20404586.383    -5823551.910 8  -4493525.300 7
  24392678.906    14889854.866 5  11546855.610 1
  21611687.211   -10179703.050 7  -7871850.227 7
  21517157.984    -7336883.211 7  -5681885.992 7
  24919864.258          -0.12413
 94  2 16 18 21 30.0000000  0  7 25 18 14 15 22 29 19
  23914528.398    13471193.490 5  10446071.814 5
  23389244.750    -6593216.564 5  -5078452.279 4
  20404626.281    -5823315.710 7  -4493341.260 7
  24411485.406    14988674.424 5  11623857.785 2
  21606351.555   -10207750.803 7  -7893705.644 7
  21509824.375    -7375450.485 7  -5711938.404 7
  24901668.273      -95565.217 3        -0.33312
 94  2 16 18 22  0.0000000  0  7 25 18 14 15 22 29 19
  23931854.438    13562316.443 5  10517076.613 5
  23374855.484    -6668859.549 5  -5137394.820 4
  20404781.336    -5822539.038 8  -4492736.083 7
  24430285.352    15087448.904 4  11700824.770 3
  21601120.492   -10235246.225 7  -7915130.638 7
  21502503.234    -7413906.361 7  -5741903.996 6
  24883513.992     -190986.790 3    -74354.903 2
 94  2 16 18 22 30.0000000  0  7 25 18 14 15 22 29 19
  23949209.172    13653464.618 5  10588101.079 4
  23360466.430    -6744464.380 5  -5196307.635 4
  20405025.727    -5821223.392 7  -4491710.925 7
  24449068.297    15186171.346 4  11777751.250 2
  21595993.578   -10262178.552 7  -7936116.871 7
  21495205.039    -7452270.353 7  -5771798.027 7
  24865377.313     -286268.863 3   -148600.691 2
 94  2 16 18 23  0.0000000  0  7 25 18 14 15 22 29 19
  23966553.211    13744628.631 5  10659137.889 4
  23346083.516    -6820024.357 5  -5255185.495 4
  20405383.578    -5819347.086 7  -4490248.888 7
  24467848.594    15284849.294 3  11854643.004 3
  21590979.969   -10288530.246 7  -7956650.660 7
  21487927.461    -7490520.113 7  -5801603.026 7
  24847269.242     -381397.767 3   -222727.125 2
 94  2 16 18 23 30.0000000  0  7 25 18 14 15 22 29 19
  23983912.922    13835805.211 5  10730184.472 5
  23331715.563    -6895548.784 5  -5314035.651 3
  20405844.031    -5816943.081 7  -4488375.645 7
  24486612.367    15383477.699 3  11931496.218 1
  21586070.586   -10314315.929 7  -7976743.395 7
  21480671.414    -7528642.404 7  -5831308.710 8
  24829213.586     -476376.560 3   -296736.581 2
 94  2 16 18 24  0.0000000  0  7 25 18 14 15 22 29 19
  24001259.172    13926995.256 5  10801241.574 5
  23317347.727    -6971045.705 5  -5372864.362 4
  20406398.734    -5814025.542 7  -4486102.258 7
  24505383.102    15482056.309 3  12008310.604 2
  21581273.820   -10339556.041 7  -7996411.027 7
  21473441.023    -7566643.052 7  -5860919.595 7
  24811167.125     -571212.425 3   -370634.611 1
 94  2 16 18 24 30.0000000  0  7 25 18 14 15 22 29 19
  24018623.586    14018198.026 5  10872308.559 5
  23302985.102    -7046512.843 5  -5431669.874 3
  20407050.945    -5810596.292 7  -4483430.133 7
  24524126.219    15580579.370 5  12085081.693 2
  21576566.750   -10364247.918 7  -8015651.450 7
  21466234.414    -7604507.961 7  -5890424.707 7
  24793139.805     -665916.677 3   -444430.119 1
 94  2 16 18 25  0.0000000  0  7 25 18 14 15 22 29 19
  24035978.758    14109412.872 5  10943384.954 5
  23288628.242    -7121963.745 5  -5490462.759 5
  20407796.719    -5806667.976 7  -4480369.129 7
  24542866.828    15679040.145 4  12161804.282 2
  21571974.633   -10388397.922 7  -8034469.651 7
  21459055.766    -7642233.161 7  -5919820.962 7
  24775123.336     -760499.563 3   -518131.032 1
 94  2 16 18 25 30.0000000  0  7 25 18 14 15 22 29 19
  24053337.086    14200658.054 5  11014484.992 5
  23274271.172    -7197398.525 5  -5549243.089 2
  20408640.023    -5802231.707 7  -4476912.304 7
  24561584.313    15777439.463 4  12238478.931 2
  21567484.953   -10411992.739 7  -8052855.219 7
  21451900.359    -7679829.880 7  -5949117.107 7
  24757171.727     -854960.649 3   -591737.174 1
 94  2 16 18 26  0.0000000  0  7 25 18 14 15 22 29 19
  24070705.266    14291926.106 6  11085602.849 5
  23259921.813    -7272827.039 4  -5608018.509 1
  20409588.414    -5797264.756 7  -4473041.976 7
  24580297.773    15875765.822 4  12315096.785 1
  21563104.047   -10435023.575 7  -8070801.318 7
  21444763.445    -7717318.732 7  -5978329.190 7
  24739221.922     -949309.620 4   -665255.907 1
 94  2 16 18 26 30.0000000  0  7 25 18 14 15 22 29 19
  24088077.453    14383232.849 6  11156750.836 5
  23245580.133    -7348218.934 5  -5666765.455 2
  20410638.859    -5791731.990 7  -4468730.740 7
  24599002.391    15974034.655 4  12391669.797 1
  21558833.078   -10457455.888 7  -8088281.044 7
  21437658.867    -7754678.881 7  -6007440.991 7
  24721277.117    -1043544.048 4   -738685.395 1
 94  2 16 18 27  0.0000000  0  7 25 18 14 15 22 29 19
  24105459.742    14474570.320 5  11227922.779 5
  23231238.750    -7423577.371 5  -5725486.292 4
  20411798.930    -5785635.346 7  -4463980.128 7
  24617677.664    16072232.894 3  12468187.811 1
  21554677.523   -10479309.953 7  -8105310.170 7
  21430567.070    -7791923.736 7  -6036462.952 7
  24703364.719    -1137668.894 3   -812029.461 1
 94  2 16 18 27 30.0000000  0  7 25 18 14 15 22 29 19
  24122850.836    14565931.846 5  11299113.460 5
  23216905.961    -7498882.517 5  -5784165.607 3
  20413068.859    -5778966.718 7  -4458783.808 7
  24636367.273    16170356.389 3  12544647.581 1
  21550624.539   -10500590.962 7  -8121892.787 7
  21423508.422    -7829047.044 7  -6065390.218 7
  24685476.445    -1231662.617 3   -885271.411 2
 94  2 16 18 28  0.0000000  0  7 25 18 14 15 22 29 19
  24140233.680    14657313.980 5  11370320.193 5
  23202591.813    -7574128.034 5  -5842798.471 4
  20414445.422    -5771725.115 7  -4453141.006 7
  24655020.000    16268406.249 3  12621049.936 2
  21546679.461   -10521314.298 7  -8138040.841 7
  21416467.508    -7866034.729 7  -6094211.778 7
  24667603.469    -1325521.887 3   -958408.606 1
 94  2 16 18 28 30.0000000  0  6 25 18 14 22 29 19
  24157626.031    14748704.719 5  11441533.641 5
  23188276.867    -7649321.738 5  -5901390.995 3
  20415924.313    -5763938.850 7  -4447073.809 7
  21542841.586   -10541504.643 7  -8153773.590 8
  21409454.117    -7902897.178 7  -6122935.769 7
  24649782.242    -1419248.749 3  -1031442.603 2
 94  2 16 18 29  0.0000000  0  7 25 18 14 15 22 29 19
  24175030.180    14840125.129 5  11512770.217 4
  23173982.016    -7724460.984 5  -5959941.063 3
  20417514.992    -5755602.862 7  -4440578.250 7
  24692285.906       48931.760 3
  21539097.656   -10561154.050 7  -8169084.801 7
  21402465.195    -7939622.640 7  -6151553.015 8
  24631988.172    -1512792.965 4  -1104334.290 1
 94  2 16 18 29 30.0000000  0  7 25 18 14 15 22 29 19
  24192431.156    14931560.626 5  11584018.524 5
  23159682.367    -7799578.535 5  -6018474.186 4
  20419201.344    -5746736.218 7  -4433669.190 7
  24710898.391      146728.562 3        -0.09711
  21535464.063   -10580266.635 7  -8183977.730 7
  21395495.039    -7976231.961 7  -6180079.761 8
  24614220.016    -1606166.127 5  -1177092.667 1
 94  2 16 18 30  0.0000000  0  7 25 18 14 15 22 29 19
  24209831.211    15023029.921 5  11655293.171 4
  23145387.789    -7874666.300 5  -6076984.134 3
  20420991.781    -5737335.240 7  -4426343.774 7
  24729477.758      244445.498 3     76142.836 1
  21531931.953   -10598816.972 7  -8198432.531 7
  21388556.383    -8012716.104 7  -6208508.960 8
  24596484.281    -1699358.685 5  -1249710.333 1
 94  2 16 18 30 30.0000000  0  7 25 18 14 15 22 29 19
  24227241.516    15114526.044 5  11726588.722 3
  23131116.609    -7949719.963 5  -6135467.526 5
  20422878.141    -5727411.890 7  -4418611.311 7
  24748060.500      342075.697 3    152218.186 1
  21528517.672   -10616778.772 7  -8212428.738 7
  21381634.938    -8049089.424 7  -6236851.811 8
  24578782.063    -1792358.491 5  -1322177.771 1
 94  2 16 18 31  0.0000000  0  7 25 18 14 15 22 29 19
  24244655.633    15206030.847 5  11797891.037 2
  23116836.805    -8024746.481 5  -6193929.723 5
  20424867.586    -5716969.158 7  -4410474.138 7
  24766625.836      439606.359 3    228216.015 1
  21525216.203   -10634146.898 7  -8225962.348 8
  21374730.180    -8085363.942 7  -6265117.667 8
  24561110.859    -1885177.447 3  -1394504.308 1
 94  2 16 18 31 30.0000000  0  7 25 18 14 15 22 29 19
  24262075.586    15297549.762 5  11869204.335 4
  23102566.258    -8099713.110 5  -6252345.261 5
  20426955.602    -5705991.256 7  -4401919.947 7
  24785173.695      537049.808 4    304145.857 2
  21522024.156   -10650902.753 7  -8239018.859 7
  21367849.328    -8121522.239 7  -6293292.962 8
  24543481.563    -1977830.274 3  -1466701.303 1
 94  2 16 18 32  0.0000000  0  7 25 18 14 15 22 29 19
  24279493.047    15389067.093 5  11940516.405 3
  23088322.422    -8174618.279 5  -6310712.896 5
  20429145.305    -5694481.088 7  -4392951.002 7
  24803697.711      634395.896 3    379999.820 2
  21518949.227   -10667055.664 7  -8251605.537 8
  21360990.398    -8157570.388 7  -6321382.422 8
  24525866.727    -2070328.723 3  -1538777.981 2
 94  2 16 18 32 30.0000000  0  7 25 18 14 15 22 29 19
  24296913.055    15480589.060 5  12011832.135 3
  23074076.273    -8249471.669 5  -6369040.169 4
  20431438.680    -5682424.144 7  -4383555.996 7
  24822204.281      731644.124 3    455777.530 2
  21515987.719   -10682617.141 7  -8263731.363 7
  21354154.563    -8193501.901 7  -6349381.016 8
  24508314.148    -2162676.853 3  -1610737.497 2
 94  2 16 18 33  0.0000000  0  7 25 18 14 15 22 29 19
  24314315.469    15572115.833 5  12083151.563 4
  23059837.172    -8324284.576 5  -6427335.893 5
  20433841.086    -5669814.679 7  -4373730.454 7
  24840671.383      828788.517 3    531474.348 2
  21513137.109   -10697615.043 7  -8275418.038 7
  21347341.523    -8229292.627 7  -6377269.892 8
  24490760.406    -2254891.483 4  -1682592.996 2
 94  2 16 18 33 30.0000000  0  7 25 18 14 15 22 29 19
  24331741.961    15663653.568 5  12154479.529 4
  23045605.438    -8399061.111 5  -6485603.247 4
  20436343.891    -5656655.507 7  -4363476.573 7
  24859153.055      925827.082 3    607088.697 2
  21510384.617   -10712054.785 7  -8286669.761 7
  21340561.922    -8264932.257 7  -6405041.025 8
  24473253.086    -2346968.390 5  -1754341.197 2
 94  2 16 18 34  0.0000000  0  7 25 18 14 15 22 29 19
  24349160.031    15755223.111 5  12225832.295 4
  23031386.500    -8473800.966 5  -6543842.055 5
  20438956.938    -5642928.968 7  -4352780.586 7
  24877601.156     1022767.064 4    682626.223 1
  21507749.953   -10725923.451 7  -8297476.509 7
  21333806.555    -8300410.430 7  -6432686.356 8
  24455763.523    -2438866.126 5  -1825949.771 1
 94  2 16 18 34 30.0000000  0  7 25 18 14 15 22 29 19
  24366604.109    15846816.002 5  12297203.243 4
  23017167.930    -8548506.993 5  -6602054.460 5
  20441673.477    -5628648.376 7  -4341652.871 7
  24896031.719     1119595.746 4    758077.033 1
  21505213.109   -10739221.718 7  -8307838.774 7
  21327089.008    -8335730.841 7  -6460208.758 8
  24438296.148    -2530592.286 5  -1897424.655 1
 94  2 16 18 35  0.0000000  0  7 25 18 14 15 22 29 19
  24384027.742    15938419.036 5  12368582.098 4
  23002960.750    -8623167.499 5  -6660231.425 5
  20444496.391    -5613811.559 7  -4330091.734 7
  24914432.938     1216316.571 3    833443.811 1
  21502796.383   -10751930.640 7  -8317741.801 7
  21320391.695    -8370894.074 7  -6487608.678 8
  24420887.266    -2622136.075 4  -1968757.443 1
 94  2 16 18 35 30.0000000  0  7 25 18 14 15 22 29 19
  24401453.000    16030015.654 5  12439955.957 4
  22988765.672    -8697779.745 5  -6718370.769 4
  20447426.133    -5598417.401 7  -4318096.299 7
  24932818.891     1312921.007 3    908719.857 1
  21500487.102   -10764040.974 7  -8327178.408 8
  21313729.367    -8405933.564 7  -6514912.187 8
  24403502.461    -2713501.191 4  -2039950.971 2
 94  2 16 18 36  0.0000000  0  7 25 18 14 15 22 29 19
  24418882.781    16121599.178 5  12511319.602 5
  22974579.773    -8772331.023 5  -6776462.630 5
  20450462.266    -5582461.199 7  -4305662.911 7
  24951174.891     1409411.065 3    983906.803 1
  21498301.031   -10775547.575 7  -8336144.584 7
  21307085.523    -8440842.080 7  -6542113.630 8
  24386149.641    -2804693.672 4  -2111010.007 2
 94  2 16 18 36 30.0000000  0  7 25 18 14 15 22 29 19
  24436306.461    16213140.226 5  12582650.143 5
  22960407.031    -8846819.392 6  -6834505.446 4
  20453602.266    -5565953.973 7  -4292800.155 7
  24969510.578     1505780.389 3   1058999.696 1
  21496223.477   -10786465.400 7  -8344651.972 7
  21300467.969    -8475620.853 7  -6569213.969 8
  24368818.047    -2895749.649 4  -2181962.671 3
 94  2 16 18 37  0.0000000  0  7 25 18 14 15 22 29 19
  24453712.352    16304634.771 5  12653944.447 5
  22946239.820    -8921255.268 6  -6892507.388 4
  20456850.031    -5548896.262 7  -4279508.451 7
  24987844.672     1602022.962 3   1133993.772 1
  21494256.688   -10796814.130 7  -8352715.917 7
  21293870.898    -8510280.797 7  -6596221.718 8
  24351504.609    -2986675.116 4  -2252813.618 3
 94  2 16 18 37 30.0000000  0  7 25 18 14 15 22 29 19
  24471119.773    16396104.106 5  12725219.103 5
  22932086.125    -8995622.777 6  -6950456.051 5
  20460203.617    -5531278.704 7  -4265780.499 7
  25006120.844     1698145.898 3   1208894.632 1
  21492398.859   -10806584.816 7  -8360329.418 7
  21287300.289    -8544803.782 7  -6623122.732 7
  24334224.094    -3077465.255 4  -2323559.164 4
 94  2 16 18 38  0.0000000  0  7 25 18 14 15 22 29 19
  24488522.875    16487554.609 5  12796479.097 5
  22917945.508    -9069938.846 6  -7008364.625 5
  20463659.117    -5513120.272 7  -4251631.090 7
  25024393.078     1794141.356 3   1283696.171 1
  21490646.070   -10815784.788 7  -8367498.217 7
  21280760.313    -8579183.852 7  -6649912.392 7
  24316976.922    -3168128.606 4  -2394205.930 4
 94  2 16 18 38 30.0000000  0  7 25 18 14 15 22 29 19
  24505931.938    16578988.978 5  12867726.510 5
  22903806.055    -9144221.990 6  -7066247.551 5
  20467216.422    -5494420.370 7  -4237059.759 7
  25042630.375     1889998.657 3   1358390.034 1
  21489005.742   -10824410.971 7  -8374219.920 7
  21274241.359    -8613432.057 7  -6676599.297 8
  24299752.500    -3258664.485 5  -2464753.338 3
 94  2 16 18 39  0.0000000  0  7 25 18 14 15 22 29 19
  24523330.008    16670439.334 5  12938986.397 5
  22889678.813    -9218469.361 6  -7124102.599 5
  20470881.898    -5475164.410 7  -4222055.145 7
  25060831.891     1985719.588 3   1432977.682 1
  21487475.563   -10832439.263 7  -8380475.726 7
  21267752.930    -8647534.279 7  -6703172.446 7
  24282536.969    -3349037.175 3  -2535173.609 2
 94  2 16 18 39 30.0000000  0  7 25 18 14 15 22 29 19
  24540734.227    16761905.887 5  13010258.874 5
  22875557.156    -9292663.481 6  -7181916.183 5
  20474651.289    -5455351.966 7  -4206616.906 7
  25079033.523     2081307.137 3
  21486065.539   -10839853.180 7  -8386252.829 8
  21261300.625    -8681472.896 7  -6729618.119 7
  24265382.727    -3439237.065 3  -2605459.218 2
 94  2 16 18 40  0.0000000  0  6 25 18 14 22 29 19
  24558143.523    16853379.050 5  13081536.510 5
  22861453.562    -9366806.653 6  -7239690.043 5
  20478525.625    -5434987.734 7  -4190748.698 7
  21484769.211   -10846662.199 7  -8391558.566 8
  21254864.016    -8715256.680 7  -6755943.145 7
  24248265.836    -3529259.263 4  -2675606.360 4
 94  2 16 18 40 30.0000000  0  6 25 18 14 22 29 19
  24575546.602    16944848.597 5  13152811.327 5
  22847354.539    -9440893.848 6  -7297420.319 5
  20482506.477    -5414063.814 7  -4174444.378 7
  21483589.492   -10852871.815 7  -8396397.233 7
  21248464.352    -8748887.380 7  -6782148.886 7
  24231178.063    -3619089.235 5  -2745603.689 3
 94  2 16 18 41  0.0000000  0  6 25 18 14 22 29 19
  24592948.500    17036302.049 5  13224073.615 5
  22833264.406    -9514915.682 6  -7355099.637 5
  20486592.508    -5392592.075 7  -4157713.185 7
  21482515.648   -10858488.335 7  -8400773.749 8
  21242092.906    -8782372.025 7  -6808240.804 7
  24214108.422    -3708732.921 5  -2815455.866 4
 94  2 16 18 41 30.0000000  0  6 25 18 14 22 29 19
  24610351.188    17127731.677 5  13295317.346 5
  22819194.633    -9588863.422 6  -7412721.247 4
  20490782.312    -5370572.451 7  -4140555.057 7
  21481565.234   -10863503.764 7  -8404681.892 7
  21235748.852    -8815707.663 7  -6834216.632 7
  24197090.461    -3798195.338 5  -2885166.811 4
 94  2 16 18 42  0.0000000  0  6 25 18 14 22 29 19
  24627739.859    17219141.444 5  13366545.586 5
  22805132.258    -9662759.121 6  -7470302.294 5
  20495077.477    -5348010.042 7  -4122973.994 7
  21480723.555   -10867927.387 7  -8408128.868 7
  21229435.578    -8848897.599 7  -6860078.925 7
  24180095.523    -3887482.490 4  -2954741.180 3
 94  2 16 18 42 30.0000000  0  6 25 18 14 22 29 19
  24645133.375    17310535.998 5  13437761.996 4
  22791077.297    -9736597.593 6  -7527838.737 5
  20499473.969    -5324899.299 7  -4104965.660 7
  21479994.672   -10871747.695 7  -8411105.759 8
  21223152.148    -8881925.788 7  -6885815.175 7
  24163130.219    -3976597.800 3  -3024181.596 3
 94  2 16 18 43  0.0000000  0  6 25 18 14 22 29 19
  24662526.898    17401920.903 5  13508970.883 3
  22777044.688    -9810369.084 6  -7585322.979 5
  20503976.352    -5301247.943 7  -4086536.056 7
  21479383.844   -10874960.029 7  -8413608.889 8
  21216896.195    -8914786.288 7  -6911420.771 7
  24146207.672    -4065547.374 4  -3093492.912 3
 94  2 16 18 43 30.0000000  0  6 25 18 14 22 29 19
  24679910.148    17493309.754 5  13580182.824 2
  22763020.852    -9884069.832 6  -7642752.133 5
  20508580.664    -5277055.386 7  -4067684.758 7
  21478888.328   -10877575.600 7  -8415647.014 8
  21210676.813    -8947474.056 7  -6936891.769 7
  24129321.008    -4154316.601 5  -3162663.646 4
 94  2 16 18 44  0.0000000  0  6 25 18 14 22 29 19
  24697296.805    17584702.666 4  13651397.973 3
  22749011.211    -9957692.916 6  -7700120.745 5
  20513284.680    -5252316.735 7  -4048407.914 7
  21478502.531   -10879603.049 7  -8417226.856 8
  21204489.805    -8979992.454 7  -6962230.780 7
  24112460.344    -4242906.456 5  -3231694.679 2
 94  2 16 18 44 30.0000000  0  6 25 18 14 22 29 19
  24714696.820    17676090.652 4  13722609.252 2
  22735018.422   -10031219.630 6  -7757414.263 5
  20518103.914    -5227018.970 7  -4028695.407 7
  21478225.227   -10881039.865 7  -8418346.469 8
  21198333.164    -9012345.788 7  -6987441.181 7
  24095641.820    -4331306.630 5  -3300577.910 2
 94  2 16 18 45  0.0000000  0  6 25 18 14 22 29 19
  24732073.508    17767436.776 3  13793787.914 1
  22721042.531   -10104680.846 6  -7814656.751 5
  20523019.141    -5201185.650 7  -4008565.578 7
  21478058.688   -10881926.581 7  -8419037.426 8
  21192198.836    -9044570.061 7  -7012551.020 8
  24078830.492    -4419540.531 5  -3369331.546 3
 94  2 16 18 45 30.0000000  0  6 25 18 14 22 29 19
  24749459.594    17858737.102 4  13864930.909 2
  22707073.914   -10178077.703 6  -7871849.086 5
  20528040.469    -5174795.787 7  -3988002.089 7
  21477994.359   -10882258.824 7  -8419296.340 7
  21186100.711    -9076649.027 7  -7037547.620 8
  24062078.898    -4507598.761 5  -3437948.255 3
 94  2 16 18 46  0.0000000  0  6 25 18 14 22 29 19
  24766816.367    17949967.758 4  13936019.635 2
  22693113.070   -10251429.132 6  -7929006.027 5
  20533163.781    -5147856.019 7  -3967010.094 7
  21478034.695   -10882042.943 7  -8419128.131 7
  21180018.664    -9108590.903 7  -7062437.407 8
  24045367.891    -4595501.077 5  -3506443.452 4
 94  2 16 18 46 30.0000000  0  7 25 18 14  4 22 29 19
  24784169.602    18041140.221 3  14007062.963 1
  22679163.984   -10324733.288 6  -7986126.128 5
  20538398.445    -5120362.001 7  -3945586.220 7
  24974593.188      -21592.739 3
  21478183.047   -10881263.614 7  -8418520.869 8
  21173968.461    -9140381.906 7  -7087209.634 8
  24028677.211    -4683226.040 5  -3574800.438 4
 94  2 16 18 47  0.0000000  0  7 25 18 14  4 22 29 19
  24801505.469    18132269.440 3  14078072.617 1
  22665223.078   -10397983.412 6  -8043204.123 5
  20543733.813    -5092318.217 7  -3923733.953 7
  24970580.867      -42708.380 2
  21478443.898   -10879899.428 7  -8417457.883 8
  21167951.164    -9172012.545 7  -7111856.895 8
  24012005.148    -4770766.002 5  -3643013.327 3
 94  2 16 18 47 30.0000000  0  6 18 14  4 22 29 19
  22651290.133   -10471161.808 6  -8100226.247 5
  20549178.320    -5063722.434 7  -3901451.559 7
  24966666.938      -63337.612 3     -7989.95911
  21478822.648   -10877921.450 7  -8415916.611 8
  21161964.672    -9203474.561 7  -7136372.760 8
  23995392.719    -4858097.216 5  -3711063.527 2
 94  2 16 18 48  0.0000000  0  6 18 14  4 22 29 19
  22637387.898   -10544265.975 6  -8157190.502 5
  20554720.992    -5034592.009 7  -3878752.584 7
  24962821.789      -83489.692 3    -23692.916 1
  21479315.773   -10875321.299 7  -8413890.524 8
  21156006.211    -9234780.978 7  -7160767.385 8
  23978805.578    -4945216.100 5  -3778948.267 3
 94  2 16 18 48 30.0000000  0  6 18 14  4 22 29 19
  22623495.625   -10617281.047 6  -8214085.344 5
  20560363.641    -5004928.530 7  -3855638.201 7
  24959080.883     -103163.516 3    -39023.166 1
  21479933.609   -10872082.697 7  -8411366.934 8
  21150078.531    -9265926.461 7  -7185036.609 8
  23962280.680    -5032112.255 4  -3846659.494 3
 94  2 16 18 49  0.0000000  0  6 18 14  4 22 29 19
  22609619.273   -10690205.803 6  -8270909.806 5
  20566110.211    -4974723.951 7  -3832102.203 7
  24955413.953     -122353.942 2    -53976.808 1
  21480668.406   -10868216.930 7  -8408354.665 8
  21144184.211    -9296912.961 7  -7209181.944 8
  23945778.578    -5118797.769 5  -3914206.545 4
 94  2 16 18 49 30.0000000  0  6 18 14  4 22 29 19
  22595758.039   -10763052.613 6  -8327673.531 5
  20571960.594    -4943983.455 7  -3808148.608 7
  24951857.492     -141069.211 3    -68560.213 1
  21481518.930   -10863747.287 7  -8404871.827 7
  21138314.859    -9327736.880 7  -7233200.591 8
  23929324.031    -5205290.551 5  -3981603.417 4
 94  2 16 18 50  0.0000000  0  6 18 14  4 22 29 19
  22581906.703   -10835829.440 6  -8384382.732 5
  20577914.078    -4912703.275 7  -3783774.482 7
  24948388.742     -159312.341 3    -82775.677 1
  21482488.727   -10858680.878 7  -8400923.983 8
  21132484.313    -9358385.605 7  -7257082.740 8
  23912895.328    -5291611.627 5  -4048866.506 3
 94  2 16 18 50 30.0000000  0  6 18 14  4 22 29 19
  22568072.922   -10908536.266 6  -8441037.373 5
  20583973.297    -4880866.183 7  -3758966.391 7
  24945009.195     -177086.476 3
  21483559.359   -10853029.286 7  -8396520.142 8
  21126684.273    -9388854.745 7  -7280824.938 8
  23896498.141    -5377769.970 5  -4116002.820 4
 94  2 16 18 51  0.0000000  0  6 18 14  4 22 29 19
  22554246.539   -10981175.176 6  -8497639.093 5
  20590137.305    -4848467.715 7  -3733720.880 7
  24941706.109     -194385.578 3
  21484741.234   -10846798.825 7  -8391665.238 8
  21120920.727    -9419143.687 7  -7304426.720 8
  23880136.734    -5463762.424 5  -4183009.890 2
 94  2 16 18 51 30.0000000  0  6 18 14  4 22 29 19
  22540435.211   -11053750.211 6  -8554191.063 5
  20596408.172    -4815525.421 7  -3708051.585 7
  24938515.758     -211206.299 3        -0.11511
  21486042.680   -10839986.094 7  -8386356.621 8
  21115190.492    -9449255.590 7  -7327890.551 8
  23863799.539    -5549583.484 5  -4249883.380 3
 94  2 16 18 52  0.0000000  0  6 18 14  4 22 29 19
  22526641.297   -11126263.767 6  -8610695.091 5
  20602781.367    -4782035.680 7  -3681955.723 7
  24935415.977     -227549.811 3    -12735.304 1
  21487447.984   -10832586.338 7  -8380590.598 7
  21109487.945    -9479210.018 7  -7351231.670 8
  23847512.500    -5635224.191 5  -4316616.356 4
 94  2 16 18 52 30.0000000  0  6 18 14  4 22 29 19
  22512846.000   -11198702.510 6  -8667140.830 5
  20609257.500    -4747995.984 7  -3655431.313 7
  24932395.313     -243416.389 2
  21488966.883   -10824602.878 7  -8374369.714 7
  21103818.930    -9509011.880 7  -7374453.911 8
  23831250.398    -5720662.162 5  -4383191.365 4
 94  2 16 18 53  0.0000000  0  6 18 14  4 22 29 19
  22499086.820   -11271071.475 6  -8723532.217 5
  20615833.648    -4713428.710 7  -3628495.814 7
  24929471.555     -258812.140 2     -5953.70411
  21490599.266   -10816031.517 7  -8367690.734 7
  21098178.125    -9538660.099 7  -7397556.429 8
  23815034.125    -5805896.219 5  -4449607.455 4
 94  2 16 18 53 30.0000000  0  6 18 14  4 22 29 19
  22485320.156   -11343375.597 6  -8779873.071 5
  20622515.898    -4678338.684 7  -3601152.969 7
  24926635.945     -273759.121 2    -17600.670 1
  21492340.383   -10806875.562 7  -8360556.229 7
  21092565.445    -9568160.552 7  -7420543.793 8
  23798854.844    -5890949.764 5  -4515882.935 4
 94  2 16 18 54  0.0000000  0  5 18 14 22 29 19
  22471573.453   -11415609.115 6  -8836158.921 5
  20629293.594    -4642709.124 7  -3573389.713 7
  21494192.852   -10797134.305 7  -8352965.638 7
  21086978.609    -9597508.193 7  -7443412.086 8
  23782698.891    -5975825.490 5  -4582019.793 3
 94  2 16 18 54 30.0000000  0  5 18 14 22 29 19
  22457842.781   -11487768.092 6  -8892386.671 5
  20636175.281    -4606544.834 7  -3545209.779 7
  21496162.102   -10786807.673 7  -8344918.936 7
  21081426.438    -9626690.108 7  -7466151.240 8
  23766573.211    -6060526.157 5  -4648020.265 4
 94  2 16 18 55  0.0000000  0  5 18 14 22 29 19
  22444125.555   -11559852.902 6  -8948556.644 5
  20643157.969    -4569837.678 7  -3516606.832 7
  21498243.008   -10775878.375 7  -8336402.597 8
  21075907.398    -9655699.433 7  -7488755.900 8
  23750488.148    -6145054.952 5  -4713886.841 3
 94  2 16 18 55 30.0000000  0  5 18 14 22 29 19
  22430424.930   -11631854.264 6  -9004661.593 5
  20650250.141    -4532576.484 7  -3487572.156 7
  21500430.789   -10764364.076 7  -8327430.430 7
  21070419.063    -9684534.299 7  -7511224.624 8
  23734444.695    -6229405.986 5  -4779614.906 4
 94  2 16 18 56  0.0000000  0  5 18 14 22 29 19
  22416738.453   -11703774.636 6  -9060703.418 5
  20657444.836    -4494773.785 7  -3458115.545 7
  21502733.055   -10752273.098 7  -8318008.895 7
  21064968.188    -9713187.862 7  -7533552.066 8
  23718427.383    -6313558.061 5  -4845187.927 4
 94  2 16 18 56 30.0000000  0  5 18 14 22 29 19
  22403069.039   -11775619.737 6  -9116686.597 5
  20664737.086    -4456452.076 7  -3428254.500 7
  21505141.680   -10739613.491 7  -8308144.256 7
  21059548.227    -9741664.149 7  -7555741.377 8
  23702448.320    -6397512.408 5  -4910606.858 5
 94  2 16 18 57  0.0000000  0  5 18 14 22 29 19
  22389409.734   -11847390.840 6  -9172612.126 5
  20672127.750    -4417614.449 7  -3397991.447 7
  21507655.852   -10726402.080 7  -8297849.663 7
  21054162.586    -9769962.480 7  -7577792.011 8
  23686517.094    -6481269.896 5  -4975872.403 4
 94  2 16 18 57 30.0000000  0  5 18 14 22 29 19
  22375769.336   -11919072.934 6  -9228468.297 5
  20679618.133    -4378257.680 7  -3367323.872 7
  21510274.195   -10712640.772 7  -8287126.572 7
  21048814.969    -9798064.716 7  -7599689.857 8
  23670608.281    -6564818.386 5  -5040975.107 3
 94  2 16 18 58  0.0000000  0  5 18 14 22 29 19
  22362145.797   -11990682.553 6  -9284268.002 5
  20687198.680    -4338398.630 7  -3336264.913 7
  21513002.438   -10698315.629 7  -8275964.131 7
  21043500.219    -9825984.440 7  -7621445.487 8
  23654747.625    -6648168.389 5  -5105923.144 4
 94  2 16 18 58 30.0000000  0  5 18 14 22 29 19
  22348531.234   -12062214.077 6  -9340006.840 5
  20694879.195    -4298021.746 7  -3304802.435 7
  21515837.125   -10683412.221 7  -8264351.096 7
  21038223.234    -9853726.390 7  -7643062.596 8
  23638923.758    -6731326.796 5  -5170721.871 4
 94  2 16 18 59  0.0000000  0  5 18 14 22 29 19
  22334933.898   -12133668.611 6  -9395685.684 5
  20702664.258    -4257120.629 7  -3272931.475 7
  21518779.555   -10667931.649 7  -8252288.313 7
  21032976.672    -9881297.166 7  -7664546.322 8
  23623137.500    -6814306.426 5  -5235381.245 5
 94  2 16 18 59 30.0000000  0  5 18 14 22 29 19
  22321354.758   -12205045.604 6  -9451304.105 6
  20710552.289    -4215686.010 7  -3240644.792 7
  21521843.844   -10651844.783 7  -8239753.107 8
  21027760.648    -9908702.477 7  -7685901.103 8
  23607380.430    -6897097.902 5  -5299894.003 4
 94  2 16 19  0  0.0000000  0  5 18 14 22 29 19
  22307783.508   -12276359.546 6  -9506873.384 6
  20718538.523    -4173723.201 7  -3207946.525 7
  21525021.906   -10635151.134 7  -8226745.100 8
  21022572.945    -9935958.269 7  -7707139.383 8
  23591665.977    -6979714.606 5  -5364270.581 4
 94  2 16 19  0 30.0000000  0  5 18 14 22 29 19
  22294228.633   -12347588.053 6  -9562376.128 6
  20726623.836    -4131213.265 7  -3174821.948 7
  21528312.109   -10617849.982 7  -8213263.694 8
  21017422.523    -9963044.794 7  -7728245.778 8
  23575977.477    -7062139.778 5  -5428497.902 4
 94  2 16 19  1  0.0000000  0  5 18 14 22 29 19
  22280681.438   -12418737.991 6  -9617817.608 5
  20734813.563    -4088177.081 7  -3141287.291 7
  21531711.906   -10599964.817 7  -8199327.236 8
  21012300.852    -9989960.426 7  -7749218.988 8
  23560323.000    -7144369.902 5  -5492573.220 4
 94  2 16 19  1 30.0000000  0  5 18 14 22 29 19
  22267159.539   -12489813.011 6  -9673200.734 6
  20743100.828    -4044633.576 7  -3107357.319 7
  21535225.367   -10581512.578 7  -8184948.883 7
  21007209.023   -10016709.569 7  -7770062.476 8
  23544713.414    -7226405.295 5  -5556496.797 5
 94  2 16 19  2  0.0000000  0  5 18 14 22 29 19
  22253652.383   -12560795.563 6  -9728511.799 6
  20751484.977    -4000584.476 7  -3073033.378 7
  21538842.898   -10562509.444 7  -8170141.260 8
  21002152.609   -10043278.129 7  -7790765.262 8
  23529147.063    -7308245.783 5  -5620268.483 5
 94  2 16 19  2 30.0000000  0  5 18 14 22 29 19
  22240164.781   -12631667.579 6  -9783736.740 6
  20759964.828    -3956027.696 7  -3038313.857 7
  21542561.219   -10542959.971 7  -8154907.945 8
  20997134.633   -10069656.326 7  -7811319.704 8
  23513615.516    -7389877.109 5  -5683877.188 5
 94  2 16 19  3  0.0000000  0  5 18 14 22 29 19
  22226708.797   -12702427.510 6  -9838874.336 6
  20768536.023    -3910973.394 7  -3003206.647 7
  21546386.992   -10522866.009 7  -8139250.344 8
  20992145.633   -10095850.854 7  -7831731.021 8
  23498114.539    -7471309.345 5  -5747330.736 4
 94  2 16 19  3 30.0000000  0  5 18 14 22 29 19
  22213261.117   -12773074.400 6  -9893923.856 6
  20777210.844    -3865412.144 7  -2967704.406 7
  21550319.938   -10502198.936 7  -8123146.138 7
  20987200.031   -10121857.300 7  -7851995.796 8
  23482650.430    -7552547.554 5  -5810633.154 4
 94  2 16 19  4  0.0000000  0  6 18 14  4 22 29 19
  22199835.070   -12843617.472 6  -9948892.474 6
  20785975.672    -3819341.088 7  -2931804.926 7
  24887515.211       -5065.589 3
  21554368.102   -10480941.964 7  -8106582.271 8
  20982287.398   -10147667.853 7  -7872107.922 8
  23467229.484    -7633591.613 5  -5873784.258 5
 94  2 16 19  4 30.0000000  0  6 18 14  4 22 29 19
  22186428.320   -12914069.875 6 -10003790.417 6
  20794839.164    -3772755.619 7  -2895504.593 7
  24886663.125       -9667.714 3     -1747.38911
  21558524.719   -10459085.442 7  -8089551.236 8
  20977414.281   -10173282.528 7  -7892067.420 8
  23451849.180    -7714436.363 5  -5936780.064 5
 94  2 16 19  5  0.0000000  0  6 18 14  4 22 29 19
  22173038.453   -12984435.792 6 -10058620.990 6
  20803802.672    -3725642.335 7  -2858792.981 7
  24885874.148          -0.78213
  21562800.289   -10436616.536 7  -8072043.011 7
  20972578.594   -10198685.830 7  -7911862.208 8
  23436504.977    -7795072.991 5  -5999613.687 5
 94  2 16 19  5 30.0000000  0  6 18 14  4 22 29 19
  22159662.211   -13054731.934 6 -10113397.174 6
  20812873.289    -3677996.531 7  -2821666.421 7
  24885166.719       -3712.086 2
  21567189.938   -10413545.743 7  -8054065.765 7
  20967784.227   -10223880.702 7  -7931494.584 8
  23421196.945    -7875490.407 5  -6062276.531 5
 94  2 16 19  6  0.0000000  0  5 18 14 22 29 19
  22146298.813   -13124955.912 6 -10168117.134 6
  20822040.445    -3629813.876 7  -2784121.529 7
  21571688.063   -10389913.474 7  -8035651.035 8
  20963027.727   -10248879.745 7  -7950974.366 8
  23405932.961    -7955690.241 5  -6124769.842 4
 94  2 16 19  6 30.0000000  0  5 18 14 22 29 19
  22132952.453   -13195085.671 6 -10222763.675 6
  20831313.766    -3581087.414 7  -2746152.891 7
  21576291.125   -10365725.241 7  -8016803.084 8
  20958312.844   -10273678.713 7  -7970298.252 8
  23390715.688    -8035661.395 5  -6187084.937 5
 94  2 16 19  7  0.0000000  0  5 18 14 22 29 19
  22119629.805   -13265110.938 6 -10277328.796 6
  20840683.445    -3531830.585 7  -2707770.992 7
  21580996.961   -10340986.960 7  -7997526.512 7
  20953626.086   -10298290.295 7  -7989476.115 8
  23375548.313    -8115414.170 5  -6249229.895 5
 94  2 16 19  7 30.0000000  0  5 18 14 22 29 19
  22106325.219   -13335019.034 6 -10331802.610 6
  20850156.297    -3482056.861 7  -2668986.304 7
  21585811.469   -10315703.887 7  -7977825.434 8
  20948976.617   -10322731.106 7  -8008520.912 8
  23360408.938    -8194966.656 5  -6311218.787 5
 94  2 16 19  8  0.0000000  0  5 18 14 22 29 19
  22093050.844   -13404789.100 6 -10386168.863 6
  20859725.156    -3431778.762 7  -2629808.599 7
  21590727.086   -10289864.154 7  -7957690.592 8
  20944361.203   -10346985.090 7  -8027420.137 8
  23345301.125    -8274333.003 5  -6373062.635 5
 94  2 16 19  8 30.0000000  0  5 18 14 22 29 19
  22079798.234   -13474429.326 6 -10440433.945 6
  20869381.758    -3381027.695 7  -2590262.360 7
  21595749.055   -10263459.676 7  -7937115.695 8
  20939778.938   -10371052.427 7  -8046173.920 8
  23330229.195    -8353540.150 5  -6434782.433 5
 94  2 16 19  9  0.0000000  0  5 18 14 22 29 19
  22066574.414   -13543929.579 6 -10494589.957 6
  20879133.695    -3329785.860 7  -2550333.684 7
  21600884.320   -10236482.953 7  -7916094.893 7
  20935239.281   -10394909.806 7  -8064764.094 8
  23315184.516    -8432582.719 5  -6496374.000 5
 94  2 16 19  9 30.0000000  0  5 18 14 22 29 19
  22053371.266   -13613309.277 6 -10548652.025 6
  20888977.820    -3278069.619 7  -2510035.357 7
  21606124.336   -10208945.002 7  -7894636.767 8
  20930739.539   -10418550.243 7  -8083185.226 8
  23300176.672    -8511465.262 5  -6557840.880 5
 94  2 16 19 10  0.0000000  0  5 18 14 22 29 19
  22040187.938   -13682577.302 6 -10602627.084 6
  20898908.289    -3225879.305 7  -2469367.605 7
  21611470.461   -10180853.712 7  -7872747.484 8
  20926288.711   -10441963.943 7  -8101429.673 8
  23285190.648    -8590176.009 5  -6619173.854 5
 94  2 16 19 10 30.0000000  0  5 18 14 22 29 19
  22027028.078   -13751743.075 7 -10656522.474 6
  20908925.375    -3173209.549 7  -2428326.284 7
  21616923.953   -10152204.321 7  -7850423.313 8
  20921873.602   -10465160.325 7  -8119504.787 8
  23270246.281    -8668695.217 5  -6680357.609 5
 94  2 16 19 11  0.0000000  0  5 18 14 22 29 19
  22013883.852   -13820819.295 6 -10710348.077 6
  20919050.000    -3120057.523 7  -2386909.148 7
  21622481.125   -10123001.215 7  -7827667.666 7
  20917495.953   -10488151.987 7  -8137420.370 8
  23255357.984    -8746990.020 5  -6741366.507 5
 94  2 16 19 11 30.0000000  0  5 18 14 22 29 19
  22000752.758   -13889803.379 6 -10764101.903 6
  20929248.984    -3066425.813 7  -2345118.230 7
  21628144.164   -10093227.393 7  -7804467.315 7
  20913161.055   -10510940.782 7  -8155177.871 8
  23240505.063    -8825042.522 5  -6802186.564 5
 94  2 16 19 12  0.0000000  0  5 18 14 22 29 19
  21987648.367   -13958676.118 6 -10817768.947 6
  20939551.094    -3012285.678 7  -2302931.148 7
  21633920.484   -10062865.014 7  -7780808.359 7
  20908864.484   -10533511.628 7  -8172765.548 8
  23225692.430    -8902836.508 5  -6862805.213 5
 94  2 16 19 12 30.0000000  0  5 18 14 22 29 19
  21974557.945   -14027455.074 6 -10871362.923 6
  20949952.234    -2957640.078 7  -2260350.195 7
  21639811.594   -10031921.139 7  -7756696.273 7
  20904611.172   -10555868.676 7  -8190186.625 8
  23210947.914    -8980371.574 5  -6923222.085 5
 94  2 16 19 13  0.0000000  0  5 18 14 22 29 19
  21961486.508   -14096136.317 6 -10924880.742 6
  20960444.547    -2902480.597 7  -2217368.810 7
  21645806.648   -10000404.079 7  -7732137.547 7
  20900397.266   -10578005.738 7  -8207436.273 8
  23196234.195    -9057659.816 5  -6983446.654 5
 94  2 16 19 13 30.0000000  0  5 18 14 22 29 19
  21948434.188   -14164722.388 6 -10978324.417 6
  20971038.133    -2846813.966 7  -2173992.253 7
  21651915.969    -9968321.061 7  -7707137.829 7
  20896227.055   -10599926.379 7  -8224517.292 8
  23181577.031    -9134732.792 6  -7043503.453 5
 94  2 16 19 14  0.0000000  0  5 18 14 22 29 19
  21935403.609   -14233210.264 6 -11031691.573 6
  20981734.633    -2790635.011 7  -2130216.475 7
  21658125.742    -9935684.967 7  -7681707.132 7
  20892096.875   -10621638.840 7  -8241436.093 8
  23166945.914    -9211598.179 5  -7103398.485 5
 94  2 16 19 14 30.0000000  0  5 18 14 22 29 19
  21922390.547   -14301590.099 6 -11084974.524 6
  20992516.703    -2733956.906 7  -2086051.744 7
  21664438.313    -9902492.491 7  -7655842.894 8
  20887999.516   -10643156.159 7  -8258202.815 8
  23152358.852    -9288256.052 6  -7163131.823 5
 94  2 16 19 15  0.0000000  0  5 18 14 22 29 19
  21909406.703   -14369830.311 6 -11138148.696 6
  21003396.047    -2676780.209 7  -2041498.506 7
  21670869.453    -9868724.486 7  -7629530.183 8
  20883943.063   -10664475.291 7  -8274815.127 8
  23137805.820    -9364710.329 6  -7222706.548 5
 94  2 16 19 15 30.0000000  0  5 18 14 22 29 19
  21896454.055   -14437915.885 6 -11191202.361 6
  21014375.453    -2619109.432 7  -1996560.281 7
  21677402.070    -9834385.716 7  -7602772.719 8
  20879924.242   -10685591.272 7  -8291269.140 8
  23123303.781    -9440953.981 5  -7282117.113 5
 94  2 16 19 16  0.0000000  0  5 18 14 22 29 19
  21883525.156   -14505838.021 6 -11244128.682 6
  21025440.422    -2560947.710 7  -1951239.480 7
  21684041.492    -9799495.689 7  -7575585.715 8
  20875944.922   -10706499.331 7  -8307561.125 8
  23108821.406    -9517000.893 5  -7341374.375 5
 94  2 16 19 16 30.0000000  0  6 18 14  4 22 29 19
  21870635.828   -14573584.419 6 -11296918.047 6
  21036600.836    -2502295.865 7  -1905536.781 7
  24891717.648        3231.463 2
  21690784.563    -9764053.247 7  -7547968.255 7
  20872010.023   -10727182.445 7  -8323677.829 8
  23094394.000    -9592847.176 5  -7400475.326 5
 94  2 16 19 17  0.0000000  0  5 18 14 22 29 19
  21857773.656   -14641161.751 6 -11349575.682 6
  21047854.406    -2443152.723 7  -1859451.255 7
  21697629.281    -9728092.087 7  -7519946.582 7
  20868116.625   -10747634.829 7  -8339614.745 7
  23079991.906    -9668496.986 5  -7459423.164 5
 94  2 16 19 17 30.0000000  0  5 18 14 22 29 19
  21844944.164   -14708596.952 7 -11402122.573 6
  21059201.820    -2383522.770 7  -1812986.395 7
  21704565.273    -9691640.498 7  -7491542.755 8
  20864269.813   -10767862.461 7  -8355376.537 8
  23065643.641    -9743952.310 6  -7518219.469 5
 94  2 16 19 18  0.0000000  0  5 18 14 22 29 19
  21832131.570   -14775900.259 6 -11454566.678 6
  21070640.578    -2323407.184 7  -1766143.119 7
  21711597.680    -9654683.780 7  -7462745.340 7
  20860464.906   -10787858.456 7  -8370957.831 8
  23051323.453    -9819200.174 6  -7576854.082 5
 94  2 16 19 18 30.0000000  0  6 18 14  4 22 29 19
  21819349.820   -14843085.329 6 -11506918.651 6
  21082172.180    -2262814.924 7  -1718928.411 7
  24897424.063        8133.953 3
  21718729.383    -9617215.458 7  -7433549.269 8
  20856703.539   -10807620.708 7  -8386356.988 7
  23037045.344    -9894216.437 6  -7635308.268 5
 94  2 16 19 19  0.0000000  0  5 18 14 22 29 19
  21806586.703   -14910158.750 6 -11559183.627 6
  21093794.672    -2201747.866 7  -1671343.731 7
  21725960.031    -9579219.174 7  -7403941.802 7
  20852990.008   -10827134.842 7  -8401562.804 7
  23022812.617    -9968999.192 5  -7693580.499 5
 94  2 16 19 19 30.0000000  0  5 18 14 22 29 19
  21793844.656   -14977109.671 7 -11611353.168 6
  21105500.391    -2140212.799 7  -1623394.375 7
  21733296.297    -9540653.044 7  -7373890.295 7
  20849327.516   -10846387.402 7  -8416564.808 8
  23008630.563   -10043542.940 6  -7751666.474 5
 94  2 16 19 20  0.0000000  0  5 18 14 22 29 19
  21781127.273   -15043938.336 7 -11663427.422 6
  21117292.500    -2078232.221 7  -1575097.865 7
  21740743.969    -9501521.607 7  -7343398.279 7
  20845709.656   -10865389.909 7  -8431371.955 8
  22994483.313   -10117859.416 6  -7809575.356 5
 94  2 16 19 20 30.0000000  0  5 18 14 22 29 19
  21768435.781   -15110628.772 6 -11715393.980 6
  21129174.430    -2015802.187 7  -1526451.130 7
  21748297.414    -9461816.896 7  -7312459.577 7
  20842143.500   -10884139.023 7  -8445981.662 7
  22980386.328   -10191948.881 6  -7867307.366 5
 94  2 16 19 21  0.0000000  0  5 18 14 22 29 19
  21755773.141   -15177184.234 7 -11767255.355 6
  21141143.391    -1952924.115 7  -1477455.274 7
  21755963.273    -9421541.969 7  -7281076.547 7
  20838618.656   -10902654.091 7  -8460409.001 7
  22966334.086   -10265829.597 5  -7924876.721 5
 94  2 16 19 21 30.0000000  0  5 18 14 22 29 19
  21743131.813   -15243600.027 6 -11819007.906 6
  21153187.852    -1889592.523 7  -1428106.023 7
  21763733.492    -9380717.948 7  -7249265.632 7
  20835138.297   -10920948.479 7  -8474664.373 8
  22952315.297   -10339492.440 6  -7982276.296 5
 94  2 16 19 22  0.0000000  0  5 18 14 22 29 19
  21730519.156   -15309875.609 7 -11870651.205 6
  21165339.250    -1825779.022 7  -1378381.268 7
  21771599.727    -9339365.676 7  -7217043.106 7
  20831700.258   -10939021.864 7  -8488747.536 8
  22938338.172   -10412931.490 6  -8039501.494 5
 94  2 16 19 22 30.0000000  0  5 18 14 22 29 19
  21717940.781   -15375999.534 7 -11922176.324 6
  21177578.164    -1761467.739 7  -1328268.627 7
  21779572.703    -9297480.382 7  -7184405.245 8
  20828304.859   -10956860.529 7  -8502647.791 7
  22924406.234   -10486148.381 5  -8096553.590 5
 94  2 16 19 23  0.0000000  0  5 18 14 22 29 19
  21705385.477   -15441967.897 7 -11973580.235 6
  21189907.883    -1696661.150 7  -1277770.028 7
  21787636.063    -9255087.292 7  -7151371.705 7
  20824956.805   -10974463.258 7  -8516364.209 7
  22910516.023   -10559144.579 6  -8153433.702 5
 94  2 16 19 23 30.0000000  0  5 18 14 22 29 19
  21692862.688   -15507782.201 7 -12024864.085 6
  21202334.000    -1631359.007 7  -1226885.296 7
  21795800.742    -9212196.393 7  -7117950.239 7
  20821646.313   -10991829.207 7  -8529896.113 8
  22896670.398   -10631920.396 6  -8210142.108 5
 94  2 16 19 24  0.0000000  0  5 18 14 22 29 19
  21680365.008   -15573438.120 7 -12076024.514 6
  21214849.891    -1565571.520 7  -1175622.366 7
  21804061.508    -9168789.639 7  -7084126.818 7
  20818391.906   -11008949.728 7  -8543236.780 7
  22882855.992   -10704481.944 5  -8266683.534 5
 94  2 16 19 24 30.0000000  0  5 18 14 22 29 19
  21667902.102   -15638940.991 7 -12127065.698 6
  21227459.984    -1499333.503 7  -1124008.376 7
  21812418.539    -9124863.217 7  -7049898.444 7
  20815177.594   -11025836.662 7  -8556395.428 8
  22869090.609   -10776833.241 6  -8323061.134 5
 94  2 16 19 25  0.0000000  0  5 18 14 22 29 19
  21655468.219   -15704301.819 7 -12177996.196 6
  21240147.898    -1432649.234 7  -1072046.660 7
  21820874.398    -9080409.978 7  -7015259.580 7
  20812011.773   -11042491.084 7  -8569372.898 8
  22855361.555   -10848966.687 6  -8379268.974 5
 94  2 16 19 25 30.0000000  0  5 18 14 22 29 19
  21643048.695   -15769525.876 7 -12228820.112 6
  21252924.391    -1365524.263 7  -1019741.536 7
  21829439.992    -9035416.440 7  -6980199.708 7
  20808880.648   -11058913.632 7  -8582169.681 8
  22841677.992   -10920887.672 5  -8435311.288 5
 94  2 16 19 26  0.0000000  0  5 18 14 22 29 19
  21630667.219   -15834598.983 7 -12279526.416 6
  21265775.109    -1297974.618 7   -967105.499 7
  21838107.313    -8989879.511 7  -6944716.391 7
  20805804.211   -11075091.600 7  -8594775.887 7
  22828037.430   -10992589.751 6  -8491182.987 5
 94  2 16 19 26 30.0000000  0  5 18 14 22 29 19
  21618319.930   -15899515.170 7 -12330110.449 6
  21278713.422    -1229990.968 7   -914131.268 7
  21846871.406    -8943808.951 7  -6908817.258 7
  20802773.508   -11091023.872 7  -8607190.659 8
  22814432.547   -11064072.978 6  -8546884.161 5
 94  2 16 19 27  0.0000000  0  5 18 14 22 29 19
  21605990.563   -15964275.001 7 -12380572.630 6
  21291732.594    -1161568.739 7   -860815.300 7
  21855734.141    -8897232.074 7  -6872523.616 7
  20799788.086   -11106712.860 7  -8619415.845 8
  22800865.570   -11135345.091 6  -8602420.855 5
 94  2 16 19 27 30.0000000  0  6 18 14  4 22 29 19
  21593701.516   -16028864.962 7 -12430902.454 6
  21304835.094    -1092713.247 7   -807161.719 7
  24939325.992          -0.62013
  21864689.555    -8850158.205 7  -6835842.704 7
  20796851.656   -11122152.422 7  -8631446.664 8
  22787347.055   -11206399.511 6  -8657787.895 5
 94  2 16 19 28  0.0000000  0  6 18 14  4 22 29 19
  21581442.898   -16093293.672 7 -12481106.627 6
  21318020.891    -1023425.882 7   -753171.620 7
  24942441.844       16299.353 3
  21873743.727    -8802602.339 7  -6798786.192 7
  20793960.398   -11137342.794 7  -8643283.319 8
  22773862.414   -11277245.272 6  -8712992.344 5
 94  2 16 19 28 30.0000000  0  5 18 14 22 29 19
  21569213.117   -16157560.645 7 -12531184.778 6
  21331290.977     -953687.752 7   -698830.262 7
  21882883.461    -8754560.587 7  -6761351.085 7
  20791118.320   -11152269.287 7  -8654914.347 8
  22760423.859   -11347878.136 6  -8768030.892 5
 94  2 16 19 29  0.0000000  0  5 18 14 22 29 19
  21557016.125   -16221667.226 7 -12581137.936 6
  21344650.055     -883505.739 7   -644143.030 7
  21892119.250    -8706030.477 7  -6723535.443 7
  20788331.508   -11166913.383 7  -8666325.336 8
  22747026.133   -11418284.880 6  -8822893.236 5
 94  2 16 19 29 30.0000000  0  5 18 14 22 29 19
  21544845.242   -16285613.727 7 -12630966.352 6
  21358086.070     -812890.271 7   -589118.038 7
  21901451.930    -8656991.446 7  -6685323.239 7
  20785603.711   -11181258.025 7  -8677502.993 8
  22733672.547   -11488468.085 6  -8877581.417 5
 94  2 16 19 30  0.0000000  0  5 18 14 22 29 19
  21532705.305   -16349405.961 7 -12680674.569 6
  21371606.039     -741839.824 7   -533754.107 7
  21910880.219    -8607446.197 7  -6646716.582 7
  20782928.672   -11195308.242 7  -8688451.223 8
  22720355.984   -11558437.585 6  -8932103.069 6
 94  2 16 19 30 30.0000000  0  5 18 14 22 29 19
  21520594.109   -16413033.057 7 -12730254.100 6
  21385206.461     -670370.365 7   -478063.669 7
  21920405.984    -8557387.248 7  -6607709.631 7
  20780310.859   -11209078.076 7  -8699180.962 8
  22707084.352   -11628181.056 6  -8986448.578 5
 94  2 16 19 31  0.0000000  0  5 18 14 22 29 19
  21508523.266   -16476495.467 7 -12779705.311 6
  21398880.570     -598494.759 7   -422056.752 7
  21930022.867    -8506822.578 7  -6568308.622 7
  20777737.117   -11222601.238 7  -8709718.492 8
  22693853.117   -11697699.182 6  -9040618.500 5
 94  2 16 19 31 30.0000000  0  5 18 14 22 29 19
  21496475.867   -16539783.655 7 -12829020.762 6
  21412638.336     -526199.349 7   -365722.722 7
  21939747.680    -8455745.146 7  -6528508.072 7
  20775205.242   -11235901.106 7  -8720082.035 7
  22680672.469   -11766986.482 6  -9094608.584 6
 94  2 16 19 32  0.0000000  0  5 18 14 22 29 19
  21484469.055   -16602899.936 7 -12878202.248 6
  21426476.547     -453480.801 7   -309058.965 6
  21949564.664    -8404170.793 7  -6488320.302 7
  20772710.047   -11249004.726 7  -8730292.659 7
  22667529.414   -11836034.604 6  -9148412.266 6
 94  2 16 19 32 30.0000000  0  5 18 14 22 29 19
  21472492.469   -16665839.892 7 -12927246.350 6
  21440397.922     -380341.390 7   -252067.268 7
  21959470.031    -8352101.292 7  -6447746.702 7
  20770255.664   -11261906.986 7  -8740346.362 7
  22654435.352   -11904835.374 6  -9202023.205 5
 94  2 16 19 33  0.0000000  0  5 18 14 22 29 19
  21460546.109   -16728610.053 7 -12976158.151 7
  21454397.250     -306763.889 6   -194734.210 6
  21969476.023    -8299539.472 7  -6406789.482 7
  20767843.211   -11274583.510 7  -8750224.171 7
  22641395.219   -11973394.759 6  -9255446.090 5
 94  2 16 19 33 30.0000000  0  5 18 14 22 29 19
  21448637.031   -16791198.035 7 -13024927.974 6
  21468482.438     -232738.355 6   -137052.015 6
  21979572.250    -8246481.767 7  -6365445.862 7
  20765483.063   -11286989.097 7  -8759890.874 7
  22628392.172   -12041714.929 6  -9308682.536 6
 94  2 16 19 34  0.0000000  0  6 27 18 14 22 29 19
  25139677.063      -44420.13213
  21436762.586   -16853596.014 7 -13073549.772 7
  21482650.445     -158276.540 6    -79029.879 6
  21989760.375    -8192929.781 7  -6323717.076 7
  20763177.539   -11299095.773 7  -8769324.652 8
  22615427.836   -12109813.753 6  -9361746.511 6
 94  2 16 19 34 30.0000000  0  6 27 18 14 22 29 19
  25122780.203     -133204.367 3    -34584.10112
  21424922.836   -16915796.672 7 -13122017.801 7
  21496905.758      -83389.093 6    -20676.072 6
  22000045.383    -8138882.353 7  -6281602.241 7
  20760937.320   -11310884.710 7  -8778510.832 8
  22602509.391   -12177701.166 6  -9414645.766 5
 94  2 16 19 35  0.0000000  0  6 27 18 14 22 29 19
  25105911.734     -221926.981 3   -103718.499 3
  21413128.313   -16977800.731 7 -13170332.652 6
  21511234.719       -8085.264 7     38002.197 6
  22010424.781    -8084345.277 7  -6239105.857 7
  20758750.789   -11322364.532 7  -8787456.150 8
  22589632.156   -12245388.171 6  -9467388.862 6
 94  2 16 19 35 30.0000000  0  6 27 18 14 22 29 19
  25089023.398     -310597.895 3   -172812.607 2
  21401363.789   -17039606.179 7 -13218492.731 7
  21525636.078       67614.736 6     96989.152 6
  22020892.859    -8029334.981 7  -6196240.744 7
  20756622.063   -11333558.164 7  -8796178.467 8
  22576791.750   -12312877.612 6  -9519978.004 6
 94  2 16 19 36  0.0000000  0  5 18 14 22 29 19
  21389633.313   -17101228.686 7 -13266510.252 7
  21540118.766      143697.393 7    156274.308 6
  22031449.398    -7973854.277 7  -6153009.081 7
  20754539.344   -11344498.027 7  -8804703.042 8
  22563981.172   -12380169.551 6  -9572413.227 6
 94  2 16 19 36 30.0000000  0  5 18 14 22 29 19
  21377945.594   -17162676.774 7 -13314391.863 6
  21554671.219      220166.605 7    215860.635 6
  22042096.766    -7917913.027 7  -6109418.532 7
  20752505.656   -11355189.070 7  -8813033.733 8
  22551226.773   -12447235.830 6  -9624672.642 6
 94  2 16 19 37  0.0000000  0  5 18 14 22 29 19
  21366290.508   -17223940.613 7 -13362129.905 6
  21569295.727      297047.203 6    275767.552 6
  22052829.016    -7861500.067 7  -6065460.427 7
  20750521.695   -11365605.626 7  -8821150.534 7
  22538505.641   -12514059.042 6  -9676742.620 6
 94  2 16 19 37 30.0000000  0  5 18 14 22 29 19
  21354664.398   -17285026.317 7 -13409729.164 7
  21584010.461      374342.748 7    335997.814 6
  22063657.070    -7804605.854 7  -6021127.319 7
  20748598.742   -11375734.216 7  -8829042.952 8
  22525836.578   -12580634.239 6  -9728619.368 6
 94  2 16 19 38  0.0000000  0  5 18 14 22 29 19
  21343072.742   -17345936.392 7 -13457191.534 7
  21598796.008      452055.546 6    396553.171 6
  22074576.336    -7747228.120 7  -5976417.432 7
  20746724.500   -11385563.776 7  -8836702.356 8
  22513211.320   -12646965.916 6  -9780306.344 5
 94  2 16 19 38 30.0000000  0  6 27 18 14 22 29 19
  24988188.469      -87998.978 5
  21331518.453   -17406661.126 7 -13504509.497 7
  21613659.211      530187.364 6    457435.059 6
  22085582.016    -7689374.032 7  -5931336.368 7
  20744916.883   -11395072.096 7  -8844111.446 8
  22500637.180   -12713059.377 6  -9831807.706 6
 94  2 16 19 39  0.0000000  0  6 27 18 14 22 29 19
  24971461.570     -175889.575 3    -34234.24912
  21319999.898   -17467196.066 7 -13551679.570 6
  21628615.555      608732.106 6    518638.709 6
  22096686.313    -7631035.796 7  -5885878.036 7
  20743163.391   -11404280.083 7  -8851286.509 8
  22488103.000   -12778936.852 6  -9883140.762 6
 94  2 16 19 39 30.0000000  0  6 27 18 14 22 29 19
  24954755.047     -263685.006 4   -102646.232 2
  21308517.180   -17527520.757 7 -13598685.808 7
  21643633.562      687683.090 6    580158.902 6
  22107882.305    -7572215.479 7  -5840044.055 7
  20741466.086   -11413208.479 7  -8858243.719 8
  22475606.281   -12844589.487 6  -9934298.635 6
 94  2 16 19 40  0.0000000  0  6 27 18 14 22 29 19
  24938061.047     -351380.521 3   -170980.354 1
  21297082.680   -17587624.585 7 -13645519.948 7
  21658734.320      767032.038 6    641989.213 6
  22119158.805    -7512931.704 7  -5793848.934 7
  20739819.195   -11421865.198 7  -8864989.223 8
  22463163.891   -12910003.367 6  -9985270.458 6
 94  2 16 19 40 30.0000000  0  7 27 18 14 28 22 29 19
  24921379.375     -438974.270 2   -239235.172 2
  21285680.242   -17647512.091 7 -13692185.520 7
  21673911.320      846774.280 6    704125.974 6
  24889646.125          -0.18213
  22130529.742    -7453179.739 7  -5747289.015 7
  20738219.570   -11430264.542 7  -8871534.180 8
  22450761.672   -12975174.369 6 -10036053.026 6
 94  2 16 19 41  0.0000000  0  6 18 14 28 22 29 19
  21274330.594   -17707179.930 7 -13738679.925 7
  21689159.250      926923.486 6    766579.857 6
  24875950.141      -71976.437 3        -0.24514
  22141988.398    -7392943.902 6  -5700352.053 7
  20736671.445   -11438402.530 7  -8877875.482 8
  22438406.195   -13040086.441 6 -10086633.838 6
 94  2 16 19 41 30.0000000  0  6 18 14 28 22 29 19
  21263016.836   -17766639.222 7 -13785011.837 7
  21704484.188     1007475.313 6    829347.484 6
  24862266.359     -143813.564 3    -55977.118 4
  22153542.133    -7332235.533 6  -5653046.882 7
  20735177.641   -11446252.296 7  -8883992.187 8
  22426100.586   -13104740.254 6 -10137013.395 6
 94  2 16 19 42  0.0000000  0  7 27 18 14 28 22 29 19
  24871519.773      -87241.594 3
  21251738.148   -17825894.738 7 -13831184.953 7
  21719901.094     1088442.444 7    892438.694 6
  24848630.930     -215501.767 3   -111837.976 4
  22165193.359    -7271029.926 6  -5605354.250 7
  20733745.469   -11453781.223 7  -8889858.897 8
  22413852.766   -13169141.221 6 -10187195.946 6
 94  2 16 19 42 30.0000000  0  7 27 18 14 28 22 29 19
  24854944.359     -174368.662 4    -33934.57411
  21240503.156   -17884936.691 7 -13877191.664 7
  21735383.328     1169823.191 6    955852.206 6
  24835028.469     -287035.027 3   -167578.063 4
  22176935.531    -7209327.198 7  -5557274.255 7
  20732373.750   -11460984.537 7  -8895471.882 8
  22401629.180   -13233307.763 6 -10237195.820 6
 94  2 16 19 43  0.0000000  0  7 27 18 14 28 22 29 19
  24838387.813     -261382.690 4   -101737.819 1
  21229311.633   -17943745.920 7 -13923017.022 7
  21750943.742     1251609.699 6   1019581.915 6
  24821438.719     -358408.386 5   -223193.606 3
  22188764.648    -7147146.049 7  -5508821.478 7
  20731066.219   -11467844.443 7  -8900817.276 8
  22389466.719   -13297243.679 6 -10287015.987 6
 94  2 16 19 43 30.0000000  0  7 27 18 14 28 22 29 19
  24821855.367     -348285.420 4
  21218172.641   -18002299.437 7 -13968643.139 7
  21766581.398     1333786.680 6   1083615.883 6
  24807888.617     -429634.036 5   -278693.953 4
  22200686.180    -7084502.904 6  -5460008.692 6
  20729831.539   -11474363.845 7  -8905897.345 8
  22377350.719   -13360951.976 6 -10336658.786 6
 94  2 16 19 44  0.0000000  0  7 27 18 14 28 22 29 19
  24805343.961     -435062.817 3        -0.43811
  21207081.477   -18060582.967 7 -14014058.874 7
  21782289.734     1416338.966 6   1147942.290 6
  24794358.047     -500725.694 5   -334089.964 2
  22212692.523    -7021411.658 7  -5410846.732 6
  20728646.180   -11480569.960 7  -8910733.296 8
  22365264.531   -13424429.404 6 -10386121.703 6
 94  2 16 19 44 30.0000000  0  7 27 18 14 28 22 29 19
  24788850.734     -521723.135 4    -67527.967 1
  21196038.633   -18118599.554 7 -14059266.608 7
  21798068.266     1499258.727 6   1212555.049 6
  24780862.328     -571670.082 5   -389371.163 3
  22224781.258    -6957890.886 7  -5361350.076 6
  20727523.039   -11486476.313 7  -8915335.658 8
  22353232.453   -13487665.182 6 -10435396.316 6
 94  2 16 19 45  0.0000000  0  7 27 18 14 28 22 29 19
  24772381.852     -608270.143 4   -134967.172 2
  21185046.414   -18176368.507 7 -14104281.374 7
  21813917.523     1582544.661 6   1277453.123 6
  24767388.188     -642470.993 5   -444540.543 3
  22236953.930    -6893935.666 6  -5311514.891 7
  20726455.281   -11492091.380 7  -8919711.058 8
  22341244.820   -13550653.419 6 -10484478.033 6
 94  2 16 19 45 30.0000000  0  7 27 18 14 28 22 29 19
  24755933.258     -694699.888 5   -202314.973 2
  21174100.383   -18233907.800 7 -14149117.186 7
  21829838.945     1666193.348 6   1342633.875 6
  24753943.273     -713117.352 5   -499589.502 2
  22249205.211    -6829540.300 6  -5261336.749 7
  20725435.750   -11497426.614 7  -8923868.405 8
  22329313.898   -13613391.669 6 -10533364.955 6
 94  2 16 19 46  0.0000000  0  7 27 18 14 28 22 29 19
  24739506.453     -781016.688 5   -269574.735 3
  21163188.219   -18291245.754 7 -14193796.106 7
  21845823.891     1750198.987 6   1408092.759 6
  24740531.883     -783595.038 5   -554506.988 3
  22261541.539    -6764704.682 6  -5210815.537 6
  20724475.852   -11502483.098 7  -8927808.538 8
  22317421.031   -13675879.100 6 -10582056.439 6
 94  2 16 19 46 30.0000000  0  7 27 18 14 28 22 29 19
  24723102.680     -867221.433 5   -336747.236 1
  21152313.742   -18348388.278 7 -14238322.742 7
  21861877.688     1834573.658 6   1473839.212 6
  24727162.680     -853885.032 5   -609278.270 4
  22273967.539    -6699420.421 6  -5159944.725 6
  20723574.219   -11507239.516 7  -8931514.860 8
  22305576.453   -13738112.646 6 -10630550.080 6
 94  2 16 19 47  0.0000000  0  7 27 18 14 28 22 29 19
  24706738.711     -953300.299 4   -403821.648 1
  21141476.695   -18405320.649 7 -14282685.624 7
  21878005.586     1919312.909 6   1539869.730 6
  24713802.094     -923997.466 5   -663911.168 3
  22286469.758    -6633694.542 6  -5108729.821 6
  20722726.500   -11511677.873 7  -8934973.333 8
  22293782.297   -13800101.914 6 -10678853.387 6
 94  2 16 19 47 30.0000000  0  7 27 18 14 28 22 29 19
  24690373.695    -1039244.044 4   -470790.671 1
  21130685.492   -18462024.711 7 -14326870.597 7
  21894203.000     2004407.823 6   1606177.404 6
  24700501.102     -993936.497 5   -718408.939 2
  22299058.227    -6567536.567 6  -5057178.212 6
  20721945.844   -11515781.461 7  -8938170.949 8
  22282028.039   -13861855.383 6 -10726972.942 6
 94  2 16 19 48  0.0000000  0  7 27 18 14 28 22 29 19
  24674008.469    -1125058.534 2   -537658.965 2
  21119944.227   -18518490.155 7 -14370869.635 7
  21910465.539     2089865.530 6   1672767.767 6
  24687235.273    -1063708.278 4   -772776.425 2
  22311734.039    -6500945.369 6  -5005289.018 6
  20721229.219   -11519540.937 7  -8941100.433 7
  22270319.852   -13923380.504 6 -10774914.590 6
 94  2 16 19 48 30.0000000  0  7 27 18 14 28 22 29 19
  24657721.078    -1210750.386 3   -604431.716 1
  21109245.906   -18574708.851 7 -14414676.413 7
  21926791.648     2175693.644 6   1739646.766 6
  24673987.195    -1133314.574 4   -827014.979 2
  22324487.141    -6433927.807 6  -4953067.595 6
  20720582.656   -11522951.499 7  -8943758.040 7
  22258657.336   -13984687.511 6 -10822686.264 6
 94  2 16 19 49  0.0000000  0  7 27 18 14 28 22 29 19
  24641459.805    -1296322.491 4   -671111.110 3
  21098594.875   -18630665.820 7 -14458279.246 7
  21943196.094     2261886.843 6   1806810.235 6
  24660767.281    -1202746.143 4   -881117.373 2
  22337324.922    -6366475.495 6  -4900507.416 7
  20720000.961   -11526001.743 7  -8946134.868 7
  22247034.766   -14045766.102 6 -10870279.941 5
 94  2 16 19 49 30.0000000  0  7 27 18 14 28 22 29 19
  24625183.211    -1381784.453 5   -737704.642 4
  21087996.617   -18686371.004 7 -14501685.874 7
  21959670.648     2348446.933 6   1874259.597 6
  24647592.789    -1271998.323 4   -935080.048 1
  22350242.953    -6298585.753 6  -4847606.384 6
  20719486.016   -11528719.047 7  -8948252.276 7
  22235451.047   -14106613.352 6 -10917693.360 6
 94  2 16 19 50  0.0000000  0  7 27 18 14 28 22 29 19
  24608935.930    -1467137.670 4   -804213.432 3
  21077445.789   -18741831.839 7 -14544902.095 7
  21976211.969     2435383.147 6   1942002.026 6
  24634451.578    -1341053.274 4   -988888.993 2
  22363244.500    -6230258.536 6  -4794364.459 6
  20719027.117   -11531120.960 7  -8950123.909 7
  22223920.078   -14167212.904 6 -10964913.789 6
 94  2 16 19 50 30.0000000  0  7 27 18 14 28 22 29 19
  24592718.695    -1552365.909 4   -870624.852 3
  21066936.438   -18797038.851 7 -14587920.541 7
  21992827.125     2522698.735 6   2010040.094 6
  24621349.062    -1409897.663 5  -1042533.896 3
  22376331.883    -6161493.231 6  -4740781.157 6
  20718627.234   -11533211.845 7  -8951753.189 8
  22212437.813   -14227548.399 6 -11011928.440 6
 94  2 16 19 51  0.0000000  0  7 27 18 14 28 22 29 19
  24576529.781    -1637470.010 3   -936939.582 2
  21056478.461   -18851995.614 7 -14630743.973 7
  22009510.742     2610363.010 6   2078349.852 6
  24608292.281    -1478539.810 4  -1096021.293 1
  22389501.375    -6092296.904 6  -4686862.000 7
  20718285.930   -11535016.933 7  -8953159.785 7
  22201003.000   -14287634.066 6 -11058748.424 6
 94  2 16 19 51 30.0000000  0  7 27 18 14 28 22 29 19
  24560358.578    -1722439.609 3  -1003149.497 2
  21046069.789   -18906698.870 7 -14673369.872 7
  22026260.922     2698383.757 6   2146937.381 6
  24595258.414    -1546976.278 3  -1149348.360 2
  22402746.508    -6022671.245 6  -4632608.308 7
  20717996.469   -11536546.502 7  -8954351.677 7
  22189616.344   -14347471.288 6 -11105374.813 6
 94  2 16 19 52  0.0000000  0  7 27 18 14 28 22 29 19
  24544227.758      -42414.45013
  21035707.789   -18961161.828 7 -14715808.529 7
  22043071.148     2786736.584 6   2215783.669 6
  24582291.031    -1615214.852 4  -1202521.277 1
  22416081.414    -5952630.281 6  -4578031.017 7
  20717758.844   -11537796.786 7  -8955325.945 7
  22178277.555   -14407073.522 6 -11151818.066 6
 94  2 16 19 52 30.0000000  0  7 27 18 14 28 22 29 19
  24528069.445     -127146.246 3    -33000.55512
  21025391.672   -19015366.901 7 -14758046.231 7
  22059946.297     2875426.332 6   2284892.504 6
  24569327.977    -1683239.923 3  -1255527.878 2
  22429486.289    -5882156.215 6  -4523116.220 6
  20717580.211   -11538731.698 7  -8956054.477 7
  22166980.297   -14466438.313 6 -11198076.340 6
 94  2 16 19 53  0.0000000  0  7 27 18 14 28 22 29 19
  24511978.570     -211768.769 3    -98940.011 3
  21015123.078   -19069326.104 7 -14800092.353 7
  22076892.664     2964446.708 6   2354258.956 6
  24556427.461    -1751056.258 4  -1308371.786 2
  22442977.922    -5811261.398 6  -4467873.564 6
  20717459.977   -11539335.300 7  -8956524.830 7
  22155728.594   -14525566.697 6 -11244150.368 6
 94  2 16 19 53 30.0000000  0  7 27 18 14 28 22 29 19
  24495905.188     -296277.646 4   -164790.960 3
  21004900.422   -19123033.552 7 -14841942.295 7
  22093896.820     3053823.963 6   2423903.496 6
  24543551.438    -1818651.497 4  -1361043.435 2
  22456548.531    -5739938.304 6  -4412297.183 6
  20717413.836   -11539580.862 7  -8956716.199 7
  22144524.195   -14584434.636 6 -11290021.478 6
 94  2 16 19 54  0.0000000  0  7 27 18 14 28 22 29 19
  24479840.656     -380675.700 3   -230555.513 3
  20994727.250   -19176495.391 7 -14883600.863 7
  22110969.453     3143537.209 6   2493809.860 6
  24530742.523    -1886022.726 4  -1413540.501 2
  22470203.516    -5668201.458 6  -4356398.396 6
  20717444.406   -11539462.885 7  -8956624.292 7
  22133369.953   -14643052.444 6 -11335697.669 6
 94  2 16 19 54 30.0000000  0  7 27 18 14 28 22 29 19
  24463808.273     -464945.644 3   -296220.248 2
  20984605.930   -19229696.480 7 -14925056.240 7
  22128109.617     3233584.771 6   2563976.716 5
  24517966.484    -1953159.603 4  -1465854.961 2
  22483926.570    -5596058.428 6  -4300183.100 6
  20717532.484   -11538972.709 7  -8956242.353 7
  22122265.141   -14701411.764 6 -11381172.452 6
 94  2 16 19 55  0.0000000  0  6 27 14 28 22 29 19
  24447785.281     -549105.375 3   -361799.180 1
  22145303.898     3323936.651 6   2634380.694 6
  24505228.844    -2020090.202 4  -1518008.642 2
  22497730.828    -5523533.591 6  -4243670.290 6
  20717693.711   -11538146.376 7  -8955598.467 7
  22111204.438   -14759538.329 6 -11426465.860 6
 94  2 16 19 55 30.0000000  0  7 27 18 14 28 22 29 19
  24431800.461     -633143.806 5   -427283.592 2
  20964498.367      -52701.456 7        -0.48817
  22162545.055     3414583.405 6   2705014.470 6
  24492533.055    -2086809.274 5  -1569997.514 2
  22511608.602    -5450615.578 6  -4186851.109 6
  20717906.641   -11537001.114 7  -8954706.080 7
  22100184.250   -14817446.202 6 -11471588.873 6
 94  2 16 19 56  0.0000000  0  7 27 18 14 28 22 29 19
  24415821.219     -717043.780 4   -492660.135 1
  20954519.969     -105128.913 7    -40853.043 7
  22179857.883     3505530.643 6   2775882.368 6
  24479882.734    -2153308.425 4  -1621815.000 4
  22525558.289    -5377297.312 6  -4129720.036 6
  20718187.758   -11535525.450 7  -8953556.239 7
  22089207.836   -14875132.880 6 -11516539.527 6
 94  2 16 19 56 30.0000000  0  7 27 18 14 28 22 29 19
  24399891.797     -800807.525 5   -557930.563 2
  20944596.813     -157288.324 7    -81496.738 7
  22197224.305     3596793.141 6   2846995.917 6
  24467271.500    -2219600.037 5  -1673470.725 3
  22539588.734    -5303576.824 6  -4072275.554 6
  20718529.648   -11533730.397 7  -8952157.514 7
  22078270.195   -14932600.774 6 -11561319.686 6
 94  2 16 19 57  0.0000000  0  7 27 18 14 28 22 29 19
  24383977.203     -884425.964 4   -623087.706 3
  20934721.625     -209179.523 7   -121931.434 7
  22214652.008     3688393.179 6   2918372.486 6
  24454688.070    -2285687.297 5  -1724967.224 3
  22553695.258    -5229439.443 6  -4014506.215 6
  20718930.078   -11531608.505 7  -8950504.108 7
  22067379.273   -14989836.349 6 -11605918.822 6
 94  2 16 19 57 30.0000000  0  7 27 18 14 28 22 29 19
  24368090.180     -967907.444 3   -688138.146 2
  20924901.617     -260802.590 7   -162157.212 7
  22232147.164     3780337.497 6   2990017.330 6
  24442152.937    -2351559.929 5  -1776296.482 4
  22567881.078    -5154897.401 6  -3956421.557 6
  20719401.828   -11529149.982 7  -8948588.384 7
  22056537.492   -15046822.082 6 -11650323.267 6
 94  2 16 19 58  0.0000000  0  7 27 18 14 28 22 29 19
  24352242.891    -1051266.151 5   -753092.949 2
  20915125.953     -312162.431 7   -202177.867 7
  22249712.273     3872619.943 6   3061925.642 6
  24429656.031    -2417216.455 5  -1827457.320 4
  22582134.586    -5079970.644 6  -3898037.131 6
  20719935.016   -11526351.222 7  -8946407.549 7
  22045740.117   -15103551.095 6 -11694527.681 6
 94  2 16 19 58 30.0000000  0  7 27 18 14 28 22 29 19
  24336388.867    -1134512.046 5   -817959.856 1
  20905399.992     -363268.303 7   -242000.618 7
  22267337.375     3965225.950 6   3134086.077 6
  24417208.953    -2482638.738 5  -1878435.655 3
  22596467.250    -5004670.138 6  -3839361.477 6
  20720533.695   -11523212.680 7  -8943961.951 7
  22034994.234   -15160019.725 6 -11738529.197 6
 94  2 16 19 59  0.0000000  0  6 27 14 28 22 29 19
  24320569.711    -1217655.933 5   -882747.295 2
  22285012.375     4058139.339 6   3206486.035 6
  24404812.953    -2547807.328 5  -1929216.291 4
  22610871.398    -4928989.021 6  -3780389.251 6
  20721195.508   -11519722.279 7  -8941242.174 7
  22024297.812   -15216232.027 6 -11782330.985 6
 94  2 16 19 59 30.0000000  0  8 27 18 14 28 22 29 19 31
  24304780.969    -1300701.504 5   -947458.075 2
  20886106.813      -25243.88317
  22302743.234     4151335.453 6   3279106.294 6
  24392461.477    -2612699.174 5  -1979781.314 4
  22625342.383    -4852931.461 6  -3721123.675 6
  20721923.547   -11515883.643 7  -8938251.052 7
  22013647.945   -15272212.514 6 -11825952.114 6
  24732441.125          -0.97613
 94  2 16 20  0  0.0000000  0  8 27 18 14 28 22 29 19 31
  24288989.273    -1383624.424 4  -1012073.257 4
  20876542.695      -75503.065 7    -19553.01417
  22320540.859     4244813.361 6   3351946.131 6
  24380161.242    -2677301.729 5  -2030120.884 3
  22639889.719    -4776481.253 6  -3661552.134 6
  20722726.531   -11511683.055 7  -8934977.891 7
  22003037.141   -15327972.867 6 -11869401.723 6
  24715733.805      -87818.698 2
 94  2 16 20  0 30.0000000  0  8 27 18 14 28 22 29 19 31
  24273229.180    -1466425.354 4  -1076593.414 3
  20867036.141     -125468.332 7    -58486.980 7
  22338378.555     4338570.466 6   3425003.517 6
  24367925.906    -2741637.335 4  -2080252.504 3
  22654511.758    -4699643.572 6  -3601678.676 6
  20723591.164   -11507130.026 7  -8931430.087 7
  21992466.391   -15383528.915 6 -11912692.124 6
  24699021.195     -175681.508 4
 94  2 16 20  1  0.0000000  0  8 27 18 14 28 22 29 19 31
  24257499.133    -1549100.525 5  -1141015.589 4
  20857585.719     -175125.008 7    -97180.504 7
  22356276.859     4432609.410 6   3498280.531 6
  24355735.453    -2805736.043 5  -2130199.495 2
  22669209.867    -4622425.940 6  -3541509.140 6
  20724525.133   -11502241.476 7  -8927620.838 7
  21981931.516   -15438883.968 6 -11955825.924 6
  24682291.188     -263593.799 4        -0.27911
 94  2 16 20  1 30.0000000  0  7 27 14 28 22 29 19 31
  24241796.430    -1631629.941 5  -1205324.229 2
  22374230.156     4526948.285 6   3571791.248 5
  24343577.266    -2869596.558 5  -2179960.902 3
  22683970.953    -4544842.863 6  -3481054.870 6
  20725516.078   -11497021.378 7  -8923553.241 7
  21971443.547   -15494004.030 6 -11998776.610 6
  24665553.633     -351519.657 3    -68513.835 1
 94  2 16 20  2  0.0000000  0  8 27 18 14 28 22 29 19 31
  24226107.797    -1714026.941 4  -1269529.666 2
  20838863.484      -49036.218 7
  22392233.352     4621592.193 6   3645539.662 6
  24331467.484    -2933241.384 4  -2229554.249 4
  22698798.078    -4466917.756 6  -3420334.074 6
  20726569.891   -11491487.433 7  -8919241.089 7
  21960997.781   -15548879.239 6 -12041536.486 6
  24648838.695     -439454.467 5   -137034.479 1
 94  2 16 20  2 30.0000000  0  8 27 18 14 28 22 29 19 31
  24210461.758    -1796294.602 4  -1333634.314 4
  20829589.844      -97769.465 7    -18957.05417
  22410308.641     4716555.264 6   3719536.759 5
  24319396.508    -2996648.895 4  -2278962.698 3
  22713692.813    -4388646.071 6  -3359343.211 6
  20727686.781   -11485628.587 7  -8914675.780 7
  21950607.016   -15603478.750 6 -12084081.545 6
  24632073.883     -527390.022 3   -205555.637 1
 94  2 16 20  3  0.0000000  0  8 27 18 14 28 22 29 19 31
  24194829.070    -1878438.645 5  -1397642.673 5
  20820371.422     -146204.418 7    -56698.574 7
  22428436.273     4811815.267 6   3793765.227 6
  24307384.961    -3059788.963 4  -2328162.721 4
  22728653.430    -4310029.778 6  -3298083.810 6
  20728859.172   -11479444.180 7  -8909856.769 7
  21940270.117   -15657811.456 6 -12126418.689 6
  24615351.422     -615309.124 3   -274063.965 1
 94  2 16 20  3 30.0000000  0  8 27 18 14 28 22 29 19 31
  24179209.078    -1960450.009 4  -1461547.639 5
  20811211.125     -194357.620 7    -94220.546 7
  22446611.258     4907366.735 6   3868220.829 5
  24295420.938    -3122634.198 4  -2377133.029 4
  22743678.961    -4231052.834 6  -3236543.389 6
  20730099.109   -11472915.142 7  -8904769.230 7
  21929980.578   -15711886.730 6 -12168555.255 6
  24598640.570     -703191.596 3   -342543.768 1
 94  2 16 20  4  0.0000000  0  8 27 18 14 28 22 29 19 31
  24163629.102    -2042325.603 3  -1525346.787 5
  20802096.383     -242244.691 7   -131535.141 7
  22464847.750     5003195.590 6   3942892.575 5
  24283528.180    -3185173.846 5  -2425865.174 3
  22758786.625    -4151698.426 6  -3174708.863 6
  20731413.523   -11466017.087 7  -8899394.152 7
  21919736.102   -15765725.098 6 -12210507.214 6
  24581906.617     -791057.946 3   -411010.949 1
 94  2 16 20  4 30.0000000  0  7 27 18 14 28 22 29 19
  24148092.188    -2124071.447 4  -1589044.834 4
  20793034.250     -289859.286 7   -168637.414 7
  22483134.711     5099281.688 6   4017764.781 5
  24271672.398    -3247412.408 5  -2474362.692 4
  22773955.320    -4071963.113 6  -3112577.535 6
  20732798.523   -11458740.670 7  -8893724.233 7
  21909532.703   -15819347.902 6 -12252291.197 6
 94  2 16 20  5  0.0000000  0  7 27 18 14 28 22 29 19
  24132550.281    -2205682.737 5  -1652638.025 4
  20784027.867     -337203.063 7   -205528.665 7
  22501469.687     5195619.365 6   4092832.984 5
  24259878.352    -3309363.693 5  -2522636.369 5
  22789199.023    -3991863.421 6  -3050162.272 6
  20734254.727   -11451101.908 7  -8887771.973 7
  21899361.883   -15872774.969 6 -12293922.653 6
 94  2 16 20  5 30.0000000  0  8 27 18 14 28 22 29 19 31
  24117047.500    -2287169.211 5  -1716133.967 3
  20775067.242     -384283.463 7   -242214.681 7
  22519852.828     5292207.954 6   4168096.713 5
  24248151.492    -3371043.497 5  -2570698.487 3
  22804510.680    -3911413.289 6  -2987473.930 6
  20735780.695   -11443089.574 7  -8881528.609 7
  21889237.781   -15925995.639 6 -12335393.289 6
  24531767.328      -43921.89913
 94  2 16 20  6  0.0000000  0  8 27 18 14 28 22 29 19 31
  24101570.883    -2368543.835 5  -1779542.729 3
  20766164.602     -431069.336 7   -278671.196 7
  22538276.734     5389051.763 6   4243559.334 5
  24236464.484    -3432445.381 5  -2618544.063 4
  22819883.570    -3830624.444 6  -2924521.654 6
  20737371.602   -11434703.403 7  -8874993.957 7
  21879152.930   -15978992.108 6 -12376689.226 6
  24515055.703     -131769.132 4    -34225.75811
 94  2 16 20  6 30.0000000  0  8 27 18 14 28 22 29 19 31
  24086091.656    -2449818.490 5  -1842873.517 4
  20757323.086     -477543.802 7   -314885.059 7
  22556759.063     5486153.616 6   4319223.025 5
  24224838.523    -3493567.406 5  -2666171.564 5
  22835315.687    -3749511.339 6  -2861316.701 6
  20739037.305   -11425955.419 7  -8868177.373 7
  21869112.266   -16031762.264 6 -12417808.827 6
  24498333.953     -219615.193 3   -102677.164 1
 94  2 16 20  7  0.0000000  0  8 27 18 14 28 22 29 19 31
  24070645.859    -2530995.671 5  -1906128.452 3
  20748536.969     -523712.762 7   -350860.868 7
  22575288.133     5583516.592 6   4395090.168 5
  24213259.148    -3554405.882 5  -2713578.091 4
  22850811.117    -3668077.989 6  -2797862.222 6
  20740769.664   -11416850.401 7  -8861082.580 7
  21859115.297   -16084289.172 6 -12458738.873 6
  24481640.281     -307464.018 3   -171130.645 1
 94  2 16 20  7 30.0000000  0  8 27 18 14 28 22 29 19 31
  24055210.852    -2612086.018 5  -1969315.692 2
  20739810.633     -569576.040 7   -386598.477 8
  22593861.375     5681132.659 6   4471154.516 5
  24201736.047    -3614960.878 5  -2760763.732 4
  22866373.359    -3586315.951 6  -2734151.637 6
  20742572.844   -11407381.014 7  -8853703.860 7
  21849163.719   -16136568.741 6 -12499476.192 6
  24464902.836     -395314.870 3   -239585.758 1
 94  2 16 20  8  0.0000000  0  8 27 18 14 28 22 29 19 31
  24039796.633    -2693079.511 5  -2032427.431 2
  20731144.586     -615121.788 7   -422088.669 8
  22612484.578     5779012.418 6   4547424.357 5
  24190262.953    -3675234.914 5  -2807730.456 5
  22881993.938    -3504218.039 6  -2670179.316 6
  20744439.563   -11397564.037 7  -8846054.295 7
  21839262.281   -16188608.823 6 -12540026.904 6
  24448192.063     -483146.517 5   -308025.913 1
 94  2 16 20  8 30.0000000  0  8 27 18 14 28 22 29 19 31
  24024410.086    -2773964.000 5  -2095454.216 4
  20722532.648     -660370.164 7   -457347.131 8
  22631165.180     5877149.178 6   4623894.460 5
  24178842.406    -3735238.875 5  -2854486.723 4
  22897681.945    -3421782.896 6  -2605944.213 6
  20746377.188   -11387404.059 7  -8838137.459 7
  21829403.633   -16240416.881 6 -12580396.808 6
  24431476.805     -570953.328 4   -376446.727 2
 94  2 16 20  9  0.0000000  0  8 27 18 14 28 22 29 19 31
  24009044.594    -2854728.843 5  -2158387.761 3
  20713974.625     -705333.985 7   -492383.886 8
  22649884.953     5975524.404 6   4700550.368 5
  24167484.367    -3794973.568 5  -2901033.182 4
  22913433.750    -3339019.604 6  -2541453.422 6
  20748371.938   -11376912.993 7  -8829962.631 7
  21819589.039   -16291996.850 6 -12620588.998 6
  24414776.289     -658741.224 5   -444852.797 1
 94  2 16 20  9 30.0000000  0  8 27 18 14 28 22 29 19 31
  23993696.156    -2935374.928 5  -2221228.836 2
  20705475.461     -750009.855 7   -527196.253 8
  22668641.234     6074123.403 6   4777380.634 5
  24156159.336    -3854446.959 5  -2947376.040 5
  22929240.406    -3255948.649 6  -2476722.893 6
  20750427.922   -11366102.141 7  -8821538.622 7
  21809811.500   -16343365.755 6 -12660616.709 6
  24398069.602     -746516.952 4   -513249.392 2
 94  2 16 20 10  0.0000000  0  8 27 18 14 28 22 29 19 31
  23978372.977    -3015892.274 5  -2283969.561 2
  20697024.797     -794400.953 7   -561786.708 8
  22687451.195     6172939.061 6   4854379.742 5
  24144898.641    -3913656.807 5  -2993513.526 5
  22945103.289    -3172578.915 6  -2411759.546 6
  20752548.227   -11354975.903 7  -8812868.847 7
  21800079.461   -16394517.596 6 -12700475.292 6
  24381381.031     -834278.684 5   -581635.124 1
 94  2 16 20 10 30.0000000  0  8 27 18 14 28 22 29 19 31
  23963073.477    -3096270.381 3  -2346601.807 2
  20688633.719     -838511.012 7   -596158.184 8
  22706280.672     6271961.658 6   4931540.081 5
  24133680.484    -3972592.608 5  -3039437.460 4
  22961023.984    -3088913.237 6  -2346565.599 6
  20754726.656   -11343520.947 7  -8803942.941 7
  21790392.648   -16445446.363 6 -12740160.054 6
  24364676.977     -922020.970 5   -650005.684 2
 94  2 16 20 11  0.0000000  0  8 27 18 14 28 22 29 19 31
  23947805.031    -3176518.578 3  -2409132.827 3
  20680292.398     -882338.314 7   -630309.334 8
  22725174.453     6371188.228 6   5008859.369 5
  24122527.703    -4031241.524 5  -3085137.848 5
  22976997.289    -3004960.085 6  -2281147.647 6
  20756968.539   -11331736.105 7  -8794759.977 7
  21780739.102   -16496153.023 6 -12779671.737 6
  24347966.789    -1009749.273 4   -718365.305 1
 94  2 16 20 11 30.0000000  0  8 27 18 14 28 22 29 19 31
  23932567.133    -3256643.399 5  -2471567.701 2
  20672006.094     -925875.067 7   -664234.075 8
  22744096.813     6470632.782 6   5086348.522 5
  24111417.813    -4089590.590 5  -3130604.558 5
  22993036.523    -2920710.881 6  -2215498.998 6
  20759274.859   -11319605.846 7  -8785307.853 7
  21771136.531   -16546618.704 6 -12818995.652 6
  24331293.492    -1097447.117 4   -786701.248 2
 94  2 16 20 12  0.0000000  0  8 27 18 14 28 22 29 19 31
  23917338.766    -3336646.974 5  -2533908.123 1
  20663779.125     -969124.499 7   -697934.926 8
  22763061.961     6570297.163 6   5164008.959 5
  24100368.406    -4147627.073 5  -3175827.700 5
  23009121.023    -2836164.171 6  -2149618.522 6
  20761651.242   -11307125.912 7  -8775583.250 7
  21761579.375   -16596840.709 6 -12858129.683 6
  24314597.000    -1185110.936 3   -855010.663 2
 94  2 16 20 12 30.0000000  0  8 27 18 14 28 22 29 19 31
  23902129.867    -3416540.805 5  -2596163.054 3
  20655605.531    -1012074.454 7   -731402.422 8
  22782072.953     6670186.124 6   5241844.385 5
  24089390.359    -4205342.757 5  -3220800.903 5
  23025267.820    -2751332.717 6  -2083516.178 6
  20764092.172   -11294287.767 7  -8765579.532 7
  21752061.180   -16646832.528 6 -12897084.355 6
  24297930.680    -1272726.378 4   -923282.395 3
 94  2 16 20 13  0.0000000  0  8 27 18 14 28 22 29 19 31
  23886947.898    -3496345.426 5  -2658348.429 4
  20647489.555    -1054718.550 7   -764631.583 8
  22801124.344     6770300.977 6   5319855.819 5
  24078469.625    -4262728.669 5  -3265517.085 5
  23041461.164    -2666219.627 6  -2017194.367 6
  20766607.883   -11281090.836 7  -8755296.243 7
  21742595.844   -16696600.614 6 -12935864.681 6
  24281281.258    -1360280.744 4   -991506.500 2
 94  2 16 20 13 30.0000000  0  8 27 18 14 28 22 29 19 31
  23871773.203    -3576062.846 5  -2720465.861 4
  20639435.203    -1097044.839 7   -797613.097 8
  22820214.859     6870641.208 6   5398042.891 5
  24067603.008    -4319802.144 5  -3309989.836 5
  23057712.656    -2580818.928 6  -1950648.434 5
  20769188.820   -11267529.222 7  -8744728.767 7
  21733169.203   -16746155.603 6 -12974478.967 6
  24264623.227    -1447761.500 5  -1059673.282 2
 94  2 16 20 14  0.0000000  0  8 27 18 14 28 22 29 19 31
  23856627.711    -3655690.078 5  -2782513.044 4
  20631440.211    -1139051.323 7   -830345.409 8
  22839345.789     6971199.177 6   5476399.634 5
  24056799.117    -4376580.024 5  -3354232.269 5
  23074013.406    -2495136.154 6  -1883882.714 5
  20771835.438   -11253608.902 7  -8733881.774 7
  21723771.859   -16795533.866 6 -13012955.530 6
  24248002.844    -1535176.564 5  -1127788.815 2
 94  2 16 20 14 30.0000000  0  8 27 18 14 28 22 29 19 31
  23841487.656    -3735227.061 5  -2844489.895 4
  20623508.539    -1180743.015 7   -862832.425 8
  22858526.398     7071951.510 5   5554907.808 5
  24046058.633    -4433065.094 5  -3398246.522 5
  23090374.195    -2409172.888 6  -1816898.423 6
  20774552.320   -11239330.923 7  -8722756.102 7
  21714398.430   -16844748.073 6 -13051304.256 6
  24231366.813    -1622524.436 3  -1195852.032 2
 94  2 16 20 15  0.0000000  0  8 27 18 14 28 22 29 19 31
  23826368.641    -3814661.750 5  -2906387.044 5
  20615634.789    -1222119.827 7   -895074.092 8
  22877736.117     7172895.654 5   5633565.453 5
  24035361.250    -4489251.903 5  -3442028.379 5
  23106792.227    -2322914.989 6  -1749684.565 6
  20777334.211   -11224705.730 7  -8711359.871 7
  21705068.195   -16893787.749 6 -13089516.983 6
  24214762.930    -1709824.895 3  -1263878.312 1
 94  2 16 20 15 30.0000000  0  8 27 18 14 28 22 29 19 31
  23811282.711    -3893983.086 5  -2968195.881 5
  20607818.430    -1263186.446 7   -927074.041 8
  22896984.305     7274019.388 6   5712363.015 5
  24024718.133    -4545139.573 5  -3485577.150 5
  23123263.258    -2236372.235 6  -1682248.731 6
  20780185.297   -11209737.550 7  -8699696.368 7
  21695776.672   -16942646.322 6 -13127588.596 6
  24198150.664    -1797100.656 4  -1331885.305 2
 94  2 16 20 16  0.0000000  0  8 27 18 14 28 22 29 19 31
  23796206.820    -3973170.030 5  -3029899.970 4
  20600068.086    -1303927.405 7   -958820.219 8
  22916259.281     7375331.219 6   5791307.173 5
  24014163.523    -4600687.793 5  -3528861.411 5
  23139780.984    -2149544.195 6  -1614590.620 6
  20783101.273   -11194423.580 7  -8687763.421 7
  21686514.094   -16991297.981 6 -13165498.964 6
  24181545.156    -1884349.116 4  -1399871.058 2
 94  2 16 20 16 30.0000000  0  8 27 18 14 28 22 29 19 31
  23781172.039    -4052236.488 5  -3091510.190 4
  20592374.883    -1344350.759 7   -990318.930 8
  22935567.188     7476822.371 5   5870391.049 5
  24003652.453    -4655885.115 5  -3571872.218 5
  23156360.453    -2062438.892 6  -1546716.450 5
  20786078.617   -11178774.120 7  -8675569.048 7
  21677297.781   -17039728.677 6 -13203237.147 6
  24164950.977    -1971570.828 4  -1467835.994 2
 94  2 16 20 17  0.0000000  0  8 27 18 14 28 22 29 19 31
  23766145.133    -4131204.048 5  -3153043.352 4
  20584743.031    -1384464.950 7  -1021576.726 8
  22954912.852     7578499.440 5   5949619.813 5
  23993217.125    -4710747.634 5  -3614622.163 5
  23172988.547    -1975072.731 6  -1478639.003 5
  20789116.406   -11162799.600 7  -8663121.393 7
  21668131.516   -17087945.481 7 -13240808.659 6
  24148353.062    -2058772.536 3  -1535785.272 2
 94  2 16 20 17 30.0000000  0  8 27 18 14 28 22 29 19 31
  23751133.148    -4210048.383 5  -3214480.483 3
  20577168.086    -1424251.590 7  -1052579.289 8
  22974308.609     7680371.378 5   6029000.396 5
  23982844.945    -4765257.323 5  -3657097.183 5
  23189655.750    -1887440.583 6  -1410354.290 5
  20792225.602   -11146467.962 7  -8650395.465 7
  21658994.430   -17135930.968 6 -13278199.922 6
  24131771.141    -2145920.130 3  -1603692.446 2
 94  2 16 20 18  0.0000000  0  8 27 18 14 28 22 29 19 31
  23736150.781    -4288777.100 5  -3275827.519 3
  20569662.867    -1463708.162 7  -1083324.651 8
  22993728.859     7782439.136 5   6108533.572 5
  23972534.273    -4819426.366 5  -3699306.759 5
  23206384.414    -1799547.716 6  -1341866.420 5
  20795400.742   -11129779.171 7  -8637391.232 7
  21649904.609   -17183696.968 6 -13315420.158 6
  24115210.109    -2232991.908 3  -1671540.507 2
 94  2 16 20 18 30.0000000  0  8 27 18 14 28 22 29 19 31
  23721194.391    -4367395.292 5  -3337088.411 4
  20562213.672    -1502853.338 7  -1113827.381 8
  23013187.016     7884693.894 5   6188212.465 5
  23962286.047    -4873273.388 5  -3741265.390 5
  23223156.547    -1711398.821 6  -1273179.063 5
  20798648.297   -11112724.704 7  -8624102.051 7
  21640854.805   -17231244.172 6 -13352469.899 6
  24098648.305    -2319974.646 4  -1739319.209 1
 94  2 16 20 19  0.0000000  0  8 27 18 14 28 22 29 19 31
  23706260.570    -4445897.446 5  -3398258.919 4
  20554820.586    -1541682.780 7  -1144084.077 8
  23032668.977     7987132.145 5   6268034.347 5
  23952090.945    -4926809.473 5  -3782981.722 5
  23239977.500    -1623000.033 6  -1204296.984 6
  20801962.281   -11095291.650 7  -8610517.887 7
  21631849.523   -17278570.309 6 -13389347.374 6
  24082107.586    -2406869.312 4  -1807029.275 2
 94  2 16 20 19 30.0000000  0  8 27 18 14 28 22 29 19 31
  23691347.688    -4524286.378 5  -3459341.166 4
  20547494.617    -1580197.424 7  -1174095.480 8
  23052207.766     8089731.704 5   6347981.913 5
  23941969.539    -4980039.502 5  -3824459.590 4
  23256847.086    -1534366.305 6  -1135231.854 6
  20805348.023   -11077492.481 7  -8596648.409 7
  21622881.008   -17325693.874 6 -13426067.009 6
  24065591.258    -2493685.653 4  -1874678.356 1
 94  2 16 20 20  0.0000000  0  8 27 18 14 28 22 29 19 31
  23676432.180    -4602568.315 5  -3520340.050 4
  20540228.578    -1618384.676 7  -1203851.767 7
  23071755.625     8192501.085 5   6428061.824 5
  23931908.797    -5032954.617 5  -3865692.068 5
  23273767.188    -1445479.747 6  -1065969.718 6
  20808805.859   -11059330.298 7  -8582496.087 7
  21613951.914   -17372610.131 6 -13462625.105 6
  24049094.625    -2580399.834 4  -1942247.777 1
 94  2 16 20 20 30.0000000  0  8 27 18 14 28 22 29 19 31
  23661561.742    -4680754.392 5  -3581264.236 3
  20533022.742    -1656252.349 7  -1233359.050 7
  23091345.531     8295413.703 5   6508253.344 5
  23921895.000    -5085552.830 5  -3906677.602 5
  23290722.133    -1356350.968 6   -996518.833 5
  20812329.320   -11040818.900 7  -8568071.639 7
  21605062.969   -17419321.339 6 -13499023.413 6
  24032607.727    -2667030.214 3  -2009751.920 2
 94  2 16 20 21  0.0000000  0  8 27 18 14 28 22 29 19 31
  23646692.836    -4758840.463 5  -3642110.468 3
  20525880.617    -1693773.163 7  -1262596.047 7
  23110952.828     8398467.877 5   6588555.147 5
  23911939.000    -5137811.362 5  -3947398.457 5
  23307730.375    -1266983.274 6   -926881.772 5
  20815918.953   -11021954.031 7  -8553371.761 7
  21596210.453   -17465833.585 6 -13535266.699 6
  24016151.492    -2753571.654 5  -2077186.705 1
 94  2 16 20 21 30.0000000  0  8 27 18 14 28 22 29 19 31
  23631861.797    -4836825.837 5  -3702878.250 2
  20518806.242    -1730956.906 7  -1291570.373 7
  23130585.039     8501650.643 5   6668957.160 5
  23902066.172    -5189716.537 5  -3987843.972 5
  23324780.906    -1177380.408 6   -857061.455 5
  20819574.766   -11002745.352 7  -8538403.981 7
  21587403.234   -17512143.988 7 -13571352.706 6
  23999692.563    -2840017.536 4  -2144547.085 2
 94  2 16 20 22  0.0000000  0  8 27 18 14 28 22 29 19 31
  23617039.125    -4914710.721 5  -3763567.755 5
  20511793.586    -1767815.698 7  -1320291.504 7
  23150240.898     8604957.246 5   6749455.680 5
  23892257.578    -5241254.304 5  -4028003.192 5
  23341871.672    -1087542.374 6   -787057.886 5
  20823298.094   -10983186.520 7  -8523163.358 7
  21578631.180   -17558233.074 6 -13607266.253 6
  23983259.453    -2926364.027 5  -2211830.011 2
 94  2 16 20 22 30.0000000  0  8 27 18 14 28 22 29 19 31
  23602239.641    -4992480.002 5  -3824167.139 4
  20504839.234    -1804343.702 7  -1348754.878 7
  23169930.078     8708398.633 5   6830059.209 5
  23882530.109    -5292408.082 5  -4067863.200 4
  23359013.664     -997471.010 6   -716872.507 5
  20827090.984   -10963252.445 7  -8507630.333 7
  21569906.031   -17604100.233 6 -13643006.876 6
  23966853.047    -3012613.948 5  -2279037.629 2
 94  2 16 20 23  0.0000000  0  8 27 18 14 28 22 29 19 31
  23587464.555    -5070135.101 5  -3884677.555 4
  20497953.641    -1840548.704 7  -1376966.567 8
  23189646.125     8811990.220 5   6910779.795 4
  23872868.813    -5343176.999 5  -4107423.313 5
  23376196.680     -907172.778 6   -646510.358 5
  20830953.664   -10942939.381 7  -8491801.997 7
  21561213.258   -17649757.269 6 -13678583.764 6
  23950452.516    -3098769.831 5  -2346172.065 2
 94  2 16 20 23 30.0000000  0  8 27 18 14 28 22 29 19 31
  23572712.469    -5147684.706 5  -3945105.809 4
  20491121.969    -1876448.047 7  -1404940.080 7
  23209391.180     8915740.474 5   6991624.008 5
  23863286.750    -5393561.161 5  -4146683.608 5
  23393428.719     -816641.739 6   -575966.786 5
  20834891.258   -10922259.945 7  -8475688.185 7
  21552564.000   -17695210.748 6 -13714002.037 6
  23934074.961    -3184835.323 5  -2413235.937 1
 94  2 16 20 24  0.0000000  0  8 27 18 14 28 22 29 19 31
  23557961.508    -5225123.099 5  -4005447.383 4
  20484350.023    -1912016.136 7  -1432655.469 7
  23229162.469     9019660.956 5   7072600.851 5
  23853763.000    -5443557.105 5  -4185641.380 4
  23410696.383     -725871.427 6   -505236.791 5
  20838897.008   -10901204.395 7  -8459281.280 7
  21543956.539   -17740465.417 7 -13749265.387 6
  23917719.094    -3270803.273 5  -2480223.876 4
 94  2 16 20 24 30.0000000  0  8 27 18 14 28 22 29 19 31
  23543260.234    -5302452.534 5  -4065704.026 4
  20477648.250    -1947247.836 7  -1460108.745 7
  23248973.977     9123756.031 5   7153713.751 5
  23844322.477    -5493185.327 5  -4224312.620 5
  23428020.586     -634862.965 6   -434321.214 5
  20842974.875   -10879775.321 7  -8442583.323 7
  21535376.313   -17785530.606 6 -13784381.104 6
  23901371.680    -3356671.867 5  -2547134.319 3
 94  2 16 20 25  0.0000000  0  8 27 18 14 28 22 29 19 31
  23528557.383    -5379677.669 5  -4125879.400 4
  20471005.133    -1982156.168 7  -1487310.046 7
  23268805.727     9228012.610 5   7234952.495 4
  23834948.156    -5542462.280 5  -4262710.129 5
  23445380.219     -543623.261 6   -363225.444 5
  20847118.469   -10857993.130 7  -8425610.220 7
  21526841.750   -17830397.753 7 -13819342.502 6
  23885055.000    -3442445.502 5  -2613970.834 2
 94  2 16 20 25 30.0000000  0  8 27 18 14 28 22 29 19 31
  23513894.727    -5456779.179 5  -4185958.482 4
  20464425.492    -2016713.448 7  -1514237.796 7
  23288680.617     9332412.547 5   7316302.959 4
  23825631.547    -5591392.744 5  -4300837.667 5
  23462792.445     -452131.481 6   -291933.246 5
  20851333.898   -10835851.487 7  -8408357.015 7
  21518339.727   -17875047.457 6 -13854134.455 6
  23868751.719    -3528104.046 5  -2680717.632 3
 94  2 16 20 26  0.0000000  0  8 27 18 14 28 22 29 19 31
  23499235.188    -5533747.903 5  -4245934.052 5
  20457921.281    -2050903.148 7  -1540879.138 7
  23308575.930     9436931.986 5   7397746.536 5
  23816379.625    -5639998.691 5  -4338712.343 5
  23480244.859     -360402.220 6   -220456.002 5
  20855614.570   -10813347.941 7  -8390821.817 7
  21509886.500   -17919478.595 6 -13888756.101 6
  23852469.727    -3613655.669 5  -2747381.155 2
 94  2 16 20 26 30.0000000  0  8 27 18 14 28 22 29 19 31
  23484630.680    -5610568.274 5  -4305794.055 5
  20451488.352    -2084714.001 7  -1567225.243 7
  23328490.109     9541585.390 5   7479294.468 4
  23807197.148    -5688259.554 5  -4376318.151 5
  23497743.656     -268428.323 5   -148788.120 5
  20859967.891   -10790475.018 7  -8372998.777 7
  21501475.664   -17963680.850 6 -13923199.382 6
  23836214.602    -3699084.566 5  -2813948.963 2
 94  2 16 20 27  0.0000000  0  8 27 18 14 28 22 29 19 31
  23470024.875    -5687254.565 5  -4365549.573 5
  20445126.484    -2118140.003 7  -1593271.485 8
  23348423.648     9646349.465 5   7560928.657 5
  23798081.578    -5736167.216 5  -4413648.702 5
  23515299.156     -176228.905 5    -76944.523 5
  20864389.508   -10767251.006 7  -8354902.188 7
  21493104.344   -18007670.791 6 -13957477.232 7
  23819984.773    -3784398.992 5  -2880427.677 2
 94  2 16 20 27 30.0000000  0  8 27 18 14 28 22 29 19 31
  23455464.938    -5763822.024 5  -4425212.480 4
  20438842.023    -2151173.029 7  -1619011.499 8
  23368376.563     9751215.445 5   7642642.251 5
  23789035.391    -5783705.990 5  -4450691.836 5
  23532875.211      -83824.287 5     -4941.017 5
  20868872.453   -10743680.226 7  -8336535.367 7
  21484772.008   -18051466.285 7 -13991603.563 6
  23803768.859    -3869590.893 5  -2946810.844 4
 94  2 16 20 28  0.0000000  0  8 27 18 14 28 22 29 19 31
  23440899.875    -5840286.256 5  -4484794.980 5
  20432626.609    -2183833.027 7  -1644460.845 7
  23388351.664     9856204.980 5   7724452.120 5
  23780063.992    -5830849.276 5  -4487426.810 5
  23550493.438        8772.008 5     67211.832 5
  20873426.148   -10719753.825 7  -8317891.444 8
  21476471.414   -18095068.508 6 -14025579.305 7
  23787588.969    -3954648.110 5  -3013089.125 2
 94  2 16 20 28 30.0000000  0  8 27 18 14 28 22 29 19 31
  23426378.656    -5916671.281 5  -4544315.733 5
  20426476.484    -2216147.146 7  -1669640.684 7
  23408352.664     9961322.988 5   7806362.110 5
  23771176.055    -5877588.323 5  -4523846.792 5
  23568157.180      101559.764 5    139513.891 5
  20878048.617   -10695474.980 7  -8298972.899 7
  21468215.641   -18138480.563 7 -14059406.864 7
  23771419.367    -4039556.318 5  -3079251.223 3
 94  2 16 20 29  0.0000000  0  8 27 18 14 28 22 29 19 31
  23411854.203    -5992973.723 5  -4603772.142 4
  20420390.734    -2248121.951 7  -1694556.118 7
  23428374.148    10066569.480 5   7888372.204 5
  23762359.188    -5923912.733 5  -4559943.693 5
  23585846.266      194542.585 5    211967.922 5
  20882738.367   -10670824.978 7  -8279765.144 8
  21459989.680   -18181682.923 7 -14093071.020 7
  23755307.820    -4124296.619 5  -3145282.579 2
 94  2 16 20 29 30.0000000  0  8 27 18 14 28 22 29 19 31
  23397358.266    -6069173.481 5  -4663148.547 4
  20414369.711    -2279768.542 7  -1719215.791 7
  23448435.672    10171951.130 5   7970487.612 5
  23753619.563    -5969819.432 5  -4595715.118 5
  23603582.867      287725.715 6    284578.056 5
  20887503.430   -10645788.615 7  -8260256.309 8
  21451810.617   -18224672.955 7 -14126569.716 6
  23739208.367    -4208851.258 5  -3211169.220 3
 94  2 16 20 30  0.0000000  0  8 27 18 14 28 22 29 19 31
  23382873.266    -6145273.260 5  -4722447.025 5
  20408409.281    -2311100.840 7  -1743630.570 7
  23468521.875    10277446.903 5   8052691.950 3
  23744953.148    -6015341.705 5  -4631186.960 5
  23621350.586      381096.206 5    357334.188 5
  20892334.695   -10620381.203 7  -8240458.355 8
  21443668.531   -18267460.982 7 -14159911.013 7
  23723148.219    -4293251.252 5  -3276935.338 2
 94  2 16 20 30 30.0000000  0  8 27 18 14 28 22 29 19 31
  23368418.578    -6221231.445 5  -4781635.185 5
  20402516.195    -2342070.482 7  -1767762.771 7
  23488608.828    10383068.368 5   8134994.249 5
  23736366.477    -6060464.790 5  -4666347.786 5
  23639153.930      474676.152 5    430253.512 5
  20897248.891   -10594579.800 7  -8220353.388 8
  21435568.016   -18310022.578 7 -14193075.885 7
  23707119.242    -4377480.934 5  -3342568.754 3
 94  2 16 20 31  0.0000000  0  8 27 18 14 28 22 29 19 31
  23353987.359    -6297046.766 5  -4840712.004 5
  20396691.828    -2372670.051 7  -1791606.580 7
  23508732.414    10488794.423 5   8217378.015 4
  23727860.977    -6105195.199 5  -4701202.648 5
  23657003.875      568447.188 5    503321.741 5
  20902227.508   -10568392.811 7  -8199947.977 8
  21427509.734   -18352377.002 7 -14226079.321 7
  23691110.344    -4461568.679 5  -3408091.552 3
 94  2 16 20 31 30.0000000  0  8 27 18 14 28 22 29 19 31
  23339592.875    -6372712.883 5  -4899672.605 5
  20390943.438    -2402873.700 7  -1815141.884 7
  23528880.398    10594623.525 5   8299842.084 4
  23719417.859    -6149536.982 5  -4735754.630 5
  23674882.039      662409.887 5    576539.314 5
  20907289.648   -10541812.692 7  -8179236.227 8
  21419488.539   -18394532.608 7 -14258927.837 7
  23675148.758    -4545526.777 5  -3473513.336 3
 94  2 16 20 32  0.0000000  0  8 27 18 14 28 22 29 19 31
  23325206.633    -6448253.766 5  -4958535.554 5
  20385271.953    -2432682.199 7  -1838369.291 7
  23549037.250    10700557.100 5   8382387.559 4
  23711059.109    -6193493.144 5  -4770006.151 5
  23692796.633      756565.679 5    649907.382 5
  20912423.336   -10514833.782 7  -8158213.726 7
  21411508.797   -18436477.039 7 -14291611.811 6
  23659189.711    -4629363.345 5  -3538840.423 3
 94  2 16 20 32 30.0000000  0  8 27 18 14 28 22 29 19 31
  23310864.398    -6523685.817 5  -5017313.734 5
  20379674.750    -2462098.951 7  -1861291.434 7
  23569214.430    10806597.251 5   8465016.078 4
  23702770.016    -6237053.255 5  -4803949.062 5
  23710755.305      850914.430 5    723425.816 5
  20917633.383   -10487450.002 7  -8136875.735 7
  21403560.164   -18478216.968 7 -14324136.420 7
  23643265.023    -4713056.522 5  -3604055.748 3
 94  2 16 20 33  0.0000000  0  8 27 18 14 28 22 29 19 31
  23296527.641    -6599029.426 5  -5076023.007 5
  20374147.109    -2491140.440 7  -1883921.161 7
  23589404.102    10912733.420 5   8547719.441 3
  23694548.813    -6280212.696 5  -4837579.744 5
  23728743.820      945448.838 5    797088.903 5
  20922916.680   -10459669.134 7  -8115228.328 7
  21395652.703   -18519768.526 7 -14356514.252 6
  23627366.016    -4796594.398 5  -3669150.058 3
 94  2 16 20 33 30.0000000  0  8 27 18 14 28 22 29 19 31
  23282196.891    -6674299.325 5  -5134674.806 5
  20368688.320    -2519826.304 7  -1906273.779 7
  23609623.422    11018948.129 5   8630483.996 4
  23686409.750    -6322987.751 5  -4870910.931 5
  23746760.898     1040154.790 5    870885.687 4
  20928279.789   -10431515.520 7  -8093290.481 7
  21387787.867   -18561137.411 7 -14388749.743 6
  23611498.383    -4879959.448 5  -3734109.714 3
 94  2 16 20 34  0.0000000  0  8 27 18 14 28 22 29 19 31
  23267891.477    -6749489.832 5  -5193264.748 5
  20363296.891    -2548152.493 7  -1928346.130 7
  23629852.102    11125247.239 5   8713314.308 3
  23678354.547    -6365353.245 5  -4903922.946 5
  23764820.820     1135042.149 6    944823.822 3
  20933699.125   -10403002.368 7  -8071072.468 7
  21379947.773   -18602312.743 7 -14420834.418 7
  23595676.484    -4963112.794 5  -3798904.400 3
 94  2 16 20 34 30.0000000  0  8 27 18 14 28 22 29 19 31
  23253601.703    -6824590.291 5  -5251784.538 5
  20357976.531    -2576110.205 7  -1950131.357 7
  23650092.648    11231606.083 5   8796191.160 4
  23670369.867    -6407293.926 5  -4936603.960 5
  23782909.602     1230098.985 6   1018894.045 3
  20939193.594   -10374148.358 7  -8048588.848 7
  21372148.180   -18643315.717 7 -14452784.789 7
  23579903.242    -5046051.453 5  -3863531.815 2
 94  2 16 20 35  0.0000000  0  8 27 18 14 28 22 29 19 31
  23239334.836    -6899567.891 5  -5310208.584 5
  20352731.148    -2603686.950 7  -1971619.729 7
  23670338.727    11338038.609 5   8879125.434 5
  23662472.031    -6448795.856 5  -4968943.120 5
  23801034.945     1325336.299 6   1093104.870 4
  20944750.859   -10344945.977 7  -8025833.786 7
  21364381.672   -18684115.704 7 -14484576.986 7
  23564152.867    -5128761.698 5  -3927981.191 3
 94  2 16 20 35 30.0000000  0  8 27 18 14 28 22 29 19 31
  23225093.953    -6974420.183 5  -5368534.978 5
  20347552.445    -2630886.268 7  -1992813.999 7
  23690607.273    11444546.654 5   8962118.539 3
  23654652.328    -6489865.502 5  -5000945.417 5
  23819188.305     1420752.849 5   1167455.370 4
  20950371.227   -10315400.500 7  -8002811.356 7
  21356656.391   -18724691.523 7 -14516194.508 7
  23548446.414    -5211259.694 5  -3992265.237 2
 94  2 16 20 36  0.0000000  0  8 27 18 14 28 22 29 19 31
  23210867.836    -7049148.608 5  -5426764.877 5
  20342451.195    -2657699.978 7  -2013707.797 7
  23710894.625    11551133.118 5   9045172.774 4
  23646926.906    -6530491.598 5  -5032602.079 5
  23837375.961     1516352.919 5   1241948.847 4
  20956061.617   -10285491.451 7  -7979505.627 7
  21348983.516   -18765028.845 7 -14547626.177 7
  23532807.234    -5293557.648 5  -4056393.359 3
 94  2 16 20 36 30.0000000  0  8 27 18 14 28 22 29 19 31
  23196676.664    -7123750.661 5  -5484896.272 5
  20337422.492    -2684133.333 7  -2034305.224 7
  23731197.797    11657805.792 5   9128294.177 2
  23639270.680    -6570694.787 5  -5063929.242 5
  23855606.578     1612134.733 5   1316583.943 5
  20961825.820   -10255203.817 7  -7955904.922 7
  21341360.398   -18805109.699 7 -14578857.993 7
  23517165.930    -5375679.248 5  -4120384.094 3
 94  2 16 20 37  0.0000000  0  8 27 18 14 28 22 29 19 31
  23182500.055    -7198235.525 5  -5542936.391 5
  20332463.055    -2710192.481 7  -2054611.054 7
  23751512.266    11764573.799 5   9211489.871 2
  23631700.883    -6610497.236 5  -5094944.128 4
  23873868.984     1708097.872 5   1391360.328 5
  20967661.773   -10224527.369 7  -7932001.214 7
  21333782.789   -18844929.075 7 -14609886.074 7
  23501574.383    -5457625.608 5  -4184238.275 4
 94  2 16 20 37 30.0000000  0  8 27 18 14 28 22 29 19 31
  23168348.555    -7272615.896 5  -5600895.052 5
  20327574.656    -2735873.776 7  -2074622.449 7
  23771832.227    11871412.060 5   9294740.334 2
  23624206.523    -6649890.528 5  -5125640.192 5
  23892161.273     1804233.895 5   1466271.395 5
  20973577.570   -10193456.485 7  -7907790.167 7
  21326250.680   -18884512.590 7 -14640730.358 7
  23486008.539    -5539412.067 5  -4247967.839 4
 94  2 16 20 38  0.0000000  0  8 27 18 14 28 22 29 19 31
  23154204.047    -7346901.036 5  -5658779.515 5
  20322763.367    -2761166.244 7  -2094330.874 7
  23792182.523    11978318.926 5   9378044.230 2
  23616789.203    -6688871.146 5  -5156014.682 5
  23910482.898     1900530.444 5   1541307.583 4
  20979565.727   -10161985.475 7  -7883267.329 7
  21318756.570   -18923880.917 7 -14671406.971 7
  23470481.641    -5621030.861 5  -4311566.791 4
 94  2 16 20 38 30.0000000  0  8 27 18 14 28 22 29 19 31
  23140093.688    -7421072.071 5  -5716575.071 5
  20318029.891    -2786047.209 7  -2113718.647 7
  23812540.398    12085310.854 5   9461414.375 2
  23609460.031    -6727415.326 5  -5186049.090 5
  23928848.383     1996990.588 5   1616471.213 5
  20985635.688   -10130100.753 7  -7858422.120 7
  21311302.688   -18963044.283 7 -14701923.871 7
  23454982.422    -5702456.055 5  -4375014.877 4
 94  2 16 20 39  0.0000000  0  8 27 18 14 28 22 29 19 31
  23125995.555    -7495131.459 5  -5774283.651 5
  20313373.359    -2810517.635 7  -2132786.505 7
  23832911.461    12192369.369 5   9544836.423 2
  23602207.758    -6765500.707 5  -5215726.005 5
  23947237.352     2093597.722 5   1691749.388 5
  20991781.547   -10097805.965 7  -7833257.375 7
  21303880.977   -19002036.273 7 -14732307.218 7
  23439528.555    -5783683.421 5  -4438308.850 5
 94  2 16 20 39 30.0000000  0  8 27 18 14 28 22 29 19 31
  23111936.039    -7569076.156 5  -5831902.872 5
  20308794.891    -2834573.464 7  -2151531.311 7
  23853301.938    12299490.889 5   9628307.545 2
  23595050.102    -6803114.869 5  -5245035.737 5
  23965636.656     2190350.649 5   1767141.191 5
  20997999.461   -10065116.294 7  -7807784.926 7
  21296494.297   -19040851.679 7 -14762552.968 7
  23424111.797    -5864702.638 5  -4501440.578 5
 94  2 16 20 40  0.0000000  0  8 27 18 14 28 22 29 19 31
  23097887.164    -7642907.055 5  -5889433.393 5
  20304294.945    -2858222.625 7  -2169959.236 7
  23873700.375    12406686.064 5   9711836.071 2
  23587979.727    -6840276.625 5  -5273992.926 5
  23984074.297     2287242.013 5   1842640.856 5
  21004290.195   -10032052.505 7  -7782020.968 7
  21289146.602   -19079489.042 7 -14792659.984 7
  23408727.422    -5945494.903 5  -4564395.522 5
 94  2 16 20 40 30.0000000  0  8 27 18 14 28 22 29 19 31
  23083856.695    -7716606.709 5  -5946861.664 5
  20299869.000    -2881480.316 7  -2188082.116 7
  23894097.141    12513927.576 5   9795400.740 2
  23580989.195    -6876988.262 5  -5302599.375 5
  24002536.484     2384277.420 5   1918252.790 5
  21010649.922    -9998631.139 7  -7755978.369 7
  21281826.500   -19117948.169 7 -14822628.108 7
  23393412.141    -6026058.420 5  -4627172.214 4
 94  2 16 20 41  0.0000000  0  8 27 18 14 28 22 29 19 31
  23069856.617    -7790174.612 5  -6004187.248 5
  20295515.172    -2904360.564 7  -2205910.886 7
  23914514.711    12621207.407 5   9878995.223 1
  23574089.500    -6913261.567 5  -5330864.291 5
  24021039.305     2481464.787 5   1993983.124 5
  21017079.047    -9964857.919 7  -7729661.612 7
  21274545.992   -19156212.321 7 -14852444.323 7
  23378114.727    -6106386.587 5  -4689765.494 5
 94  2 16 20 41 30.0000000  0  8 27 18 14 28 22 29 19 31
  23055884.617    -7863610.508 5  -6061409.984 5
  20291233.570    -2926850.318 7  -2223435.371 7
  23934946.648    12728526.197 4   9962620.102 1
  23567266.125    -6949105.061 5  -5358794.287 5
  24039560.367     2578816.214 5   2069841.310 4
  21023576.680    -9930724.101 7  -7703063.864 7
  21267304.781   -19194259.184 7 -14882091.208 7
  23362874.633    -6186467.625 5  -4752166.262 5
 94  2 16 20 42  0.0000000  0  8 27 18 14 28 22 29 19 31
  23041928.922    -7936916.653 5  -6118531.617 5
  20287028.852    -2948959.544 7  -2240663.350 7
  23955368.086    12835866.379 4  10046261.606 2
  23560526.461    -6984522.859 5  -5386392.559 5
  24058120.602     2676308.431 5   2145809.185 4
  21030142.250    -9896223.060 7  -7676179.973 7
  21260097.188   -19232113.678 7 -14911588.194 7
  23347681.664    -6266321.392 5  -4814389.924 3
 94  2 16 20 42 30.0000000  0  8 27 18 14 28 22 29 19 31
  23028014.102    -8010089.905 5  -6175549.703 5
  20282894.953    -2970678.708 7  -2257587.381 7
  23975786.938    12943228.138 4  10129919.929 4
  23553876.664    -7019495.568 5  -5413644.000 5
  24076696.500     2773945.768 5   2221890.172 4
  21036777.805    -9861323.671 7  -7648985.672 7
  21252933.914   -19269761.796 7 -14940924.374 7
  23332534.547    -6345944.702 5  -4876434.016 3
 94  2 16 20 43  0.0000000  0  8 27 18 14 28 22 29 19 31
  23014103.477    -8083141.965 5  -6232473.320 5
  20278837.375    -2992000.713 7  -2274201.941 7
  23996235.922    13050625.173 4  10213605.714 2
  23547299.922    -7054026.845 5  -5440551.475 5
  24095296.891     2871709.544 5   2298069.653 3
  21043502.844    -9826009.020 7  -7621467.796 7
  21245810.602   -19307207.091 7 -14970102.505 7
  23317421.039    -6425350.193 5  -4938308.378 5
 94  2 16 20 43 30.0000000  0  8 27 18 14 28 22 29 19 31
  23000226.844    -8156068.051 5  -6289298.783 5
  20274856.242    -3012910.744 7  -2290495.477 7
  24016679.359    13158066.031 4  10297325.665 2
  23540814.055    -7088112.572 5  -5467111.798 5
  24113922.656     2969584.653 5   2374335.882 4
  21050301.875    -9790282.486 7  -7593628.979 7
  21238725.023   -19344454.730 7 -14999126.627 7
  23302359.328    -6504534.023 5  -5000010.046 3
 94  2 16 20 44  0.0000000  0  8 27 18 14 28 22 29 19 31
  22986375.328    -8228872.426 5  -6346029.386 5
  20270953.648    -3033427.957 7  -2306482.925 7
  24037134.109    13265555.034 4  10381083.127 2
  23534415.148    -7121760.233 6  -5493330.751 5
  24132558.117     3067556.743 5   2450677.704 4
  21057172.469    -9754155.571 7  -7565478.169 7
  21231672.281   -19381517.441 7 -15028006.647 7
  23287328.891    -6583490.906 5  -5061534.857 4
 94  2 16 20 44 30.0000000  0  8 27 18 14 28 22 29 19 31
  22972543.086    -8301560.618 5  -6402669.477 5
  20267125.992    -3053537.964 7  -2322153.068 7
  24057595.867    13373099.924 4  10464884.134 2
  23528089.383    -7154977.286 6  -5519214.146 5
  24151235.906     3165637.477 5   2527104.170 4
  21064124.109    -9717626.365 7  -7537013.881 7
  21224657.242   -19418379.269 7 -15056730.135 7
  23272353.336    -6662211.881 6  -5122875.878 4
 94  2 16 20 45  0.0000000  0  8 27 18 14 28 22 29 19 31
  22958732.078    -8374126.119 5  -6459213.956 5
  20263379.719    -3073227.998 7  -2337495.960 7
  24078083.750    13480698.736 5  10548727.177 1
  23521855.156    -7187758.550 5  -5544757.992 5
  24169914.250     3263835.841 5   2603622.298 4
  21071151.094    -9680718.918 7  -7508254.859 7
  21217673.719   -19455046.801 7 -15085302.238 7
  23257413.594    -6740690.589 5  -5184028.035 4
 94  2 16 20 45 30.0000000  0  8 27 18 14 28 22 29 19 31
  22944948.180    -8446573.425 5  -6515666.327 5
  20259713.977    -3092496.418 7  -2352510.312 7
  24098554.211    13588336.513 5  10632600.571 2
  23515701.164    -7220093.294 5  -5569953.876 5
  24188626.148     3362155.879 4   2680235.215 4
  21078241.141    -9643452.713 7  -7479216.295 7
  21210736.383   -19491523.102 7 -15113725.323 7
  23242532.563    -6818911.346 5  -5244979.253 3
 94  2 16 20 46  0.0000000  0  8 27 18 14 28 22 29 19 31
  22931186.063    -8518914.932 5  -6572036.281 5
  20256124.789    -3111349.604 7  -2367201.123 7
  24119046.539    13695998.027 5  10716492.455 1
  23509629.859    -7251970.916 5  -5594793.563 5
  24207365.609     3460605.662 5   2756949.237 4
  21085402.594    -9605824.711 7  -7449895.815 7
  21203830.938   -19527814.855 7 -15142004.605 7
  23227687.984    -6896885.306 5  -5305738.124 3
 94  2 16 20 46 30.0000000  0  8 27 18 14 28 22 29 19 31
  22917434.766    -8591152.658 5  -6628325.360 5
  20252621.266    -3129773.319 7  -2381557.266 7
  24139529.984    13803664.623 4  10800388.330 2
  23503662.758    -7283364.810 6  -5619256.336 5
  24226124.438     3559191.493 5   2833769.251 3
  21092628.492    -9567832.944 7  -7420291.865 7
  21196962.063   -19563915.457 7 -15170134.949 7
  23212894.633    -6974623.812 5  -5366313.530 4
 94  2 16 20 47  0.0000000  0  8 27 18 14 28 22 29 19 31
  22903704.914    -8663286.385 5  -6684533.393 5
  20249189.742    -3147787.945 7  -2395594.641 7
  24160028.188    13911329.149 4  10884282.557 1
  23497780.578    -7314247.548 5  -5643320.748 5
  24244908.141     3657901.583 5   2910686.141 4
  21099927.164    -9529488.901 7  -7390413.430 7
  21190127.484   -19599829.264 7 -15198119.730 7
  23198156.750    -7052108.901 5  -5426691.494 4
 94  2 16 20 47 30.0000000  0  8 27 18 14 28 22 29 19 31
  22889998.000    -8735328.496 5  -6740670.014 5
  20245838.867    -3165403.865 7  -2409321.333 7
  24180510.977    14018989.781 4  10968173.767 2
  23492005.844    -7344632.239 5  -5666997.111 5
  24263721.203     3756726.947 5   2987692.834 4
  21107294.484    -9490764.749 7  -7360238.805 7
  21183330.570   -19635559.660 7 -15225961.598 7
  23183449.984    -7129338.922 5  -5486870.646 5
 94  2 16 20 48  0.0000000  0  8 27 18 14 28 22 29 19 31
  22876309.859    -8807283.514 5  -6796738.822 5
  20242564.430    -3182624.618 7  -2422740.105 7
  24201008.695    14126648.071 3  11052063.086 1
  23486305.063    -7374535.200 5  -5690298.100 5
  24282533.031     3855666.700 5   3064788.629 5
  21114739.047    -9451649.425 7  -7329759.362 7
  21176561.570   -19671106.789 7 -15253660.651 7
  23168809.055    -7206318.246 5  -5546854.505 5
 94  2 16 20 48 30.0000000  0  8 27 18 14 28 22 29 19 31
  22862633.266    -8879133.392 5  -6852725.699 5
  20239362.852    -3199447.359 7  -2435848.741 7
  24221482.727    14234302.892 3  11135949.783 1
  23480711.727    -7403960.750 6  -5713227.029 5
  24301389.000     3954707.478 5   3141963.189 4
  21122256.828    -9412151.416 7  -7298981.720 7
  21169829.914   -19706463.481 7 -15281211.314 7
  23154214.680    -7283028.098 5  -5606628.343 5
 94  2 16 20 49  0.0000000  0  8 27 18 14 28 22 29 19 31
  22848985.484    -8950860.728 6  -6908617.098 5
  20236240.156    -3215861.094 7  -2448638.669 7
  24241982.680    14341961.237 3  11219839.159 1
  23475193.188    -7432935.441 6  -5735804.658 5
  24320258.500     4053844.552 5   3219212.780 5
  21129845.898    -9372260.254 7  -7267897.738 7
  21163144.656   -19741634.120 7 -15308616.998 7
  23139665.719    -7359445.757 5  -5666174.478 5
 94  2 16 20 49 30.0000000  0  8 27 18 14 28 22 29 19 31
  22835355.766    -9022448.885 5  -6964400.043 5
  20233196.219    -3231839.206 7  -2461089.149 7
  24262453.992    14449622.669 3  11303730.961 1
  23469763.070    -7461485.629 5  -5758051.519 5
  24339141.375     4153082.032 5   3296540.617 4
  21137514.891    -9331966.056 7  -7236499.687 7
  21156484.500   -19776607.854 7 -15335869.242 7
  23125183.063    -7435581.406 5  -5725500.917 5
 94  2 16 20 50  0.0000000  0  8 27 18 14 28 22 29 19 31
  22821770.477    -9093877.002 5  -7020058.260 5
  20230239.328    -3247376.965 7  -2473196.492 7
  24282952.172    14557285.851 4  11387624.098 1
  23464418.383    -7489580.456 5  -5779943.566 5
  24358039.344     4252411.888 5   3373940.411 4
  21145254.703    -9291290.956 7  -7204804.835 7
  21149874.359   -19811370.302 7 -15362956.857 7
  23110742.258    -7511427.453 5  -5784601.669 5
 94  2 16 20 50 30.0000000  0  8 27 18 14 28 22 29 19 31
  22808210.844    -9165148.511 5  -7075594.483 5
  20227367.195    -3262473.175 7  -2484959.767 7
  24303439.758    14664939.909 3  11471510.164 1
  23459162.758    -7517209.282 6  -5801472.470 5
  24376957.273     4351828.691 5   3451407.968 4
  21153066.789    -9250238.865 7  -7172816.228 7
  21143295.953   -19845926.208 7 -15389883.527 7
  23096365.203    -7586986.986 5  -5843479.157 5
 94  2 16 20 51  0.0000000  0  8 27 18 14 28 22 29 19 31
  22794665.141    -9236300.246 5  -7131037.352 5
  20224574.141    -3277144.204 7  -2496391.739 7
  24323909.672    14772571.567 3  11555378.789 2
  23453982.344    -7544390.178 6  -5822652.340 6
  24395892.961     4451314.826 5   3528929.544 3
  21160948.617    -9208814.300 7  -7140537.380 7
  21136754.406   -19880293.528 7 -15416663.244 7
  23082036.969    -7662289.028 5  -5902156.035 5
 94  2 16 20 51 30.0000000  0  8 27 18 14 28 22 29 19 31
  22781146.727    -9307358.329 5  -7186407.265 5
  20221861.234    -3291416.985 7  -2507513.386 7
  24344398.313    14880181.597 3  11639230.528 1
  23448903.820    -7571094.164 5  -5843460.625 5
  24414832.711     4550866.587 5   3606502.251 4
  21168897.398    -9167034.605 7  -7107981.804 7
  21130253.945   -19914466.178 7 -15443291.266 7
  23067760.273    -7737339.172 6  -5960636.602 4
 94  2 16 20 52  0.0000000  0  7 27 18 28 22 29 19 31
  22767637.672    -9378340.041 6  -7241717.649 5
  20219219.188    -3305294.931 7  -2518327.370 7
  23443920.805    -7597298.300 5  -5863879.413 5
  24433793.438     4650501.848 5   3684140.032 3
  21176921.750    -9124880.133 7  -7075134.201 7
  21123787.148   -19948441.873 7 -15469765.818 7
  23053530.953    -7812108.537 5  -6018898.364 5
 94  2 16 20 52 30.0000000  0  8 27 18 14 28 22 29 19 31
  22754139.414    -9449247.535 5  -7296970.197 5
  20216655.117    -3318762.644 7  -2528821.683 7
  24385345.023          -0.47513
  23439028.938    -7623016.038 6  -5883919.176 5
  24452772.445     4750238.636 5   3761856.964 2
  21185016.969    -9082329.718 7  -7041978.062 7
  21117362.148   -19982222.639 7 -15496088.489 7
  23039358.187    -7886582.077 6  -6076929.666 5
 94  2 16 20 53  0.0000000  0  8 27 18 14 28 22 29 19 31
  22740666.992    -9520083.564 5  -7352167.059 5
  20214171.258    -3331829.921 7  -2539003.988 7
  24405811.555          -0.54113
  23434225.445    -7648250.887 5  -5903582.668 5
  24471771.063     4850073.535 5   3839650.286 2
  21193189.313    -9039393.070 7  -7008520.975 7
  21110970.422   -20015806.916 7 -15522258.029 7
  23025244.734    -7960761.928 6  -6134732.099 5
 94  2 16 20 53 30.0000000  0  8 27 18 14 28 22 29 19 31
  22727200.016    -9590837.292 5  -7407299.804 5
  20211761.531    -3344484.697 7  -2548864.846 7
  24426303.375       53804.90213
  23429514.586    -7672992.129 5  -5922861.565 5
  24490789.992     4950019.066 5   3917529.857 2
  21201433.609    -8996070.961 7  -6974763.522 7
  21104618.273   -20049192.598 7 -15548272.838 7
  23011188.922    -8034626.226 6  -6192288.648 5
 94  2 16 20 54  0.0000000  0  8 27 18 14 28 22 29 19 31
  22713757.500    -9661492.030 6  -7462355.409 5
  20209438.055    -3356693.210 7  -2558377.977 7
  24446774.609      161408.414 3     41922.77712
  23424898.227    -7697244.268 5  -5941759.328 5
  24509822.617     5050076.326 4   3995496.477 2
  21209750.812    -8952359.079 7  -6940702.352 7
  21098300.383   -20082390.960 7 -15574141.662 7
  22997195.039    -8108171.422 6  -6249596.549 5
 94  2 16 20 54 30.0000000  0  8 27 18 14 28 22 29 19 31
  22700339.500    -9732010.301 6  -7517304.672 5
  20207201.766    -3368426.448 7  -2567520.769 7
  24467266.086      269024.709 3    125779.398 1
  23420385.711    -7720973.968 6  -5960249.987 5
  24528885.539     5150257.691 5   4073559.790 1
  21218144.133    -8908251.334 7  -6906332.706 7
  21092025.250   -20115375.636 7 -15599843.991 7
  22983257.969    -8181389.812 6  -6306649.796 5
 94  2 16 20 55  0.0000000  0  8 27 18 14 28 22 29 19 31
  22686956.531    -9802323.077 6  -7572093.802 5
  20205074.867    -3379626.448 7  -2576248.041 7
  24487762.188      376682.740 3    209668.544 1
  23415979.289    -7744105.781 5  -5978274.774 5
  24547985.961     5250607.780 5   4151754.570 2
  21226625.461    -8863695.436 7  -6871613.857 7
  21085800.281   -20148081.256 7 -15625328.868 7
  22969399.680    -8254210.897 6  -6363393.438 5
 94  2 16 20 55 30.0000000  0  8 27 18 14 28 22 29 19 31
  22673582.961    -9872596.585 6  -7626852.345 5
  20203015.570    -3390449.063 7  -2584681.244 7
  24508195.789      484203.609 3    293450.744 1
  23411663.352    -7766817.699 5  -5995972.376 5
  24567085.625     5350941.591 4   4229936.723 2
  21235155.070    -8818859.914 7  -6836677.126 7
  21079589.016   -20180696.516 7 -15650743.330 7
  22955588.563    -8326792.834 6  -6419950.733 5
 94  2 16 20 56  0.0000000  0  8 27 18 14 28 22 29 19 31
  22660230.148    -9942782.990 6  -7681543.019 5
  20201031.766    -3400868.926 7  -2592800.621 7
  24528620.820      591626.714 2    377156.810 1
  23407431.352    -7789078.405 6  -6013318.377 5
  24586173.195     5451280.530 4   4308122.812 1
  21243747.234    -8773710.860 7  -6801496.089 7
  21073407.406   -20213187.928 7 -15676061.290 7
  22941827.133    -8399114.557 6  -6476305.268 5
 94  2 16 20 56 30.0000000  0  8 27 18 14 28 22 29 19 31
  22646904.531   -10012781.660 6  -7736087.410 5
  20199141.328    -3410805.693 7  -2600543.556 7
  24549085.133      699044.514 2    460858.741 1
  23403292.234    -7810797.889 6  -6030242.630 5
  24605283.125     5551712.849 4   4386381.688 1
  21252417.891    -8728142.707 7  -6765988.463 7
  21067270.039   -20245449.912 7 -15701200.467 7
  22928127.883    -8471086.207 6  -6532387.014 5
 94  2 16 20 57  0.0000000  0  8 27 18 14 28 22 29 19 31
  22633616.180   -10082620.539 6  -7790507.297 5
  20197337.852    -3420289.120 7  -2607933.242 7
  24569540.203      806418.524 2    544526.473 1
  23399255.266    -7832015.645 5  -6046775.941 5
  24624398.664     5652199.618 3   4464683.013 1
  21261168.430    -8682165.656 7  -6730162.236 7
  21061162.148   -20277515.201 7 -15726186.388 7
  22914499.352    -8542732.044 6  -6588214.844 5
 94  2 16 20 57 30.0000000  0  8 27 18 14 28 22 29 19 31
  22620359.344   -10152304.790 6  -7844806.718 5
  20195616.102    -3429326.955 7  -2614975.713 7
  24589944.422      913784.815 3    628188.248 2
  23395306.141    -7852730.002 6  -6062917.001 5
  24643541.227     5752753.587 3   4543036.668 1
  21269996.086    -8635761.770 7  -6694003.404 7
  21055108.453   -20309373.081 7 -15751010.685 7
  22900921.289    -8614066.202 6  -6643799.845 5
 94  2 16 20 58  0.0000000  0  8 27 18 14 28 22 29 19 31
  22607128.750   -10221827.426 6  -7898980.179 5
  20193982.977    -3437914.452 7  -2621667.264 7
  24610385.477     1021161.548 3    711858.128 1
  23391468.242    -7872923.051 6  -6078651.836 5
  24662695.594     5853387.055 3   4621452.280 1
  21278913.109    -8588915.639 7  -6657499.970 7
  21049089.125   -20340988.268 7 -15775645.872 7
  22887407.820    -8685071.051 6  -6699128.221 5
 94  2 16 20 58 30.0000000  0  8 27 18 14 28 22 29 19 31
  22593922.609   -10291214.092 6  -7953047.683 6
  20192430.750    -3446051.571 7  -2628007.879 7
  24630824.336     1128535.234 4    795525.619 1
  23387725.648    -7892609.823 6  -6093992.164 5
  24681854.594     5954094.954 3   4699925.882 1
  21287906.781    -8541635.803 7  -6620658.578 7
  21043119.758   -20372360.191 7 -15800091.503 7
  22873960.570    -8755728.753 6  -6754186.079 5
 94  2 16 20 59  0.0000000  0  7 27 18 14 28 29 19 31
  22580742.961   -10360477.021 6  -8007018.799 5
  20190974.500    -3453729.723 7  -2633990.858 7
  24651256.914     1235904.242 3    879189.505 1
  23384068.898    -7911798.595 6  -6108944.451 5
  21296986.953    -8493934.462 7  -6583488.737 7
  21037195.664   -20403495.480 7 -15824352.747 7
  22860593.266    -8826024.594 6  -6808961.981 5
 94  2 16 20 59 30.0000000  0  7 27 18 14 28 29 19 31
  22567581.453   -10429631.739 6  -8060905.560 5
  20189598.758    -3460953.897 7  -2639620.092 7
  24671669.664     1343259.266 4    962842.490 1
  23380512.461    -7930501.114 6  -6123517.839 5
  21306136.984    -8445847.232 7  -6546018.218 7
  21031315.844   -20434401.766 7 -15848435.546 7
  22847274.758    -8895958.077 6  -6863455.512 5
 94  2 16 21  0  0.0000000  0  7 27 18 14 28 29 19 31
  22554445.234   -10498674.769 6  -8114705.304 5
  20188314.500    -3467702.314 7  -2644878.605 7
  24692104.914     1450571.315 4   1046461.969 2
  23377050.547    -7948710.204 6  -6137706.716 5
  21315359.063    -8397386.982 7  -6508257.032 7
  21025478.555   -20465082.487 7 -15872342.600 7
  22834042.883    -8965512.937 6  -6917654.040 5
 94  2 16 21  0 30.0000000  0  7 27 18 14 28 29 19 31
  22541336.773   -10567587.221 6  -8168403.282 5
  20187126.234    -3473960.952 7  -2649755.476 7
  24712523.078     1557843.626 4   1130050.486 1
  23373677.328    -7966400.997 5  -6151491.745 5
  21324654.430    -8348542.759 7  -6470196.641 7
  21019678.375   -20495540.701 7 -15896076.256 7
  22820883.109    -9034690.004 6  -6971558.157 5
 94  2 16 21  1  0.0000000  0  7 27 18 14 28 29 19 31
  22528242.102   -10636376.344 6  -8222005.140 5
  20186023.578    -3479753.339 7  -2654269.032 7
  24732917.242     1665046.933 3   1213585.205 2
  23370409.867    -7983570.926 5  -6164870.923 5
  21334021.781    -8299334.457 7  -6431852.548 7
  21013917.359   -20525807.503 7 -15919660.761 7
  22807775.633    -9103520.013 6  -7025191.854 5
 94  2 16 21  1 30.0000000  0  6 27 18 28 29 19 31
  22515177.297   -10705040.324 6  -8275509.474 5
  20185005.258    -3485094.742 7  -2658431.186 7
  23367253.898    -8000202.476 5  -6177830.567 6
  21343450.383    -8249768.504 7  -6393229.769 7
  21008196.117   -20555888.981 7 -15943100.868 7
  22794750.953    -9172007.039 6  -7078558.280 5
 94  2 16 21  2  0.0000000  0  6 27 18 28 29 19 31
  22502139.562   -10773563.675 6  -8328904.231 6
  20184074.469    -3489982.786 7  -2662240.067 7
  23364191.227    -8016283.795 5  -6190361.474 6
  21352953.422    -8199821.829 7  -6354310.341 7
  21002502.242   -20585797.862 7 -15966406.481 7
  22781782.180    -9240144.049 6  -7131651.958 5
 94  2 16 21  2 30.0000000  0  6 27 18 28 29 19 31
  22489122.289   -10841941.795 6  -8382185.803 5
  20183226.867    -3494430.608 7  -2665705.914 7
  23361236.391    -8031818.705 5  -6202466.584 5
  21362534.313    -8149492.039 7  -6315092.357 7
  20996841.633   -20615546.540 7 -15989587.276 7
  22768882.781    -9307921.885 6  -7184465.767 5
 94  2 16 21  3  0.0000000  0  6 27 18 28 29 19 31
  22476136.891   -10910183.224 6  -8435360.855 6
  20182463.273    -3498446.417 7  -2668835.137 7
  23358377.273    -8046816.379 5  -6214153.063 6
  21372183.117    -8098770.583 7  -6275569.200 7
  20991215.625   -20645134.544 7 -16012642.867 7
  22756053.586    -9375334.982 6  -7236995.400 5
 94  2 16 21  3 30.0000000  0  6 27 18 28 29 19 31
  22463181.609   -10978268.221 6  -8488414.019 6
  20181788.078    -3502001.609 7  -2671605.428 7
  23355628.672    -8061267.383 5  -6225413.563 5
  21381920.031    -8047614.865 7  -6235707.651 7
  20985619.984   -20674527.129 7 -16035546.180 7
  22743304.078    -9442350.219 6  -7289214.982 5
 94  2 16 21  4  0.0000000  0  6 27 18 28 29 19 31
  22450246.344   -11046202.959 6  -8541350.106 5
  20181200.344    -3505088.739 7  -2674010.994 7
  23352975.625    -8075185.632 5  -6236258.928 5
  21391742.117    -7996015.746 7  -6195500.593 7
  20980064.953   -20703709.207 7 -16058285.454 7
  22730623.047    -9508970.002 6  -7341126.417 5
 94  2 16 21  4 30.0000000  0  6 27 18 28 29 19 31
  22437350.008   -11114010.475 6  -8594187.046 6
  20180700.008    -3507713.562 7  -2676056.330 7
  23350428.445    -8088570.634 5  -6246688.768 5
  21401635.219    -7943989.482 7  -6154960.692 7
  20974557.273   -20732661.812 7 -16080845.917 7
  22718032.461    -9575197.209 6  -7392731.957 5
 94  2 16 21  5  0.0000000  0  6 27 18 28 29 19 31
  22424473.047   -11181694.499 6  -8646927.757 6
  20180293.063    -3509854.178 7  -2677724.356 7
  23347987.594    -8101425.638 5  -6256705.616 5
  21411621.391    -7891532.552 7  -6114085.210 7
  20969090.805   -20761359.605 7 -16103207.830 7
  22705495.125    -9641028.412 6  -7444028.932 5
 94  2 16 21  5 30.0000000  0  6 27 18 28 29 19 31
  22411611.789   -11249265.023 6  -8699580.033 6
  20179978.898    -3511508.531 7  -2679013.466 7
  23345634.578    -8113767.139 5  -6266322.333 5
  21421675.664    -7838696.491 7  -6072914.302 7
  20963681.242   -20789817.415 7 -16125382.736 7
  22693045.711    -9706466.438 6  -7495019.502 5
 94  2 16 21  6  0.0000000  0  6 27 18 28 29 19 31
  22398770.063   -11316724.871 6  -8752146.072 6
  20179752.109    -3512678.707 7  -2679925.305 7
  23343390.648    -8125590.175 5  -6275535.059 5
  21431796.031    -7785511.732 7  -6031471.695 7
  20958308.023   -20818056.622 7 -16147387.305 7
  22680664.141    -9771501.361 6  -7545695.979 5
 94  2 16 21  6 30.0000000  0  6 27 18 28 29 19 31
  22385955.250   -11384082.652 6  -8804632.592 6
  20179628.516    -3513359.405 7  -2680455.728 7
  23341234.164    -8136897.332 5  -6284345.816 6
  21441984.164    -7731984.208 7  -5989762.004 7
  20952969.531   -20846108.873 7 -16169246.184 7
  22668369.672    -9836133.186 6  -7596058.349 5
 94  2 16 21  7  0.0000000  0  7 27 18  2 28 29 19 31
  22373167.352   -11451312.473 6  -8857019.408 6
  20179588.547    -3513538.245 7  -2680595.104 7
  24796794.422      -50944.54513
  23339176.891    -8147684.061 5  -6292751.030 6
  21452231.625    -7678103.659 7  -5947777.199 7
  20947665.297   -20873980.952 7 -16190964.670 7
  22656145.469    -9900358.788 6  -7646104.196 5
 94  2 16 21  7 30.0000000  0  7 27 18  2 28 29 19 31
  22360392.805   -11518399.810 6  -8909295.184 6
  20179650.398    -3513225.826 7  -2680351.648 7
  24777428.945     -152728.807 4
  23337238.477    -8157933.599 5  -6300737.664 6
  21462556.328    -7623855.093 7  -5905505.651 6
  20942394.461   -20901682.612 7 -16212550.360 7
  22644004.539    -9964169.884 6  -7695827.054 5
 94  2 16 21  8  0.0000000  0  7 27 18  2 28 29 19 31
  22347655.328   -11585353.338 6  -8961466.717 6
  20179803.938    -3512433.045 7  -2679733.900 7
  24758088.664     -254379.138 5    -39591.30111
  23335390.773    -8167639.032 5  -6308300.317 6
  21472957.906    -7569208.943 7  -5862924.292 7
  20937154.070   -20929208.361 7 -16233998.983 7
  22631934.961   -10027586.779 6  -7745242.711 5
 94  2 16 21  8 30.0000000  0  7 27 18  2 28 29 19 31
  22334943.461   -11652157.618 6  -9013521.944 6
  20180045.633    -3511151.387 7  -2678735.217 7
  24738763.273     -355887.042 4   -118688.286 1
  23333642.750    -8176792.190 5  -6315432.620 6
  21483434.414    -7514147.719 7  -5820019.497 7
  20931954.172   -20956526.750 7 -16255286.018 7
  22619946.641   -10090624.343 6  -7794362.807 5
 94  2 16 21  9  0.0000000  0  7 27 18  2 28 29 19 31
  22322259.234   -11718812.774 6  -9065460.974 6
  20180375.133    -3509410.105 7  -2677378.367 7
  24719468.313     -457247.072 4   -197670.037 2
  23332004.891    -8185403.130 6  -6322142.424 5
  21493987.672    -7458693.368 7  -5776808.374 7
  20926797.813   -20983628.655 7 -16276404.367 7
  22608017.734   -10153291.244 6  -7843194.047 5
 94  2 16 21  9 30.0000000  0  7 27 18  2 28 29 19 31
  22309599.594   -11785328.069 6  -9117291.021 6
  20180796.273    -3507205.249 7  -2675660.303 7
  24700217.828     -558449.258 4   -276528.801 2
  23330472.445    -8193465.998 5  -6328425.123 5
  21504617.656    -7402840.796 7  -5733286.948 7
  20921683.133   -21010510.199 7 -16297351.007 7
  22596163.023   -10215577.247 6  -7891728.501 5
 94  2 16 21 10  0.0000000  0  7 27 18  2 28 29 19 31
  22296974.039   -11851705.835 6  -9169013.914 6
  20181308.086    -3504519.952 7  -2673567.869 7
  24680984.289     -659500.847 3   -355270.177 2
  23329043.461    -8200974.308 5  -6334275.738 5
  21515320.633    -7346584.014 7  -5689450.547 7
  20916609.820   -21037158.661 7 -16318116.008 8
  22584381.766   -10277473.292 6  -7939959.076 5
 94  2 16 21 10 30.0000000  0  7 27 18  2 28 29 19 31
  22284367.656   -11917944.535 6  -9220628.439 6
  20181908.297    -3501364.473 7  -2671109.054 7
  24661785.664     -760401.395 3   -433893.894 3
  23327717.844    -8207943.078 5  -6339705.914 5
  21526098.836    -7289935.830 7  -5645309.171 7
  20911582.992   -21063593.153 7 -16338714.305 8
  22572684.375   -10338961.263 6  -7987871.700 5
 94  2 16 21 11  0.0000000  0  7 27 18  2 28 29 19 31
  22271785.570   -11984048.259 6  -9272137.790 6
  20182599.516    -3497735.051 7  -2668280.930 7
  24642609.656     -861153.617 3   -512402.026 2
  23326494.227    -8214365.839 5  -6344710.623 5
  21536960.391    -7232893.657 7  -5600860.782 6
  20906587.039   -21089826.102 7 -16359155.542 8
  22561065.391   -10400018.534 6  -8035448.701 5
 94  2 16 21 11 30.0000000  0  7 27 18  2 28 29 19 31
  22259231.141   -12050018.649 6  -9323543.258 6
  20183385.188    -3493619.157 7  -2665073.748 7
  24623450.797     -961775.274 3   -590808.437 3
  23325378.742    -8220245.634 6  -6349292.254 5
  21547887.664    -7175446.732 7  -5556097.005 6
  20901638.555   -21115860.793 7 -16379442.291 8
  22549527.016   -10460640.327 6  -8082686.381 5
 94  2 16 21 12  0.0000000  0  7 27 18  2 28 29 19 31
  22246711.250   -12115840.082 6  -9374832.642 6
  20184257.781    -3489015.698 7  -2661486.636 7
  24604353.063    -1062279.554 3   -669123.340 2
  23324365.719    -8225580.391 6  -6353449.164 5
  21558898.531    -7117597.226 7  -5511019.526 6
  20896723.297   -21141684.175 7 -16399564.389 7
  22538076.766   -10520825.496 6  -8129583.823 6
 94  2 16 21 12 30.0000000  0  7 27 18  2 28 29 19 31
  22234212.586   -12181510.124 6  -9426004.059 6
  20185227.898    -3483926.239 7  -2657520.827 7
  24585240.484    -1162659.574 4   -747341.405 1
  23323447.484    -8230366.672 5  -6357178.720 5
  21569975.938    -7059358.885 6  -5465639.055 6
  20891848.484   -21167296.018 7 -16419521.644 7
  22526706.820   -10580577.542 6  -8176143.788 6
 94  2 16 21 13  0.0000000  0  7 27 18  2 28 29 19 31
  22221732.766   -12247048.614 6  -9477072.976 6
  20186288.469    -3478354.637 7  -2653179.322 7
  24566152.688    -1262928.456 4   -825472.900 1
  23322644.469    -8234611.265 5  -6360486.166 5
  21581131.438    -7000748.234 7  -5419968.486 6
  20887016.297   -21192699.464 7 -16439316.531 7
  22515413.680   -10639908.255 6  -8222375.432 5
 94  2 16 21 13 30.0000000  0  7 27 18  2 28 29 19 31
  22209294.563   -12312453.477 6  -9528037.776 6
  20187440.125    -3472297.272 7  -2648459.303 7
  24547096.914    -1363075.418 4   -903509.427 1
  23321938.953    -8238315.547 5  -6363372.575 5
  21592357.617    -6941754.720 7  -5373999.575 6
  20882221.242   -21217893.669 7 -16458948.360 7
  22504202.539   -10698821.744 6  -8268281.971 5
 94  2 16 21 14  0.0000000  0  7 27 18  2 28 29 19 31
  22196872.406   -12377733.971 6  -9578905.663 6
  20188681.797    -3465764.690 7  -2643368.979 7
  24528058.469    -1463081.510 4   -981436.171 1
  23321336.055    -8241469.835 6  -6365830.445 5
  21603654.133    -6882387.830 7  -5327739.719 6
  20877462.273   -21242896.334 7 -16478430.939 7
  22493070.242   -10757319.388 6  -8313864.478 6
 94  2 16 21 14 30.0000000  0  7 27 18  2 28 29 19 31
  22184469.617   -12442897.501 6  -9629682.404 6
  20190016.766    -3458757.482 7  -2637908.818 7
  24509070.164    -1562912.918 3  -1059226.779 2
  23320843.719    -8244073.862 6  -6367859.542 5
  21615022.586    -6822646.993 6  -5281188.482 6
  20872736.391   -21267722.200 7 -16497775.748 7
  22482023.719   -10815393.134 6  -8359116.675 5
 94  2 16 21 15  0.0000000  0  7 27 18  2 28 29 19 31
  22172091.578   -12507936.764 6  -9680362.292 6
  20191440.836    -3451274.692 7  -2632078.077 7
  24490112.461    -1662553.373 3  -1136868.565 2
  23320446.945    -8246132.401 6  -6369463.574 6
  21626463.953    -6762519.992 7  -5234336.330 6
  20868049.859   -21292375.240 7 -16516985.895 7
  22471053.359   -10873027.858 6  -8404026.805 5
 94  2 16 21 15 30.0000000  0  7 27 18  2 28 29 19 31
  22159737.992   -12572854.734 6  -9730947.686 6
  20192950.938    -3443332.875 7  -2625889.648 7
  24471182.195    -1762003.396 3  -1214361.950 2
  23320156.312    -8247646.526 5  -6370643.428 6
  21637979.977    -6702012.269 7  -5187187.516 7
  20863386.289   -21316861.828 7 -16536066.349 7
  22460170.758   -10930221.414 6  -8448593.140 5
 94  2 16 21 16  0.0000000  0  7 27 18  2 28 29 19 31
  22147412.195   -12637642.824 6  -9781431.865 6
  20194550.078    -3434933.595 7  -2619344.763 7
  24452283.922    -1861264.292 3  -1291707.962 4
  23319977.469    -8248615.600 5  -6371398.561 6
  21649563.508    -6641148.073 7  -5139760.929 6
  20858760.945   -21341169.724 7 -16555007.551 7
  22449371.141   -10986959.628 6  -8492804.694 5
 94  2 16 21 16 30.0000000  0  7 27 18  2 28 29 19 31
  22135106.320   -12702300.409 6  -9831814.346 6
  20196234.484    -3426080.079 7  -2612445.916 7
  24433433.844    -1960364.511 3  -1368928.767 3
  23319891.492    -8249066.133 5  -6371749.635 5
  21661210.078    -6579941.436 7  -5092067.490 6
  20854166.867   -21365301.042 7 -16573811.161 7
  22438667.492   -11043248.397 6  -8536666.035 5
 94  2 16 21 17  0.0000000  0  7 27 18  2 28 29 19 31
  22122833.367   -12766825.654 6  -9882093.723 6
  20198006.375    -3416767.467 7  -2605189.348 7
  24414605.586    -2059329.290 3  -1446044.045 3
  23319900.172    -8248998.889 5  -6371697.254 5
  21672921.563    -6518387.876 6  -5044103.746 6
  20849612.203   -21389248.932 7 -16592471.840 7
  22428033.648   -11099083.163 6  -8580173.602 6
 94  2 16 21 17 30.0000000  0  7 27 18  2 28 29 19 31
  22110575.000   -12831216.574 6  -9932268.423 6
  20199869.664    -3406976.911 7  -2597560.341 7
  24395792.719    -2158174.827 4  -1523066.394 3
  23320015.578    -8248403.419 5  -6371233.263 5
  21684703.961    -6456488.357 6  -4995870.419 6
  20845089.234   -21413008.671 7 -16610985.907 7
  22417496.305   -11154462.668 6  -8623326.424 5
 94  2 16 21 18  0.0000000  0  7 27 18  2 28 29 19 31
  22098354.227   -12895458.818 6  -9982327.268 6
  20201830.344    -3396679.039 7  -2589536.029 7
  24377011.125    -2256899.256 4  -1599994.361 3
  23320232.250    -8247274.000 5  -6370353.186 5
  21696546.234    -6394224.979 6  -4947353.553 6
  20840607.695   -21436568.094 7 -16629343.876 7
  22407048.828   -11209382.196 6  -8666120.840 5
 94  2 16 21 18 30.0000000  0  7 27 18  2 28 29 19 31
  22086151.086   -12959566.699 6 -10032281.427 6
  20203884.930    -3385872.961 7  -2581115.716 7
  24358243.234    -2355500.364 4  -1676826.256 2
  23320547.156    -8245608.375 5  -6369055.289 5
  21708469.375    -6331577.160 6  -4898537.126 6
  20836157.969   -21459933.237 7 -16647550.491 7
  22396678.844   -11263844.923 6  -8708559.287 5
 94  2 16 21 19  0.0000000  0  7 27 18  2 28 29 19 31
  22073978.883   -13023549.412 6 -10082138.033 6
  20206039.695    -3374560.153 7  -2572300.550 7
  24339505.711    -2453962.087 3  -1753549.520 1
  23320972.352    -8243388.052 6  -6367325.144 5
  21720471.484    -6268527.951 6  -4849407.934 6
  20831757.680   -21483081.936 7 -16665588.420 7
  22386409.172   -11317839.170 6  -8750632.685 5
 94  2 16 21 19 30.0000000  0  7 27 18  2 28 29 19 31
  22061823.438   -13087405.975 6 -10131896.363 6
  20208286.078    -3362743.067 7  -2563092.429 7
  24320799.055    -2552269.476 3  -1830152.589 1
  23321496.938    -8240603.404 5  -6365155.254 5
  21732545.789    -6205078.114 6  -4799966.578 6
  20827397.375   -21505994.858 7 -16683442.640 7
  22376222.844   -11371368.368 6  -8792343.715 6
 94  2 16 21 20  0.0000000  0  7 27 18  2 28 29 19 31
  22049697.055   -13151137.295 6 -10181557.078 6
  20210629.789    -3350438.888 7  -2553504.776 7
  24302120.133    -2650406.943 3  -1906623.249 2
  23322135.109    -8237260.745 5  -6362550.586 5
  21744694.312    -6141222.663 6  -4750209.131 6
  20823080.641   -21528675.126 7 -16701115.560 7
  22366123.430   -11424433.863 6  -8833693.415 5
 94  2 16 21 20 30.0000000  0  7 27 18  2 28 29 19 31
  22037587.828   -13214752.138 6 -10231127.051 6
  20213060.773    -3337659.589 7  -2543546.892 7
  24283477.391    -2748368.211 4  -1982956.623 3
  23322881.383    -8233357.199 5  -6359508.867 6
  21756923.391    -6076976.174 6  -4700147.000 6
  20818808.148   -21551132.542 7 -16718614.827 7
  22356110.273   -11477039.667 6  -8874684.904 6
 94  2 16 21 21  0.0000000  0  7 27 18  2 28 29 19 31
  22025511.961   -13278235.575 6 -10280594.646 6
  20215586.922    -3324391.278 7  -2533207.963 7
  24264874.250    -2846148.273 4  -2059148.824 3
  23323724.977    -8228890.701 5  -6356028.515 6
  21769217.164    -6012347.390 6  -4649786.975 6
  20814575.531   -21573366.117 7 -16735939.675 7
  22346195.352   -11529173.306 6  -8915308.493 6
 94  2 16 21 21 30.0000000  0  7 27 18  2 28 29 19 31
  22013451.703   -13341576.834 6 -10329951.422 6
  20218208.523    -3310617.979 7  -2522475.538 7
  24246296.563    -2943747.636 4  -2135200.225 2
  23324686.930    -8223872.716 5  -6352118.438 6
  21781586.844    -5947355.718 6  -4599144.174 6
  20810381.219   -21595411.911 7 -16753118.212 7
  22336362.445   -11580836.488 6  -8955565.451 6
 94  2 16 21 22  0.0000000  0  7 27 18  2 28 29 19 31
  22001426.305   -13404781.865 6 -10379202.070 6
  20220921.766    -3296344.618 7  -2511353.448 7
  24227761.445    -3041174.909 4  -2211117.564 2
  23325743.656    -8218321.312 5  -6347792.689 6
  21794020.508    -5882012.784 6  -4548227.660 6
  20806215.305   -21617295.972 7 -16770170.708 7
  22326622.672   -11632024.761 6  -8995452.359 6
 94  2 16 21 22 30.0000000  0  7 27 18  2 28 29 19 31
  21989426.602   -13467859.896 6 -10428353.735 6
  20223734.117    -3281578.364 7  -2499847.290 7
  24209261.867    -3138433.163 5  -2286903.195 2
  23326898.531    -8212244.794 5  -6343057.761 6
  21806515.961    -5816329.129 6  -4497045.646 6
  20802082.570   -21639012.608 7 -16787092.752 7
  22316972.031   -11682739.550 6  -9034970.340 6
 94  2 16 21 23  0.0000000  0  7 27 18  2 28 29 19 31
  21977449.445   -13530817.174 6 -10477411.320 6
  20226633.672    -3266331.513 7  -2487966.643 7
  24190779.594    -3235522.507 5  -2362557.190 2
  23328149.781    -8205661.931 6  -6337928.268 6
  21819082.063    -5750308.949 6  -4445601.422 6
  20797980.250   -21660572.167 7 -16803892.384 7
  22307413.773   -11732978.299 6  -9074117.354 6
 94  2 16 21 23 30.0000000  0  7 27 18  2 28 29 19 31
  21965491.883   -13593633.984 6 -10526359.421 6
  20229628.195    -3250598.069 7  -2475706.837 7
  24172334.391    -3332423.150 4  -2438064.178 2
  23329507.641    -8198545.702 6  -6332383.153 5
  21831717.953    -5683919.004 6  -4393869.045 6
  20793909.453   -21681959.917 7 -16820558.142 7
  22297939.688   -11782733.137 6  -9112887.296 6
 94  2 16 21 24  0.0000000  0  7 27 18  2 28 29 19 31
  21953563.438   -13656331.122 6 -10575214.295 6
  20232710.953    -3234395.804 7  -2463081.711 7
  24153929.547    -3429145.589 4  -2513432.260 2
  23330961.070    -8190898.073 6  -6326423.959 5
  21844421.781    -5617154.383 6  -4341844.730 6
  20789878.937   -21703158.718 7 -16837076.679 7
  22288563.398   -11832019.808 6  -9151292.452 6
 94  2 16 21 24 30.0000000  0  7 27 18  2 28 29 19 31
  21941655.453   -13718901.233 6 -10623970.170 6
  20235883.508    -3217710.670 7  -2450080.322 7
  24135557.031    -3525688.676 5  -2588660.616 4
  23332522.391    -8182695.546 6  -6320032.368 5
  21857195.805    -5550013.308 6  -4289527.083 6
  20785879.141   -21724156.678 7 -16853438.715 7
  22279274.617   -11880836.754 6  -9189331.573 6
 94  2 16 21 25  0.0000000  0  7 27 18  2 28 29 19 31
  21929780.258   -13781324.143 6 -10672611.350 6
  20239157.367    -3200510.861 7  -2436677.886 7
  24117232.609    -3622054.661 5  -2663750.930 3
  23334181.531    -8173918.737 5  -6313193.287 5
  21870047.211    -5482495.218 6  -4236915.652 6
  20781920.648   -21744955.701 7 -16869645.724 7
  22270076.430   -11929169.785 6  -9226993.621 6
 94  2 16 21 25 30.0000000  0  7 27 18  2 28 29 19 31
  21917922.711   -13843599.571 6 -10721137.598 6
  20242531.578    -3182784.768 7  -2422865.372 7
  24098924.328    -3718253.897 5  -2738711.276 4
  23335975.305    -8164559.410 5  -6305900.314 5
  21882964.539    -5414606.154 6  -4184015.149 6
  20778003.359   -21765542.938 7 -16885687.705 7
  22260967.656   -11977021.173 6  -9264280.363 5
 94  2 16 21 26  0.0000000  0  7 27 18  2 28 29 19 31
  21906105.211   -13905731.810 6 -10769552.283 6
  20246005.602    -3164536.793 7  -2408646.172 7
  24080648.563    -3814280.517 5  -2813537.075 3
  23337860.742    -8154629.171 5  -6298162.518 5
  21895951.922    -5346378.273 6  -4130850.644 6
  20774124.805   -21785913.259 7 -16901560.667 7
  22251954.547   -12024377.746 6  -9301181.548 6
 94  2 16 21 26 30.0000000  0  7 27 18  2 28 29 19 31
  21894309.313   -13967715.018 6 -10817850.824 6
  20249571.727    -3145783.865 7  -2394033.515 7
  24062411.117    -3910127.689 5  -2888223.019 2
  23339859.516    -8144129.426 5  -6289980.936 6
  21908989.594    -5277828.005 6  -4077434.898 6
  20770294.516   -21806078.515 7 -16917273.845 7
  22243043.039   -12071226.916 6  -9337687.355 6
 94  2 16 21 27  0.0000000  0  7 27 18  2 28 29 19 31
  21882531.328   -14029554.607 6 -10866037.477 6
  20253237.250    -3126529.017 7  -2379029.756 7
  24044210.281    -4005776.107 5  -2962754.099 1
  23341968.703    -8133068.145 6  -6281361.774 6
  21922102.063    -5208940.292 6  -4023756.222 6
  20766492.773   -21826038.407 7 -16932826.997 7
  22234223.945   -12117553.492 6  -9373785.953 6
 94  2 16 21 27 30.0000000  0  7 27 18  2 28 29 19 31
  21870790.102   -14091281.830 6 -10914136.563 6
  20256989.031    -3106816.344 7  -2363669.238 7
  24026041.234    -4101229.360 5  -3037133.050 2
  23344173.172    -8121461.101 6  -6272317.350 6
  21935276.336    -5139717.301 6  -3969816.268 6
  20762735.609   -21845793.342 7 -16948220.435 7
  22225508.016   -12163370.360 6  -9409487.384 6
 94  2 16 21 27 59.9990000  0  7 27 18  2 28 29 19 31
  21859060.495   -14152890.316 6 -10962143.129 6
  20260823.948    -3086657.674 7  -2347961.191 7
  24007918.331    -4196473.749 5  -3111349.244 3
  23346487.065    -8109301.744 6  -6262842.519 5
  21948513.651    -5070150.790 6  -3915608.650 6
  20759015.769   -21865342.277 7 -16963453.350 7
  22216888.800   -12208676.741 6  -9444790.991 6
 94  2 16 21 28 29.9990000  0  7 27 18  2 28 29 19 31
  21847362.081   -14214385.090 6 -11010061.081 6
  20264751.175    -3066041.287 7  -2331896.482 7
  23989830.026    -4291528.035 5  -3185417.326 4
  23348904.940    -8096583.877 5  -6252932.481 5
  21961820.823    -5000205.202 6  -3861105.654 6
  20755333.503   -21884688.687 7 -16978528.464 7
  22208359.839   -12253491.073 6  -9479711.230 6
 94  2 16 21 28 59.9990000  0  7 27 18  2 28 29 19 31
  21835689.230   -14275769.535 6 -11057893.085 6
  20268759.651    -3044972.196 7  -2315479.013 7
  23971769.206    -4386412.737 4  -3259353.218 3
  23351426.269    -8083323.840 5  -6242600.017 5
  21975208.347    -4929894.988 6  -3806318.523 6
  20751687.651   -21903845.567 7 -16993455.876 7
  22199925.589   -12297828.695 6  -9514259.974 6
 94  2 16 21 29 29.9990000  0  7 27 18  2 28 29 19 31
  21824027.620   -14337003.481 6 -11105607.801 6
  20272854.464    -3023439.334 7  -2298700.174 7
  23953752.175    -4481119.743 5  -3333150.655 4
  23354058.862    -8069507.239 5  -6231833.820 4
  21988651.987    -4859215.912 6  -3751243.986 6
  20748077.753   -21922801.940 7 -17008227.074 7
  22191576.401   -12341687.099 6  -9548435.308 6
 94  2 16 21 29 59.9990000  0  7 27 18  2 28 29 19 31
  21812408.003   -14398079.480 6 -11153199.439 6
  20277042.417    -3001430.306 7  -2281550.282 7
  23935766.534    -4575668.303 5  -3406824.637 3
  23356793.714    -8055152.899 5  -6220648.621 5
  22002165.886    -4788185.491 6  -3695895.670 6
  20744499.019   -21941590.365 7 -17022867.389 7
  22183318.362   -12385073.783 6  -9582243.053 6
 94  2 16 21 30 29.9990000  0  7 27 18  2 28 29 19 31
  21800811.089   -14459017.736 6 -11200683.753 6
  20281317.417    -2978951.892 7  -2264034.641 7
  23917791.550    -4670084.905 5  -3480395.778 3
  23359620.901    -8040296.372 5  -6209072.087 5
  22015745.464    -4716832.794 6  -3640296.239 6
  20740955.253   -21960242.758 7 -17037401.713 7
  22175149.495   -12427996.588 6  -9615689.333 6
 94  2 16 21 30 59.9990000  0  7 27 18  2 28 29 19 31
  21789245.550   -14519800.974 6 -11248047.280 6
  20285691.925    -2955980.694 7  -2246135.012 7
  23899846.909    -4764335.973 5  -3553837.998 4
  23362540.144    -8024934.489 5  -6197101.796 5
  22029388.581    -4645151.488 6  -3584440.740 6
  20737434.894   -21978741.902 7 -17051816.623 7
  22167080.253   -12470422.325 6  -9648748.302 6
 94  2 16 21 31 29.9990000  0  7 27 18  2 28 29 19 31
  21777705.683   -14580446.866 6 -11295303.788 6
  20290152.894    -2932520.386 7  -2227854.267 7
  23881947.706    -4858409.333 5  -3627141.747 4
  23365562.378    -8009071.796 5  -6184741.262 5
  22043093.511    -4573134.804 6  -3528323.910 6
  20733943.550   -21997086.128 7 -17066110.821 7
  22159099.605   -12512354.215 6  -9681422.443 6
 94  2 16 21 31 59.9990000  0  7 27 18  2 28 29 19 31
  21766187.706   -14640975.504 6 -11342468.923 6
  20294714.409    -2908563.967 7  -2209186.930 7
  23864090.706    -4952300.324 5  -3700303.405 4
  23368674.175    -7992701.464 5  -6171985.127 6
  22056861.448    -4500779.422 6  -3471943.157 6
  20730483.769   -22015257.124 7 -17080270.042 7
  22151217.636   -12553767.091 6  -9713692.143 6
 94  2 16 21 32 29.9990000  0  7 27 18  2 28 29 19 31
  21754693.276   -14701390.159 6 -11389545.245 6
  20299365.464    -2884115.659 7  -2190136.309 7
  23846265.245    -5045986.549 5  -3773305.491 4
  23371883.433    -7975820.334 5  -6158830.991 6
  22070692.323    -4428085.438 6  -3415298.564 6
  20727067.956   -22033229.541 7 -17094274.523 7
  22143438.550   -12594653.272 6  -9745551.461 6
 94  2 16 21 32 59.9990000  0  8 27 18  2 28 16 29 19 31
  21743218.261   -14761697.600 6 -11436538.030 6
  20304114.979    -2859179.143 7  -2170705.274 7
  23828473.972    -5139463.389 5  -3846144.447 4
  23375202.128    -7958408.342 5  -6145263.212 6
  24715272.042          -0.46912
  22084591.089    -4355054.603 6  -3358391.492 6
  20723687.105   -22050990.429 7 -17108114.175 8
  22135761.300   -12635012.692 6  -9777000.298 6
 94  2 16 21 33 29.9990000  0  8 27 18  2 28 16 29 19 31
  21731758.565   -14821901.350 6 -11483450.002 6
  20308947.519    -2833761.577 7  -2150899.383 7
  23810720.104    -5232739.777 5  -3918827.194 4
  23378618.979    -7940446.272 5  -6131266.785 6
  24701660.159      -71495.797 3
  22098557.120    -4281694.032 6  -3301227.464 6
  20720348.651   -22068535.197 7 -17121785.415 7
  22128184.948   -12674839.969 6  -9808034.470 6
 94  2 16 21 33 59.9990000  0  8 27 18  2 28 16 29 19 31
  21720325.972   -14881985.471 6 -11530268.788 6
  20313882.183    -2807840.439 7  -2130701.108 7
  23793006.456    -5325812.161 5  -3991350.976 5
  23382138.917    -7921925.686 5  -6116835.178 5
  24688153.503     -142543.068 3    -27638.30011
  22112575.034    -4207998.216 6  -3243802.230 6
  20717048.495   -22085855.868 7 -17135282.041 7
  22120701.511   -12714121.447 6  -9838643.355 6
 94  2 16 21 34 29.9990000  0  8 27 18  2 28 16 29 19 31
  21708919.597   -14941940.096 6 -11576986.643 6
  20318912.019    -2781410.589 7  -2110106.428 7
  23775331.433    -5418670.474 5  -4063707.984 5
  23385775.183    -7902841.735 5  -6101964.580 5
  24674717.847     -213146.601 3    -82654.000 1
  22126663.081    -4133967.993 6  -3186116.420 6
  20713796.151   -22102962.928 7 -17148612.218 7
  22113328.800   -12752875.506 6  -9868841.268 6
 94  2 16 21 34 59.9990000  0  8 27 18  2 28 16 29 19 31
  21697532.573   -15001769.372 6 -11623606.837 6
  20324035.870    -2754482.223 7  -2089123.299 7
  23757710.237    -5511333.925 5  -4135913.120 5
  23389519.753    -7883182.646 5  -6086645.800 5
  24661360.394     -283310.892 3   -137327.441 1
  22140817.831    -4059612.156 6  -3128176.867 6
  20710576.690   -22119885.003 7 -17161798.253 7
  22106051.167   -12791103.182 6  -9898628.974 6
 94  2 16 21 35 29.9990000  0  8 27 18  2 28 16 29 19 31
  21686176.284   -15061455.286 6 -11670115.307 6
  20329254.237    -2727058.484 7  -2067754.174 7
  23740112.956    -5603797.573 5  -4207962.545 5
  23393366.909    -7862954.681 5  -6070883.749 5
  24648104.284     -353024.616 3   -191649.745 1
  22155022.878    -3984922.288 6  -3069977.048 6
  20707387.550   -22136629.182 7 -17174845.665 8
  22098879.659   -12828804.463 6  -9928006.552 6
 94  2 16 21 35 59.9990000  0  8 27 18  2 28 16 29 19 31
  21674845.097   -15120993.142 6 -11716508.419 6
  20334562.987    -2699149.763 7  -2046007.120 7
  23722555.722    -5696060.066 5  -4279855.213 5
  23397324.229    -7842165.482 5  -6054684.372 5
  24634919.729     -422303.527 3   -245633.293 1
  22169303.644    -3909900.732 6  -3011518.757 6
  20704232.479   -22153207.297 7 -17187763.677 8
  22091808.753   -12865992.893 6  -9956984.479 6
 94  2 16 21 36 29.9990000  0  8 27 18  2 28 16 29 19 31
  21663542.519   -15180377.105 6 -11762781.610 6
  20339964.237    -2670770.363 7  -2023893.309 7
  23705029.300    -5788130.636 5  -4351598.333 5
  23401378.987    -7820811.911 5  -6038045.228 5
  24621797.612     -491144.295 2   -299275.372 1
  22183641.565    -3834546.790 6  -2952801.476 6
  20701114.433   -22169625.478 7 -17200557.060 7
  22084828.315   -12902664.512 6  -9985559.684 6
 94  2 16 21 36 59.9990000  0  8 27 18  2 28 16 29 19 31
  21652269.589   -15239622.216 6 -11808946.593 6
  20345451.550    -2641933.941 7  -2001423.383 7
  23687534.901    -5880029.559 5  -4423207.690 5
  23405556.878    -7798913.986 5  -6020981.909 5
  24608799.456     -559558.039 3   -352584.773 2
  22198041.159    -3758858.555 6  -2893823.698 6
  20698017.214   -22185887.283 7 -17213228.591 7
  22077944.112   -12938818.786 6 -10013731.783 6
 94  2 16 21 37 29.9990000  0  8 27 18  2 28 16 29 19 31
  21641018.917   -15298731.683 6 -11855005.876 6
  20351029.183    -2612629.443 7  -1978588.721 7
  23670092.339    -5971748.612 5  -4494676.889 5
  23409818.269    -7776489.851 5  -6003508.572 5
  24595865.425     -627556.279 3   -405570.336 1
  22212512.995    -3682825.889 6  -2834577.528 6
  20694956.448   -22201964.461 7 -17225756.257 8
  22071159.862   -12974471.297 6 -10041512.913 6
 94  2 16 21 37 59.9990000  0  8 27 18  2 28 16 29 19 31
  21629801.581   -15357691.968 6 -11900948.917 6
  20356699.862    -2582824.376 7  -1955364.006 7
  23652675.245    -6063256.566 5  -4565981.584 5
  23414192.167    -7753517.280 5  -5985607.887 5
  24582989.394     -695130.012 3   -458225.105 1
  22227049.995    -3606435.637 6  -2775052.725 6
  20691935.440   -22217831.906 7 -17238120.485 8
  22064476.933   -13009591.556 6 -10068879.282 6
 94  2 16 21 38 29.9990000  0  8 27 18  2 28 16 29 19 31
  21618604.370   -15416517.588 6 -11946787.023 7
  20362467.714    -2552515.412 7  -1931746.647 7
  23635297.620    -6154560.824 5  -4637127.554 5
  23418660.112    -7730016.662 5  -5967295.714 5
  24570229.495     -762290.273 4   -510557.759 2
  22241655.456    -3529711.919 6  -2715268.091 6
  20688959.550   -22233502.270 7 -17250331.146 7
  22057898.362   -13044186.320 6 -10095836.182 6
 94  2 16 21 38 59.9990000  0  8 27 18  2 28 16 29 19 31
  21607437.089   -15475208.402 6 -11992520.081 7
  20368334.401    -2521692.396 7  -1907728.736 7
  23617972.472    -6245642.054 5  -4708099.728 4
  23423235.323    -7705984.405 5  -5948569.308 5
  24557510.604     -829047.201 3   -562576.074 1
  22256310.097    -3452666.171 6  -2655232.508 6
  20686014.940   -22248962.677 7 -17262378.205 7
  22051413.409   -13078254.726 6 -10122382.963 6
 94  2 16 21 39 29.9990000  0  8 27 18  2 28 16 29 19 31
  21596303.167   -15533736.427 6 -12038126.287 7
  20374300.737    -2490344.387 7  -1883301.728 7
  23600688.323    -6336471.984 5  -4778876.062 5
  23427913.479    -7681408.673 5  -5929419.369 5
  24544891.339     -895381.667 3   -614265.206 1
  22271034.261    -3375306.774 6  -2594952.528 6
  20683114.948   -22264205.596 7 -17274255.801 8
  22045034.112   -13111768.546 6 -10148497.584 6
 94  2 16 21 39 59.9990000  0  8 27 18  2 28 16 29 19 31
  21585196.167   -15592101.384 6 -12083605.431 7
  20380358.651    -2458490.376 7  -1858480.437 7
  23583449.651    -6427067.896 5  -4849470.075 5
  23432692.354    -7656305.746 5  -5909858.649 5
  24532353.112     -961282.645 3   -665616.589 1
  22285808.948    -3297659.937 6  -2534448.581 6
  20680245.081   -22279255.156 7 -17285982.719 8
  22038764.261   -13144722.453 6 -10174175.895 6
 94  2 16 21 40 29.9990000  0  8 27 18  2 28 16 29 19 31
  21574115.206   -15650303.047 6 -12128957.330 7
  20386518.386    -2426131.033 7  -1833265.381 7
  23566250.956    -6517443.249 5  -4919892.235 5
  23437562.128    -7630682.391 5  -5889892.397 5
  24519882.433    -1026731.924 3   -716615.992 1
  22300634.495    -3219716.835 6  -2473713.768 6
  20677424.362   -22294098.588 7 -17297549.017 8
  22032594.331   -13177109.727 6 -10199412.703 6
 94  2 16 21 40 59.9990000  0  8 27 18  2 28 16 29 19 31
  21563074.214   -15708354.681 6 -12174192.331 7
  20392766.229    -2393296.472 7  -1807680.033 7
  23549092.409    -6607612.651 5  -4990153.897 5
  23442543.550    -7604543.009 5  -5869524.015 5
  24507524.276    -1091729.596 3   -767263.456 1
  22315531.386    -3141463.046 6  -2412736.877 6
  20674639.495   -22308734.424 7 -17308953.554 8
  22026543.854   -13208928.040 6 -10224206.156 6
 94  2 16 21 41 29.9990000  0  8 27 18  2 28 16 29 19 31
  21552047.058   -15766280.603 6 -12219329.366 7
  20399102.683    -2360005.045 7  -1781738.680 7
  23531967.269    -6697599.877 5  -5060273.591 5
  23447609.784    -7577915.861 5  -5848775.559 5
  24495231.042    -1156270.965 3   -817555.399 1
  22330479.901    -3062891.894 6  -2351512.655 6
  20671889.636   -22323185.644 7 -17320214.238 8
  22020600.878   -13240189.408 6 -10248565.613 6
 94  2 16 21 41 59.9990000  0  8 27 18  2 28 16 29 19 31
  21541047.815   -15824085.129 6 -12264371.806 6
  20405528.784    -2326238.242 7  -1755426.902 7
  23514872.769    -6787404.558 5  -5130251.081 5
  23452770.573    -7550773.006 5  -5827625.270 5
  24483053.917    -1220338.453 3   -867478.054 1
  22345497.409    -2983971.249 6  -2290016.134 6
  20669177.065   -22337439.847 7 -17331321.391 8
  22014760.104   -13270885.080 6 -10272484.268 6
 94  2 16 21 42 29.9990000  0  8 27 18  2 28 16 29 19 31
  21530070.808   -15881779.445 6 -12309328.375 7
  20412050.565    -2291986.945 7  -1728737.609 7
  23497822.222    -6877002.095 5  -5200067.148 5
  23458041.964    -7523090.565 5  -5806054.517 5
  24470950.175    -1283938.877 3   -917036.771 1
  22360594.901    -2904686.826 6  -2228236.145 6
  20666499.854   -22351496.904 7 -17342274.922 8
  22009021.565   -13301010.064 6 -10295958.234 6
 94  2 16 21 42 59.9990000  0  8 27 18  2 28 16 29 19 31
  21519117.144   -15939354.764 6 -12354192.212 6
  20418656.581    -2257251.470 7  -1701671.031 7
  23480811.487    -6966368.715 5  -5269703.320 5
  23463410.308    -7494862.905 5  -5784058.931 5
  24458929.683    -1347063.668 3   -966224.887 1
  22375740.433    -2825046.233 6  -2166178.618 5
  20663865.425   -22365368.006 7 -17353083.564 8
  22003400.151   -13330564.369 6 -10318987.517 6
 94  2 16 21 43 29.9990000  0  8 27 18  2 28 16 29 19 31
  21508182.776   -15996802.895 6 -12398956.944 6
  20425360.784    -2222014.999 7  -1674214.062 7
  23463856.019    -7055496.958 5  -5339153.747 5
  23468888.042    -7466090.391 5  -5761638.790 5
  24446997.253    -1409712.812 2  -1015042.373 1
  22390957.011    -2745077.941 6  -2103865.742 5
  20661257.354   -22379053.795 7 -17363747.803 8
  21997878.823   -13359556.137 6 -10341578.456 6
 94  2 16 21 43 59.9990000  0  8 27 18  2 28 16 29 19 31
  21497280.261   -16054118.513 7 -12443618.415 7
  20432159.542    -2186279.067 7  -1646367.908 7
  23446945.433    -7144376.135 5  -5408410.096 5
  23474461.472    -7436753.313 5  -5738778.736 5
  24435179.769    -1471903.845 3  -1063502.822 1
  22406233.862    -2664811.755 6  -2041320.752 5
  20658689.901   -22392541.448 7 -17374257.644 8
  21992474.589   -13387980.036 6 -10363726.916 6
 94  2 16 21 44 29.9990000  0  8 27 18  2 28 16 29 19 31
  21486398.464   -16111291.802 6 -12488168.992 7
  20439053.667    -2150052.166 7  -1618139.167 7
  23430075.026    -7233006.329 5  -5477472.440 5
  23480159.042    -7406872.361 5  -5715494.880 5
  24423423.433    -1533645.256 3  -1111612.968 1
  22421568.183    -2584259.452 6  -1978552.809 5
  20656164.972   -22405826.454 7 -17384609.574 8
  21987169.761   -13415837.992 6 -10385434.344 6
 94  2 16 21 44 59.9990000  0  8 27 18  2 28 16 29 19 31
  21475546.464   -16168306.088 6 -12532595.662 6
  20446040.128    -2113340.569 7  -1589532.760 7
  23413256.589    -7321407.935 5  -5546356.679 5
  23485944.987    -7376455.587 5  -5691793.495 5
  24411769.120    -1594928.936 3  -1159366.446 1
  22436947.589    -2503416.362 6  -1915558.278 5
  20653674.050   -22418899.484 7 -17394796.333 8
  21981976.472   -13443128.754 6 -10406699.842 6
 94  2 16 21 45 29.9990000  0  8 27 18  2 28 16 29 19 31
  21464725.987   -16225159.131 6 -12576896.698 7
  20453120.112    -2076142.984 7  -1560547.645 7
  23396478.034    -7409588.615 5  -5615068.781 5
  23491833.347    -7345489.796 5  -5667664.318 5
  24400206.042    -1655761.431 4  -1206768.333 1
  22452387.019    -2422270.476 6  -1852327.809 5
  20651230.753   -22431744.128 7 -17404805.123 8
  21976897.808   -13469845.844 6 -10427518.314 6
 94  2 16 21 45 59.9990000  0  8 27 18  2 28 16 29 19 31
  21453943.612   -16281834.240 6 -12621059.073 7
  20460292.933    -2038456.253 7  -1531181.387 7
  23379740.808    -7497537.921 5  -5683600.592 5
  23497830.714    -7313972.147 5  -5643105.118 5
  24388700.597    -1716132.771 4  -1253810.918 1
  22467898.198    -2340789.120 6  -1788835.892 5
  20648829.401   -22444362.538 7 -17414637.631 8
  21971917.784   -13495975.290 6 -10447878.861 6
 94  2 16 21 46 29.9990000  0  8 27 18  2 28 16 29 19 31
  21443197.003   -16338314.002 6 -12665069.244 6
  20467557.058    -2000271.121 7  -1501426.756 7
  23363050.651    -7585252.153 5  -5751949.223 5
  23503940.831    -7281916.852 5  -5618126.969 5
  24377306.479    -1776015.633 4  -1300472.856 1
  22483470.964    -2258946.994 6  -1725062.911 5
  20646470.964   -22456763.206 7 -17424300.467 8
  21967054.862   -13521521.667 6 -10467785.096 6
 94  2 16 21 46 59.9990000  0  8 27 18  2 28 16 29 19 31
  21432486.058   -16394608.846 6 -12708935.330 7
  20474918.370    -1961599.913 7  -1471293.372 7
  23346409.339    -7672733.726 5  -5820116.555 5
  23510138.597    -7249322.927 5  -5592729.110 5
  24366008.011    -1835414.725 4  -1346757.813 1
  22499103.737    -2176765.497 6  -1661025.467 5
  20644150.479   -22468963.566 7 -17433807.225 8
  21962308.034   -13546498.280 6 -10487247.358 6
 94  2 16 21 47 29.9990000  0  8 27 18  2 28 16 29 19 31
  21421805.394   -16450714.385 6 -12752653.905 7
  20482368.987    -1922426.313 7  -1440768.518 7
  23329801.503    -7759964.294 5  -5888088.303 5
  23516442.144    -7216173.241 5  -5566898.213 5
  24354798.745    -1894324.681 4  -1392661.643 1
  22514812.995    -2094240.580 6  -1596720.422 5
  20641864.917   -22480965.167 7 -17443159.101 8
  21957663.870   -13570898.815 6 -10506260.726 6
 94  2 16 21 47 59.9990000  0  8 27 18  2 28 16 29 19 31
  21411169.456   -16506620.955 6 -12796217.436 7
  20489923.190    -1882742.702 7  -1409846.259 7
  23313255.433    -7846933.083 5  -5955856.075 5
  23522858.894    -7182468.777 5  -5540635.023 5
  24343677.909    -1952734.633 4  -1438175.838 1
  22530579.636    -2011363.907 6  -1532141.301 5
  20639617.792   -22492769.644 7 -17452357.387 8
  21953130.800   -13594714.259 6 -10524818.184 6
 94  2 16 21 48 29.9990000  0  8 27 18  2 28 16 29 19 31
  21400563.878   -16562353.167 6 -12839645.110 7
  20497565.886    -1842563.863 7  -1378538.094 7
  23296742.284    -7933660.715 5  -6023435.922 5
  23529379.847    -7148202.516 5  -5513934.061 5
  24332658.479    -2010641.621 4  -1483298.120 1
  22546414.511    -1928160.336 6  -1467307.449 5
  20637412.011   -22504372.502 7 -17461398.560 8
  21948710.315   -13617943.565 6 -10542918.923 6
 94  2 16 21 48 59.9990000  0  8 27 18  2 28 16 29 19 31
  21389983.120   -16617928.921 6 -12882950.868 7
  20505311.323    -1801898.408 7  -1346850.763 7
  23280287.308    -8020154.627 5  -6090833.666 5
  23536008.433    -7113369.020 5  -5486791.091 4
  24321740.480    -2068065.643 5  -1528044.059 1
  22562310.144    -1844645.316 6  -1402230.900 5
  20635238.628   -22515774.789 7 -17470283.454 8
  21944398.214   -13640582.410 6 -10560559.558 6
 94  2 16 21 49 29.9990000  0  8 27 18  2 28 16 29 19 31
  21379439.581   -16673359.658 6 -12926143.637 7
  20513139.026    -1760747.250 7  -1314784.955 7
  23263880.144    -8106416.827 6  -6158050.828 5
  23542744.300    -7077989.913 5  -5459222.998 5
  24310900.394    -2125009.814 3  -1572416.056 2
  22578264.058    -1760820.800 6  -1336913.205 5
  20633108.854   -22526974.925 7 -17479010.812 8
  21940209.706   -13662624.994 6 -10577735.572 6
 94  2 16 21 49 59.9990000  0  8 27 18  2 28 16 29 19 31
  21368917.011   -16728644.921 6 -12969223.046 7
  20521060.347    -1719109.536 7  -1282340.018 7
  23247514.167    -8192432.749 6  -6225076.108 5
  23549576.347    -7042076.641 5  -5431238.659 5
  24300153.112    -2181472.064 3  -1616412.519 1
  22594268.831    -1676701.946 6  -1271366.150 5
  20631019.526   -22537960.077 7 -17487570.671 8
  21936129.128   -13684058.992 6 -10594437.365 6
 94  2 16 21 50 29.9990000  0  8 27 18  2 28 16 29 19 31
  21358426.753   -16783781.922 6 -13012186.926 7
  20529076.261    -1676969.199 7  -1249503.424 7
  23231180.612    -8278192.713 5  -6291901.945 5
  23556510.354    -7005628.873 5  -5402837.840 5
  24289499.433    -2237446.442 3  -1660028.886 1
  22610329.394    -1592302.733 6  -1205600.618 5
  20628967.909   -22548729.622 7 -17495962.523 8
  21932165.878   -13704888.172 6 -10610667.866 6
 94  2 16 21 50 59.9990000  0  8 27 18  2 28 16 29 19 31
  21347958.761   -16838765.231 6 -13055031.059 7
  20537197.729    -1634316.183 7  -1216267.347 7
  23214918.784    -8363682.137 5  -6358516.977 5
  23563545.862    -6968675.146 5  -5374042.757 5
  24278939.136    -2292947.470 3  -1703276.348 1
  22626440.128    -1507624.927 6  -1139618.002 5
  20626954.636   -22559291.784 7 -17504192.777 7
  21928313.042   -13725128.534 6 -10626439.542 6
 94  2 16 21 51 29.9990000  0  8 27 18  2 28 16 29 19 31
  21337531.042   -16893607.482 6 -13097765.272 7
  20545408.073    -1591164.791 7  -1182642.923 7
  23198699.995    -8448905.679 6  -6424924.826 5
  23570661.472    -6931236.774 5  -5344870.029 5
  24268452.417    -2347982.749 2  -1746160.873 1
  22642604.870    -1422684.736 6  -1073430.934 5
  20624984.323   -22569659.932 7 -17512271.852 8
  21924574.065   -13744793.582 6 -10641762.937 6
 94  2 16 21 51 59.9990000  0  7 27 18  2 28 29 19 31
  21327122.230   -16948288.853 6 -13140374.111 7
  20553719.190    -1547494.564 7  -1148614.210 7
  23182529.815    -8533848.717 5  -6491114.130 5
  23577884.573    -6893290.179 5  -5315301.273 5
  22658823.144    -1337461.591 6  -1007023.389 5
  20623055.065   -22579808.690 7 -17520179.977 8
  21920939.331   -13763878.280 6 -10656634.115 6
 94  2 16 21 52 29.9990000  0  7 27 18  2 28 29 19 31
  21316744.019   -17002814.746 6 -13182861.798 7
  20562125.425    -1503320.249 7  -1114192.706 7
  23166421.034    -8618529.884 6  -6557099.370 5
  23585203.901    -6854841.524 5  -5285341.288 5
  22675095.104    -1251939.997 6   -940383.283 5
  20621164.331   -22589740.800 7 -17527919.284 8
  21917411.081   -13782395.161 6 -10671062.814 6
 94  2 16 21 52 59.9990000  0  7 27 18  2 28 29 19 31
  21306402.183   -17057183.989 6 -13225227.408 7
  20570622.628    -1458663.223 7  -1079395.063 7
  23150359.136    -8702957.430 6  -6622887.005 5
  23592621.776    -6815887.096 5  -5254987.200 5
  22691432.644    -1166107.032 6   -873500.551 5
  20619316.292   -22599452.759 7 -17535487.043 8
  21914001.323   -13800332.889 6 -10685040.224 6
 94  2 16 21 53 29.9990000  0  7 27 18  2 28 29 19 31
  21296082.417   -17111391.444 6 -13267466.969 7
  20579207.729    -1413536.869 7  -1044231.699 7
  23134341.269    -8787141.774 6  -6688485.124 5
  23600126.011    -6776406.362 5  -5224223.013 5
  22707817.472    -1079965.991 6   -806377.751 5
  20617512.628   -22608933.707 7 -17542874.810 7
  21910701.214   -13817688.862 6 -10698564.338 6
 94  2 16 21 53 59.9990000  0  7 27 18  2 28 29 19 31
  21285800.034   -17165435.556 6 -13309579.226 7
  20587882.253    -1367955.665 7  -1008713.911 7
  23118351.667    -8871103.895 5  -6753910.089 5
  23607748.792    -6736401.111 5  -5193050.096 5
  22724276.769     -993518.484 6   -739016.171 5
  20615749.698   -22618198.183 7 -17550093.885 8
  21907506.425   -13834478.450 6 -10711647.106 6
 94  2 16 21 54 29.9990000  0  7 27 18  2 28 29 19 31
  21275549.433   -17219308.988 6 -13351558.493 7
  20596644.331    -1321921.650 7   -972843.287 7
  23102423.026    -8954843.801 5  -6819161.926 5
  23615456.269    -6695858.944 5  -5161458.783 5
  22740778.901     -906769.115 5   -671419.363 5
  20614027.761   -22627254.077 7 -17557150.422 8
  21904418.901   -13850686.728 6 -10724276.906 6
 94  2 16 21 54 59.9990000  0  8 27 18  2 28 16 29 19 31
  21265330.823   -17273002.341 6 -13393397.434 7
  20605496.394    -1275410.735 7   -936601.052 7
  23086536.159    -9038339.970 6  -6884223.825 5
  23623278.050    -6654758.587 5  -5129432.529 5
  24197821.362          -0.33913
  22757345.925     -819725.982 5   -603593.634 5
  20612344.331   -22636094.020 7 -17564038.691 7
  21901450.620   -13866289.849 6 -10736435.171 6
 94  2 16 21 55 29.9990000  0  8 27 18  2 28 16 29 19 31
  21255139.167   -17326526.302 6 -13435104.368 7
  20614438.956    -1228422.663 7   -899987.013 7
  23070693.526    -9121593.947 5  -6949097.008 5
  23631204.073    -6613111.862 5  -5096980.543 5
  24188105.331      -51042.927 3
  22773962.042     -732400.703 6   -535548.083 5
  20610703.526   -22644722.400 7 -17570762.102 7
  21898596.104   -13881292.792 6 -10748125.741 6
 94  2 16 21 55 59.9990000  0  8 27 18  2 28 16 29 19 31
  21244988.612   -17379901.768 6 -13476695.605 7
  20623464.042    -1180961.394 7   -863004.242 7
  23054889.456    -9204601.785 5  -7013778.394 5
  23639230.026    -6570943.717 6  -5064122.244 5
  24178477.120     -101613.132 3    -19657.56711
  22790634.714     -644799.697 5   -467287.673 5
  20609094.683   -22653167.314 7 -17577342.550 8
  21895858.870   -13895684.616 6 -10759340.119 6
 94  2 16 21 56 29.9990000  0  8 27 18  2 28 16 29 19 31
  21234857.347   -17433142.479 7 -13518181.833 7
  20632590.245    -1133022.945 7   -825649.650 7
  23039148.589    -9287358.983 6  -7078264.456 5
  23647352.089    -6528271.309 5  -5030871.025 5
  24168953.776     -151716.997 2
  22807351.667     -556934.659 5   -398821.510 5
  20607523.714   -22661429.205 7 -17583780.376 7
  21893237.878   -13909451.031 6 -10770067.165 6
 94  2 16 21 56 59.9990000  0  8 27 18  2 28 16 29 19 31
  21224748.636   -17486248.965 6 -13559563.458 7
  20641802.854    -1084607.116 7   -787923.058 7
  23023446.901    -9369858.435 5  -7142549.700 5
  23655563.823    -6485114.201 5  -4997242.121 4
  24159501.620     -201359.868 3
  22824121.792     -468797.295 5   -330143.147 5
  20605984.503   -22669510.023 7 -17590077.111 7
  21890736.300   -13922595.119 6 -10780309.296 6
 94  2 16 21 57 29.9990000  0  8 27 18  2 28 16 29 19 31
  21214669.487   -17539223.575 7 -13600842.323 7
  20651104.097    -1035732.052 7   -749838.629 7
  23007798.690    -9452109.863 6  -7206641.663 5
  23663865.683    -6441489.567 5  -4963248.906 2
  24150145.425     -250519.178 3    -19104.09511
  22840948.800     -380392.096 5   -261256.104 5
  20604478.878   -22677422.724 7 -17596242.822 7
  21888352.229   -13935142.124 6 -10790086.167 6
 94  2 16 21 57 59.9990000  0  8 27 18  2 28 16 29 19 31
  21204619.901   -17592049.888 7 -13642005.656 7
  20660491.175     -986387.717 7   -711388.527 7
  22992197.034    -9534097.075 6  -7270527.726 5
  23672252.433    -6397392.770 5  -4928887.763 3
  24140884.472     -299172.490 3    -57015.658 1
  22857816.214     -291722.588 5   -192163.074 5
  20603008.792   -22685157.780 7 -17602270.143 8
  21886071.011   -13947096.493 6 -10799401.232 6
 94  2 16 21 58 29.9990000  0  8 27 18  2 28 16 29 19 31
  21194595.519   -17644723.964 7 -13683050.337 7
  20669970.815     -936578.738 7   -672576.366 7
  22976638.620    -9615844.118 5  -7334226.655 5
  23680734.862    -6352824.451 5  -4894159.211 3
  24131719.808     -347311.629 4    -94526.664 1
  22874744.433     -202795.479 6   -122869.360 5
  20601570.808   -22692702.010 7 -17608148.741 8
  21883912.815   -13958485.871 6 -10808276.052 6
 94  2 16 21 58 59.9990000  0  8 27 18  2 28 16 29 19 31
  21184602.847   -17697233.081 7 -13723966.501 7
  20679539.862     -886309.831 7   -633405.829 7
  22961127.425    -9697351.700 5  -7397738.985 5
  23689298.870    -6307773.408 5  -4859054.509 3
  24122661.104     -394919.083 4   -131623.315 1
  22891713.831     -113617.761 5    -53380.357 5
  20600174.511   -22700043.828 7 -17613869.632 8
  21881841.550   -13969321.347 6 -10816719.254 6
 94  2 16 21 59 29.9990000  0  8 27 18  2 28 16 29 19 31
  21174641.097   -17749570.881 7 -13764749.175 7
  20689189.331     -835576.972 7   -593873.752 7
  22945660.933    -9778617.141 6  -7461062.634 5
  23697974.339    -6262224.927 5  -4823562.206 3
  24113708.417     -441987.790 4   -168300.149 1
  22908732.737      -24186.012 5     16306.609 5
  20598819.573   -22707167.148 7 -17619420.254 7
  21879894.472   -13979593.224 6 -10824723.287 6
 94  2 16 21 59 59.9990000  0  8 27 18  2 28 16 29 19 31
  21164713.347   -17801750.886 7 -13805408.893 7
  20698937.104     -784380.203 7   -553980.202 7
  22930238.479    -9859666.204 5  -7524217.683 5
  23706729.011    -6216190.722 4  -4787691.420 2
  24104846.589     -488554.247 5   -204585.629 2
  22925796.800       65500.811 5     86192.326 5
  20597503.972   -22714078.147 7 -17624805.433 8
  21878044.112   -13989295.872 6 -10832283.786 6
 94  2 16 22  0 29.9990000  0  8 27 18  2 28 16 29 19 31
  21154812.800   -17853775.533 6 -13845947.553 7
  20708768.995     -732715.774 7   -513722.236 7
  22914855.698    -9940512.927 5  -7587215.047 6
  23715586.401    -6169667.489 5  -4751439.541 2
  24096080.003     -534621.668 5   -240482.285 2
  22942918.206      155444.204 6    156277.962 5
  20596230.644   -22720783.175 7 -17630030.122 7
  21876308.409   -13998415.337 6 -10839389.863 6
 94  2 16 22  0 59.9990000  0  8 27 18  2 28 16 29 19 31
  21144945.370   -17905634.785 7 -13886357.329 7
  20718686.714     -680581.142 7   -473097.873 7
  22899516.526   -10021131.953 6  -7650035.008 5
  23724542.683    -6122653.683 5  -4714805.416 3
  24087409.886     -580185.085 5   -275986.202 3
  22960077.894      245651.574 5    226569.294 5
  20594988.901   -22727287.321 7 -17635098.248 8
  21874689.800   -14006939.286 6 -10846031.886 6
 94  2 16 22  1 29.9990000  0  8 27 18  2 28 16 29 19 31
  21135100.097   -17957343.954 6 -13926650.168 7
  20728698.995     -627976.999 7   -432107.664 7
  22884220.823   -10101513.152 6  -7712669.636 6
  23733570.722    -6075151.246 4  -4677790.530 3
  24078843.339     -625253.429 5   -311104.341 2
  22977297.769      336124.932 5    297067.905 5
  20593788.581   -22733611.078 7 -17640025.838 8
  21873179.401   -14014870.503 6 -10852212.051 6
 94  2 16 22  1 59.9990000  0  8 27 18  2 28 16 29 19 31
  21125292.097   -18008904.202 7 -13966826.963 7
  20738795.979     -574906.434 7   -390754.012 7
  22868961.222   -10181659.499 6  -7775121.269 5
  23742703.737    -6027159.750 5  -4640394.575 5
  24070345.815     -669823.393 4   -345834.132 2
  22994562.503      426844.476 5    367758.337 5
  20592616.440   -22739766.676 7 -17644822.396 8
  21871779.479   -14022212.223 6 -10857932.870 6
 94  2 16 22  2 29.9990000  0  8 27 18  2 28 16 29 19 31
  21115509.823   -18060307.418 7 -14006881.403 7
  20748978.292     -521384.838 7   -349048.906 7
  22853763.776   -10261548.499 6  -7837372.375 6
  23751934.737    -5978674.869 5  -4602614.159 4
  24061976.987     -713895.444 5   -380175.950 1
  23011871.026      517800.235 5    438632.811 5
  20591480.956   -22745744.520 7 -17649480.439 8
  21870496.800   -14028964.566 6 -10863194.428 6
 94  2 16 22  2 59.9990000  0  8 27 18  2 28 16 29 19 31
  21105759.120   -18111552.902 7 -14046812.932 7
  20759254.550     -467414.803 7   -306994.364 7
  22838610.667   -10341152.605 6  -7899401.464 6
  23761250.933    -5929685.985 5  -4564441.019 5
  24053678.636     -757478.531 4   -414136.784 2
  23029225.581      609005.259 5    509701.539 5
  20590377.300   -22751533.449 7 -17653991.277 8
  21869321.886   -14035110.321 7 -10867983.309 6
 94  2 16 22  3 29.9990000  0  8 27 18  2 28 16 29 19 31
  21096038.354   -18162647.074 7 -14086626.551 7
  20769604.589     -413005.361 7   -264597.438 7
  22823521.831   -10420480.202 6  -7961215.123 6
  23770669.128    -5880186.575 5  -4525870.075 5
  24045464.839     -800579.562 4   -447721.962 2
  23046625.706      700456.883 5    580962.420 4
  20589314.503   -22757124.509 7 -17658347.939 8
  21868271.573   -14040640.235 6 -10872292.303 6
 94  2 16 22  3 59.9990000  0  8 27 18  2 28 16 29 19 31
  21086340.479   -18213596.252 7 -14126327.181 7
  20780036.878     -358178.137 7   -221874.959 7
  22808471.323   -10499564.797 6  -8022839.403 6
  23780186.362    -5830205.351 5  -4486923.653 5
  24037353.323     -843219.980 4   -480948.265 1
  23064074.308      792146.299 5    652408.585 5
  20588284.792   -22762517.041 7 -17662549.895 8
  21867337.667   -14045554.937 6 -10876121.946 6
 94  2 16 22  4 29.9990000  0  8 27 18  2 28 16 29 19 31
  21076674.839   -18264397.789 7 -14165912.766 7
  20790548.261     -302929.852 7   -178824.389 7
  22793464.120   -10578394.586 5  -8084265.158 6
  23789788.870    -5779741.152 5  -4447600.908 5
  24029333.933     -885394.262 5   -513811.295 2
  23081570.792      884089.012 5    724052.112 5
  20587300.519   -22767708.411 7 -17666595.109 8
  21866519.854   -14049855.717 6 -10879473.165 6
 94  2 16 22  4 59.9990000  0  8 27 18  2 28 16 29 19 31
  21067036.597   -18315051.219 7 -14205382.931 7
  20801147.925     -247255.466 7   -135441.779 7
  22778517.878   -10656971.912 5  -8145494.177 6
  23799479.792    -5728797.980 5  -4407904.938 5
  24021396.909     -927078.678 5   -546292.628 2
  23099119.308      976290.015 5    795896.924 5
  20586348.167   -22772707.229 7 -17670490.280 8
  21865813.355   -14053549.651 6 -10882351.527 6
 94  2 16 22  5 29.9990000  0  8 27 18  2 28 16 29 19 31
  21057423.370   -18365545.562 7 -14244729.140 7
  20811822.940     -191148.309 7    -91721.959 7
  22763613.206   -10735312.565 6  -8206538.782 5
  23809260.808    -5677384.867 5  -4367842.773 5
  24013559.331     -968249.291 4   -578373.615 2
  23116717.386     1068747.855 5    867941.858 5
  20585432.581   -22777511.486 7 -17674233.857 7
  21865224.917   -14056658.643 6 -10884774.097 6
 94  2 16 22  5 59.9990000  0  8 27 18  2 28 16 29 19 31
  21047848.948   -18415873.619 7 -14283945.773 7
  20822583.925     -134591.715 7    -47651.926 7
  22748753.448   -10813413.055 6  -8267396.251 6
  23819134.433    -5625517.778 5  -4327426.883 5
  24005827.229    -1008892.769 4   -610043.798 2
  23134350.972     1161447.798 5    940175.448 5
  20584556.144   -22782124.288 7 -17677828.238 7
  21864745.019   -14059198.038 7 -10886752.810 6
 94  2 16 22  6 29.9990000  0  8 27 18  2 28 16 29 19 31
  21038304.917   -18466022.905 7 -14323023.112 7
  20833435.378      -77571.141 7     -3220.341 7
  22733937.456   -10891248.456 6  -8328047.164 6
  23829091.589    -5573191.959 5  -4286653.527 4
  23998201.276    -1048987.420 4   -641286.315 3
  23152037.675     1254386.151 5   1012594.821 5
  20583713.940   -22786536.076 7 -17681265.987 8
  21864363.105   -14061178.765 6 -10888296.205 6
 94  2 16 22  6 59.9990000  0  8 27 18  2 28 16 29 19 31
  21028791.151   -18516003.540 7 -14361969.030 7
  20844373.276      -20101.644 7     41561.046 7
  22719175.995   -10968837.945 6  -8388506.457 6
  23839130.081    -5520429.206 5  -4245539.682 5
  23990671.409    -1088539.332 4   -672105.935 2
  23169769.730     1347553.076 5   1085192.278 5
  20582910.995   -22790743.240 7 -17684544.289 8
  21864097.667   -14062600.913 6 -10889404.346 6
 94  2 16 22  7 29.9990000  0  8 27 18  2 28 16 29 19 31
  21019313.636   -18565822.620 7 -14400789.057 7
  20855392.222       37815.807 7     86691.485 7
  22704449.792   -11046195.974 6  -8448785.386 6
  23849250.269    -5467235.734 5  -4204090.263 5
  23983242.581    -1127570.047 3   -702519.433 3
  23187536.964     1440927.816 5   1157951.671 5
  20582152.753   -22794744.332 7 -17687662.011 7
  21863930.925   -14063455.981 6 -10890070.581 6
 94  2 16 22  7 59.9990000  0  8 27 18  2 28 16 29 19 31
  21009865.800   -18615480.152 7 -14439483.192 7
  20866496.886       96175.585 7    132166.601 7
  22689775.956   -11123311.344 6  -8508875.240 6
  23859461.737    -5413609.947 5  -4162303.994 4
  23975911.964    -1166095.042 3   -732538.854 3
  23205335.050     1534515.000 5   1230876.642 5
  20581433.565   -22798528.066 7 -17690610.371 8
  21863883.651   -14063720.332 6 -10890276.530 6
 94  2 16 22  8 29.9990000  0  8 27 18  2 28 16 29 19 31
  21000438.386   -18664999.479 7 -14478069.658 7
  20877681.464      154946.854 7    177962.345 7
  22675147.120   -11200185.002 6  -8568776.750 6
  23869747.870    -5359541.507 5  -4120172.761 5
  23968675.651    -1204135.738 4   -762180.890 2
  23223198.417     1628318.710 5   1303970.289 5
  20580751.644   -22802103.165 7 -17693396.153 8
  21863945.456   -14063384.847 6 -10890015.097 6
 94  2 16 22  8 59.9990000  0  8 27 18  2 28 16 29 19 31
  20991041.862   -18714380.084 7 -14516548.022 7
  20888942.058      214130.283 7    224079.274 7
  22660568.870   -11276817.372 6  -8628490.250 6
  23880125.440    -5305009.765 5  -4077680.527 5
  23961524.331    -1241699.085 4   -791451.006 1
  23241090.604     1722343.863 5   1377236.477 5
  20580112.605   -22805468.611 7 -17696018.561 8
  21864127.120   -14062428.394 6 -10889269.777 6
 94  2 16 22  9 29.9990000  0  8 27 18  2 28 16 29 19 31
  20981672.222   -18763628.725 7 -14554923.563 7
  20900287.206      273725.242 7    270516.864 7
  22646031.433   -11353196.683 6  -8688006.556 6
  23890597.808    -5250017.715 5  -4034829.611 4
  23954474.144    -1278797.841 4   -820359.088 2
  23259009.284     1816568.635 5   1450658.227 5
  20579506.925   -22808641.466 7 -17698490.913 8
  21864428.425   -14060864.478 6 -10888051.106 6
 94  2 16 22  9 59.9990000  0  8 27 18  2 28 16 29 19 31
  20972330.183   -18812726.730 7 -14593181.710 7
  20911704.972      333738.596 7    317280.479 7
  22631552.940   -11429291.929 6  -8747301.520 6
  23901150.628    -5194551.197 5  -3991608.992 4
  23947505.847    -1315400.098 4   -848880.314 1
  23276992.472     1911018.205 5   1524255.161 4
  20578945.128   -22811609.490 7 -17700803.650 8
  21864844.073   -14058688.155 6 -10886355.237 6
 94  2 16 22 10 29.9990000  0  8 27 18  2 28 16 29 19 31
  20963018.792   -18861675.630 7 -14631323.689 7
  20923205.722      394180.798 7    364378.260 7
  22617119.362   -11505103.015 6  -8806375.054 6
  23911784.729    -5138606.985 5  -3948016.133 3
  23940641.190    -1351491.578 4   -877003.505 1
  23295009.612     2005686.984 5   1598022.868 4
  20578415.956   -22814385.838 7 -17702967.019 8
  21865368.644   -14055909.627 6 -10884190.143 6
 94  2 16 22 10 59.9990000  0  8 27 18  2 28 16 29 19 31
  20953732.042   -18910467.917 7 -14669343.624 7
  20934793.136      455069.823 7    411824.207 7
  22602751.456   -11580635.067 6  -8865231.157 6
  23922523.464    -5082210.031 5  -3904070.494 3
  23933861.058    -1387067.076 3   -904724.673 1
  23313056.112     2100570.051 5   1671957.551 3
  20577923.487   -22816977.863 7 -17704986.759 8
  21866005.800   -14052537.934 6 -10881562.828 7
 94  2 16 22 11 29.9990000  0  8 27 18  2 28 16 29 19 31
  20944475.394   -18959093.948 7 -14707234.020 7
  20946466.526      516407.118 7    459619.479 7
  22588433.870   -11655882.469 6  -8923865.449 6
  23933340.089    -5025375.446 5  -3859783.861 4
  23927197.331    -1422112.002 3   -932032.375 3
  23331154.589     2195670.328 5   1746061.566 5
  20577466.784   -22819387.278 7 -17706864.228 8
  21866762.276   -14048575.973 6 -10878475.579 7
 94  2 16 22 11 59.9990000  0  8 27 18  2 28 16 29 19 31
  20935254.347   -19007554.937 7 -14744995.801 7
  20958225.706      578179.805 7    507753.987 7
  22574163.058   -11730869.691 6  -8982297.001 6
  23944228.440    -4968110.060 5  -3815161.512 5
  23920625.808    -1456631.268 3   -958930.476 2
  23349299.987     2290985.454 5   1820332.907 4
  20577041.675   -22821612.862 7 -17708598.439 8
  21867630.933   -14044028.771 6 -10874932.304 7
 94  2 16 22 12 29.9990000  0  8 27 18  2 28 16 29 19 31
  20926065.855   -19055853.807 7 -14782631.252 7
  20970058.362      640386.486 7    556226.690 7
  22559941.167   -11805609.208 6  -9040535.520 6
  23955222.065    -4910420.094 4  -3770208.322 4
  23914160.237    -1490647.367 3   -985436.511 2
  23367477.511     2386499.757 5   1894759.482 4
  20576651.073   -22823659.102 7 -17710192.900 8
  21868599.128   -14038896.914 6 -10870933.456 6
 94  2 16 22 12 59.9990000  0  8 27 18  2 28 16 29 19 31
  20916907.894   -19103962.084 7 -14820118.173 7
  20981981.284      703026.815 7    605037.295 7
  22545765.112   -11880088.341 6  -9098571.141 6
  23966274.644    -4852300.945 5  -3724920.696 3
  23907774.339    -1524150.494 3  -1011542.796 1
  23385683.769     2482218.811 5   1969345.622 3
  20576302.456   -22825494.905 7 -17711623.387 8
  21869697.878   -14033165.838 6 -10866467.646 6
 94  2 16 22 13 29.9990000  0  8 27 18  2 28 16 29 19 31
  20907791.222   -19151874.407 7 -14857452.429 7
  20993972.386      766074.381 7    654165.238 7
  22531639.081   -11954316.349 6  -9156411.103 6
  23977423.503    -4793742.906 5  -3679291.065 4
  23901500.620    -1557140.458 3  -1037249.243 1
  23403944.964     2578131.054 5   2044082.312 3
  20575996.073   -22827108.885 7 -17712881.023 8
  21870898.831   -14026840.883 6 -10861539.094 7
 94  2 16 22 13 59.9990000  0  8 27 18  2 28 16 29 19 31
  20898708.769   -19199599.204 7 -14894640.548 7
  21006051.175      829526.595 7    703608.484 7
  22517568.089   -12028295.249 6  -9214056.927 6
  23988642.261    -4734737.463 4  -3633312.839 4
  23895320.058    -1589619.251 3  -1062557.422 1
  23422233.917     2674231.948 5   2118965.970 4
  20575728.558   -22828499.005 7 -17713964.227 8
  21872215.183   -14019919.832 6 -10856146.073 7
 94  2 16 22 14 29.9990000  0  8 27 18  2 28 16 29 19 31
  20889664.542   -19247138.929 7 -14931684.469 7
  21018204.292      893389.307 7    753371.589 7
  22503533.847   -12102018.341 6  -9271503.415 6
  23999961.729    -4675291.774 5  -3586991.541 4
  23889239.675    -1621586.842 3  -1087467.198 2
  23440551.128     2770518.831 5   2193994.566 3
  20575503.331   -22829677.242 7 -17714882.317 8
  21873647.808   -14012411.135 6 -10850295.145 6
 94  2 16 22 14 59.9990000  0  8 27 18  2 28 16 29 19 31
  20880654.612   -19294486.003 7 -14968578.258 7
  21030435.964      957667.375 7    803458.374 7
  22489556.425   -12175481.253 6  -9328747.174 6
  24011355.675    -4615404.329 4  -3540326.012 3
  23883261.433    -1653019.015 4  -1111959.800 1
  23458915.519     2867006.721 5   2269179.797 4
  20575321.495   -22830640.161 7 -17715632.620 8
  21875186.276   -14004313.469 6 -10843985.244 6
 94  2 16 22 15 29.9990000  0  8 27 18  2 28 16 29 19 31
  20871674.714   -19341664.299 7 -15005340.525 7
  21042746.495     1022368.318 7    853874.644 7
  22475625.909   -12248697.519 6  -9385798.747 6
  24022830.706    -4555078.574 5  -3493318.970 4
  23877379.729    -1683932.421 4  -1136048.157 2
  23477306.565     2963694.457 5   2344520.715 3
  20575173.550   -22831415.174 7 -17716236.524 8
  21876833.620   -13995638.500 6 -10837225.486 6
 94  2 16 22 15 59.9990000  0  8 27 18  2 28 16 29 19 31
  20862727.050   -19388677.108 7 -15041973.851 7
  21055149.745     1087522.629 7    904644.200 7
  22461735.144   -12321665.519 6  -9442656.847 6
  24034387.729    -4494321.115 4  -3445975.519 3
  23871589.636    -1714336.809 4  -1159739.865 2
  23495756.081     3060588.699 4   2420022.586 4
  20575061.347   -22832010.958 7 -17716700.755 8
  21878595.745   -13986390.765 6 -10830019.440 6
 94  2 16 22 16 29.9990000  0  8 27 18  2 28 16 29 19 31
  20853812.448   -19435517.576 7 -15078472.891 7
  21067630.675     1153132.530 7    955768.766 6
  22447903.698   -12394381.615 6  -9499318.686 6
  24046042.550    -4433141.763 5  -3398303.329 2
  23865905.706    -1744240.093 3  -1183041.089 2
  23514226.292     3157703.676 4   2495696.414 2
  20574983.894   -22832415.930 7 -17717016.295 8
  21880463.394   -13976568.857 6 -10822366.000 7
 94  2 16 22 16 59.9990000  0  8 27 18  2 28 16 29 19 31
  20844936.612   -19482177.370 7 -15114831.150 7
  21080202.472     1219195.924 7   1007246.709 7
  22434110.784   -12466838.885 6  -9555778.837 6
  24057767.073    -4371523.734 5  -3350289.326 4
  23860301.776    -1773631.781 4  -1205943.697 2
  23532761.878     3255055.036 5   2571554.433 3
  20574947.128   -22832604.857 7 -17717163.503 8
  21882451.854   -13966141.683 6 -10814240.915 6
 94  2 16 22 17 29.9990000  0  8 27 18  2 28 16 29 19 31
  20836087.870   -19528674.579 7 -15151062.722 8
  21092860.979     1285694.386 7   1059063.654 6
  22420372.909   -12539038.432 6  -9612038.160 6
  24069571.394    -4309478.539 5  -3301942.459 4
  23854799.433    -1802525.606 4  -1228458.338 2
  23551317.331     3352624.577 3   2647582.461 3
  20574952.089   -22832583.010 7 -17717146.467 8
  21884549.628   -13955104.854 7 -10805640.754 6
 94  2 16 22 17 59.9990000  0  8 27 18  2 28 16 29 19 31
  20827272.331   -19574999.184 7 -15187159.786 8
  21105587.354     1352606.804 7   1111203.164 6
  22406684.425   -12610961.859 6  -9668082.339 6
  24081462.175    -4247004.643 5  -3253261.563 4
  23849405.597    -1830897.298 4  -1250566.152 2
  23569924.987     3450413.082 4   2723781.159 4
  20574999.854   -22832333.111 7 -17716951.711 8
  21886768.808   -13943440.365 6 -10796551.495 6
 94  2 16 22 18 29.9990000  0  8 27 18  2 28 16 29 19 31
  20818489.487   -19621151.108 7 -15223122.294 8
  21118396.956     1419908.624 7   1163646.113 6
  22393055.847   -12682598.188 6  -9723902.797 6
  24093434.995    -4184095.254 5  -3204241.275 2
  23844120.706    -1858717.278 4  -1272244.065 2
  23588586.354     3548422.254 5   2800151.767 3
  20575095.198   -22831845.842 7 -17716572.000 8
  21889113.659   -13931125.912 6 -10786955.820 6
 94  2 16 22 18 59.9990000  0  8 27 18  2 28 16 29 19 31
  20809736.831   -19667148.617 7 -15258964.479 8
  21131272.323     1487586.664 7   1216382.208 7
  22379471.058   -12753966.772 6  -9779514.629 6
  24105486.480    -4120759.295 5  -3154888.634 2
  23838931.550    -1885984.148 3  -1293490.981 2
  23607269.269     3646614.906 4   2876665.330 3
  20575227.229   -22831147.774 7 -17716028.044 8
  21891582.058   -13918172.315 6 -10776862.085 6
 94  2 16 22 19 29.9990000  0  8 27 18  2 28 16 29 19 31
  20801017.667   -19712988.011 7 -15294683.463 8
  21144229.167     1555653.099 7   1269420.951 6
  22365945.472   -12825054.040 6  -9834907.248 6
  24117611.315    -4057003.068 5  -3105208.496 3
  23833843.745    -1912696.567 3  -1314305.866 2
  23625975.683     3744977.631 5   2953311.458 2
  20575395.956   -22830247.461 7 -17715326.484 8
  21894160.136   -13904601.385 6 -10766287.314 6
 94  2 16 22 19 59.9990000  0  8 27 18  2 28 16 29 19 31
  20792325.487   -19758658.647 7 -15330270.954 8
  21157254.698     1624112.894 7   1322766.214 7
  22352470.831   -12895861.842 6  -9890082.098 6
  24129830.972    -3992826.005 5  -3055200.473 4
  23828859.175    -1938867.893 3  -1334699.082 2
  23644727.190     3843496.560 5   3030079.344 3
  20575607.081   -22829150.099 7 -17714471.390 8
  21896854.292   -13890435.225 6 -10755248.721 6
 94  2 16 22 20 29.9990000  0  8 27 18  2 28 16 29 19 31
  20783669.253   -19804149.927 7 -15365718.668 8
  21170363.042     1692983.816 7   1376431.834 6
  22339049.839   -12966390.192 6  -9945039.213 6
  24142124.604    -3928230.722 5  -3004866.504 3
  23823992.433    -1964510.770 4  -1354680.543 2
  23663519.815     3942166.589 5   3106964.903 4
  20575855.175   -22827857.689 7 -17713464.302 8
  21899662.042   -13875691.473 6 -10743760.066 6
 94  2 16 22 20 59.9990000  0  8 27 18  2 28 16 29 19 31
  20775046.089   -19849453.504 7 -15401020.130 8
  21183547.128     1762262.894 7   1430415.490 7
  22325687.261   -13036635.807 6  -9999776.012 6
  24154491.112    -3863217.326 5  -2954206.765 3
  23819199.370    -1989643.475 4  -1374264.491 2
  23682308.776     4040976.982 4   3183959.862 1
  20576130.323   -22826377.019 7 -17712310.530 8
  21902571.870   -13860398.649 6 -10731843.533 6
 94  2 16 22 21 29.9990000  0  8 27 18  2 28 16 29 19 31
  20766463.917   -19894553.492 7 -15436162.948 8
  21196801.433     1831943.800 7   1484712.265 7
  22312369.190   -13106589.515 6 -10054285.332 6
  24166941.628    -3797789.502 5  -2903224.113 2
  23814520.769    -2014267.285 5  -1393451.875 3
  23701139.065     4139943.647 4   3261076.580 1
  20576452.683   -22824697.060 7 -17711001.473 8
  21905583.698   -13844557.450 6 -10719499.707 6
 94  2 16 22 21 59.9990000  0  8 27 18  2 28 16 29 19 31
  20757922.565   -19939430.912 7 -15471132.344 8
  21210141.026     1902020.455 7   1539317.422 6
  22299113.378   -13176256.197 6 -10108571.018 6
  24179475.472    -3731942.298 5  -2851914.659 4
  23809933.362    -2038372.506 5  -1412235.157 2
  23720009.644     4239084.425 5   3338328.985 2
  20576815.612   -22822798.609 7 -17709522.150 8
  21908710.206   -13828145.001 6 -10706710.759 6
 94  2 16 22 22 29.9990000  0  8 27 18  2 28 16 29 19 31
  20749420.245   -19984109.613 7 -15505946.875 8
  21223550.159     1972476.541 7   1594218.221 6
  22285905.034   -13245662.925 6 -10162654.131 6
  24192082.550    -3665693.012 5  -2800291.888 3
  23805447.597    -2061961.884 5  -1430616.512 3
  23738912.479     4338407.740 5   3415723.636 2
  20577219.683   -22820676.981 7 -17707868.924 8
  21911942.698   -13811155.389 6 -10693472.059 6
 94  2 16 22 22 59.9990000  0  8 27 18  2 28 16 29 19 31
  20740959.886   -20028586.097 7 -15540603.852 8
  21237030.425     2043324.515 7   1649424.397 7
  22272747.300   -13314805.337 6 -10216531.289 6
  24204761.292    -3599029.772 5  -2748346.575 3
  23801043.073    -2085020.623 3  -1448584.333 1
  23757851.808     4437935.053 5   3493277.201 1
  20577666.487   -22818317.867 7 -17706030.658 8
  21915291.003   -13793559.591 6 -10679761.013 6
 94  2 16 22 23 29.9990000  0  8 27 18  2 28 16 29 19 31
  20732529.667   -20072866.499 7 -15575108.019 8
  21250589.300     2114571.661 7   1704941.617 7
  22259637.097   -13383697.601 6 -10270213.516 6
  24217526.331    -3531973.888 5  -2696095.296 3
  23796759.940    -2107563.030 4  -1466149.875 2
  23776826.558     4537665.959 5   3570989.448 2
  20578165.534   -22815720.249 7 -17704006.540 8
  21918754.714   -13775342.165 6 -10665565.604 6
 94  2 16 22 23 59.9990000  0  8 27 18  2 28 16 29 19 31
  20724142.089   -20116964.923 7 -15609470.400 8
  21264220.667     2186224.032 7   1760774.600 6
  22246575.425   -13452341.752 6 -10323702.412 6
  24230360.581    -3464516.483 5  -2643531.145 2
  23792581.151    -2129596.395 4  -1483318.728 1
  23795839.058     4637586.607 3   3648849.516 3
  20578701.972   -22812884.527 7 -17701796.879 8
  21922342.034   -13756503.975 6 -10650886.480 6
 94  2 16 22 24 29.9990000  0  8 27 18  2 28 16 29 19 31
  20715780.808   -20160892.989 7 -15643700.027 8
  21277936.222     2258291.869 7   1816931.320 6
  22233560.394   -13520736.220 6 -10376996.745 6
  24243280.151    -3396652.669 5  -2590650.308 2
  23788476.042    -2151116.255 4  -1500087.461 2
  23814900.058     4737688.415 4   3726850.736 2
  20579280.940   -22809827.421 7 -17699414.721 8
  21926043.784   -13737055.453 6 -10635731.762 6
 94  2 16 22 24 59.9990000  0  8 27 18  2 28 16 29 19 31
  20707450.417   -20204642.221 7 -15677790.303 8
  21291726.558     2330759.224 7   1873399.358 6
  22220591.644   -13588871.440 6 -10430089.069 6
  24256265.964    -3328401.518 4  -2537467.663 2
  23784464.925    -2172133.699 4  -1516464.662 3
  23833963.159     4837937.962 4   3804967.097 2
  20579899.034   -22806579.333 7 -17696883.748 8
  21929853.823   -13717023.473 6 -10620122.411 6
 94  2 16 22 25 29.9990000  0  8 27 18  2 28 16 29 19 31
  20699168.683   -20248201.150 7 -15711732.289 8
  21305591.042     2403631.835 7   1930183.162 6
  22207681.362   -13656732.169 6 -10482967.499 6
  24269330.019    -3259751.005 5  -2483973.841 2
  23780572.198    -2192636.253 4  -1532440.664 3
  23853067.651     4938328.369 4   3883193.200 2
  20580557.253   -22803124.726 7 -17694191.849 8
  21933778.542   -13696406.239 6 -10604056.999 6
 94  2 16 22 25 59.9990000  0  8 27 18  2 28 16 29 19 31
  20690912.128   -20291571.996 7 -15745527.721 8
  21319535.581     2476904.559 7   1987278.757 6
  22194814.831   -13724314.025 6 -10535628.624 6
  24282452.862    -3190686.836 4  -2430157.624 2
  23776766.534    -2212604.191 3  -1548000.083 2
  23872205.144     5038858.487 3   3961528.183 2
  20581256.089   -22799465.207 7 -17691340.271 8
  21937811.026   -13675206.331 7 -10587537.562 6
 94  2 16 22 26 29.9990000  0  8 27 18  2 28 16 29 19 31
  20682696.206   -20334739.595 7 -15779164.774 8
  21333558.026     2550573.464 7   2044683.066 6
  22182021.300   -13791601.904 6 -10588060.694 6
  24295690.526    -3121225.664 4  -2376032.121 1
  23773073.581    -2232022.878 4  -1563131.552 2
  23891373.495     5139541.161 3   4039982.043 2
  20581991.714   -22795594.520 7 -17688324.155 8
  21941959.737   -13653411.480 6 -10570554.556 6
 94  2 16 22 26 59.9990000  0  8 27 18  2 28 16 29 19 31
  20674524.917   -20377700.069 7 -15812640.435 8
  21347647.534     2624619.986 7   2102381.621 6
  22169267.604   -13858597.371 6 -10640264.888 6
  24308981.214    -3051380.937 4  -2321607.729 1
  23769479.276    -2250907.243 3  -1577846.594 2
  23910545.511     5240366.918 3   4118547.362 2
  20582775.378   -22791496.786 7 -17685131.109 8
  21946222.206   -13631020.983 6 -10553107.412 6
 94  2 16 22 27 29.9990000  0  8 27 18  2 28 16 29 19 31
  20666380.456   -20420477.892 7 -15845973.775 8
  21361802.034     2699034.802 7   2160367.170 6
  22156573.409   -13925323.311 6 -10692259.074 6
  24322344.729    -2981151.779 4  -2266883.768 2
  23765986.948    -2269262.323 4  -1592149.274 2
  23929751.800     5341333.029 3   4197222.080 2
  20583595.886   -22787174.035 7 -17681762.723 8
  21950597.058   -13608033.163 6 -10535194.814 6
 94  2 16 22 27 59.9990000  0  8 27 18  2 28 16 29 19 31
  20658284.628   -20463055.559 7 -15879151.142 8
  21376039.190     2773827.229 7   2218646.947 6
  22143920.487   -13991764.209 6 -10744031.135 6
  24335779.831    -2910547.349 3  -2211867.379 1
  23762600.862    -2287078.985 5  -1606032.383 4
  23949002.683     5442468.723 3   4276028.935 2
  20584463.190   -22782620.630 7 -17678214.606 8
  21955087.073   -13584435.653 6 -10516807.141 6
 94  2 16 22 28 29.9990000  0  8 27 18  2 28 16 29 19 31
  20650222.112   -20505419.881 7 -15912162.270 8
  21390345.495     2849019.419 7   2277238.230 6
  22131346.362   -14057900.476 6 -10795565.825 6
  24349298.886    -2839566.253 3  -2156557.485 1
  23759309.761    -2304349.779 5  -1619490.163 2
  23968291.222     5543782.817 4   4354974.769 2
  20585373.261   -22777819.599 7 -17674473.538 8
  21959693.604   -13560223.842 6 -10497940.804 6
 94  2 16 22 28 59.9990000  0  8 27 18  2 28 16 29 19 31
  20642198.519   -20547582.541 7 -15945016.260 8
  21404734.964     2924616.677 7   2336145.152 6
  22118808.292   -14123750.309 6 -10846877.318 6
  24362862.815    -2768208.508 3  -2100954.105 1
  23756134.909    -2321084.984 5  -1632530.598 3
  23987586.050     5645264.093 3   4434050.907 2
  20586333.323   -22772791.867 7 -17670555.820 8
  21964413.261   -13535412.994 6 -10478607.681 6
 94  2 16 22 29 29.9990000  0  8 27 18  2 28 16 29 19 31
  20634211.644   -20589541.378 7 -15977711.417 8
  21419198.745     3000628.591 7   2395375.176 6
  22106332.995   -14189305.402 6 -10897959.149 6
  24376527.519    -2696475.752 3  -2045058.497 1
  23753054.909    -2337268.925 5  -1645141.479 3
  24006958.120     5746931.382 3   4513271.951 2
  20587329.026   -22767550.007 7 -17666471.238 8
  21969251.565   -13509995.594 6 -10458801.915 6
 94  2 16 22 29 59.9990000  0  8 27 18  2 28 16 29 19 31
  20626271.401   -20631277.525 7 -16010233.057 8
  21433745.690     3077061.661 7   2454933.376 6
  22093920.401   -14254554.073 6 -10948802.213 6
  24390233.245    -2624364.657 3
  23750078.534    -2352899.844 4  -1657321.403 2
  24026341.737     5848788.041 4   4592640.563 2
  20588366.159   -22762082.752 7 -17662211.035 8
  21974206.128   -13483969.220 6 -10438521.620 6
 94  2 16 22 30 29.9990000  0  8 27 18  2 28 16 29 19 31
  20618370.003   -20672799.402 7 -16042587.733 8
  21448362.534     3153889.882 7   2514799.476 6
  22081555.683   -14319518.527 6 -10999423.798 6
  24404028.401    -2551870.773 2        -0.39411
  23747214.300    -2367990.737 5  -1669080.534 2
  24045751.519     5950797.997 4   4672128.690 1
  20589450.815   -22756409.741 7 -17657790.503 8
  21979268.815   -13457357.780 6 -10417785.433 6
 94  2 16 22 30 59.9990000  0  7 27 18  2 16 29 19 31
  20610507.683   -20714096.881 7 -16074767.552 8
  21463051.019     3231077.053 7   2574945.295 6
  22069244.776   -14384213.061 6 -11049835.063 6
  23744435.722    -2382554.379 5  -1680428.834 2
  24065180.386     6052961.325 3   4751736.265 2
  20590565.331   -22750533.205 7 -17653211.380 8
  21984442.362   -13430166.502 6 -10396597.433 6
 94  2 16 22 31 29.9990000  0  7 27 18  2 16 29 19 31
  20602690.292   -20755175.211 7 -16106776.617 8
  21477800.237     3308597.021 7   2635350.418 6
  22056983.964   -14448644.930 6 -11100041.646 6
  23741757.065    -2396605.660 4  -1691377.905 2
  24084630.042     6155258.014 1   4831447.824 2
  20591724.479   -22744444.899 7 -17648467.228 8
  21989723.581   -13402410.207 6 -10374969.154 6
 94  2 16 22 31 59.9990000  0  6 27 18  2 16 19 31
  20594915.183   -20796039.628 7 -16138618.989 8
  21492612.980     3386441.160 7   2696008.164 6
  22044775.831   -14512815.831 6 -11150044.880 6
  23739171.425    -2410152.208 4  -1701933.646 2
  20592924.972   -22738138.104 7 -17643552.846 8
  21995110.401   -13374110.321 6 -10352917.286 6
 94  2 16 22 32 29.9990000  0  7 27 18  2 16 29 19 31
  20587183.886   -20836682.922 7 -16170289.065 8
  21507493.472     3464623.129 7   2756929.124 6
  22032614.761   -14576706.459 6 -11199829.729 6
  23736698.019    -2423173.528 4  -1712080.094 2
  24123650.284       51280.97913
  20594170.261   -22731599.172 7 -17638457.566 8
  22000597.925   -13345261.410 6 -10330437.593 6
 94  2 16 22 32 59.9990000  0  7 27 18  2 16 29 19 31
  20579492.745   -20877101.354 7 -16201783.916 8
  21522440.026     3543172.329 7   2818136.256 6
  22020514.081   -14640291.820 6 -11249376.704 6
  23734330.409    -2435658.321 5  -1721808.498 2
  24143203.597      153958.163 2     40015.71911
  20595461.073   -22724807.700 7 -17633165.505 7
  22006198.815   -13315836.310 6 -10307508.934 6
 94  2 16 22 33 29.9990000  0  7 27 18  2 16 29 19 31
  20571835.011   -20917326.645 7 -16233128.265 8
  21537459.542     3622104.608 7   2879641.887 6
  22008476.214   -14703586.313 6 -11298697.009 6
  23732062.230    -2447612.676 5  -1731123.591 2
  24162737.784      256762.919 2    120123.085 1
  20596798.214   -22717780.695 7 -17627689.912 8
  22011905.573   -13285845.524 6 -10284139.484 6
 94  2 16 22 33 59.9990000  0  7 27 18  2 16 29 19 31
  20564215.206   -20957361.741 7 -16264324.416 8
  21552555.456     3701420.232 7   2941446.219 6
  21996479.987   -14766600.262 6 -11347798.737 6
  23729884.159    -2459046.439 5  -1740033.010 2
  24182334.261      359698.565 3    200332.483 1
  20598182.456   -22710527.569 7 -17622038.129 8
  22017724.261   -13255281.038 6 -10260322.985 6
 94  2 16 22 34 29.9990000  0  7 27 18  2 16 29 19 31
  20556632.792   -20997220.670 7 -16295383.293 8
  21567717.269     3781111.430 6   3003543.214 6
  21984543.190   -14829340.223 6 -11396686.943 6
  23727791.925    -2469975.978 4  -1748549.509 3
  24201952.433      462769.305 4    280647.150 1
  20599603.175   -22703058.032 7 -17616217.712 8
  22023649.808   -13224135.153 6 -10236053.467 6
 94  2 16 22 34 59.9990000  0  7 27 18  2 16 29 19 31
  20549079.464   -21036911.254 7 -16326310.986 8
  21582954.105     3861166.787 7   3065923.963 6
  21972653.862   -14891809.261 6 -11445364.060 6
  23725807.464    -2480412.411 4  -1756681.778 4
  24221596.706      565973.525 4    361065.830 1
  20601062.308   -22695369.436 7 -17610226.594 8
  22029686.019   -13192408.229 6 -10211331.184 6
 94  2 16 22 35 29.9990000  0  7 27 18  2 16 29 19 31
  20541563.089   -21076423.911 7 -16357100.041 8
  21598246.214     3941573.704 6   3128578.666 6
  21960820.105   -14954007.606 6 -11493830.233 6
  23723918.901    -2490345.109 4  -1764421.541 3
  24241259.011      669306.459 3    441584.761 2
  20602570.229   -22687451.586 7 -17604056.845 8
  22035836.659   -13160098.821 6 -10186155.039 6
 94  2 16 22 35 59.9990000  0  7 27 18  2 16 29 19 31
  20534076.550   -21115752.061 7 -16387745.327 8
  21613615.448     4022314.914 6   3191493.838 6
  21949033.605   -15015922.954 6 -11542075.889 6
  23722129.081    -2499782.768 5  -1771775.539 3
  24260930.417      772749.708 3    522189.626 2
  20604121.151   -22679310.669 7 -17597713.274 8
  22042096.003   -13127213.125 6 -10160529.830 6
 94  2 16 22 36 29.9990000  0  7 27 18  2 16 29 19 31
  20526626.440   -21154903.940 7 -16418253.259 8
  21629037.175     4103379.032 6   3254660.637 6
  21937311.956   -15077557.397 6 -11590102.661 6
  23720428.565    -2508723.819 4  -1778742.587 2
  24280645.089      876274.810 3    602858.288 2
  20605711.190   -22670954.168 7 -17591201.711 8
  22048454.151   -13093779.634 6 -10134477.745 6
 94  2 16 22 36 59.9990000  0  7 27 18  2 16 29 19 31
  20519221.440   -21193812.198 7 -16448571.360 8
  21644542.190     4184815.397 6   3318117.491 6
  21925633.862   -15138876.306 6 -11637883.565 6
  23718819.565    -2517112.732 5  -1785279.391 1
  24300359.917      979904.757 3    683608.629 2
  20607348.128   -22662339.027 7 -17584488.611 8
  22054929.776   -13059748.237 6 -10107959.777 6
 94  2 16 22 37 29.9990000  0  7 27 18  2 16 29 19 31
  20511862.933   -21232476.490 7 -16478699.346 8
  21660107.589     4266612.105 6   3381855.135 6
  21914024.698   -15199900.093 6 -11685434.494 6
  23717329.628    -2524955.383 4  -1791390.534 2
  24320096.909     1083623.093 4    764427.918 1
  20609032.558   -22653484.643 7 -17577589.077 8
  22061517.800   -13025126.471 6 -10080981.788 6
 94  2 16 22 37 59.9990000  0  7 27 18  2 16 29 19 31
  20504551.300   -21270903.579 7 -16508642.510 8
  21675739.097     4348764.217 6   3445869.710 6
  21902468.276   -15260642.645 6 -11732766.278 6
  23715951.097    -2532264.128 5  -1797085.640 2
  24339860.261     1187428.857 5    845315.294 2
  20610763.933   -22644394.653 7 -17570505.965 8
  22068218.683   -12989931.170 6 -10053556.893 6
 94  2 16 22 38 29.9990000  0  7 27 18  2 16 29 19 31
  20497284.073   -21309093.223 7 -16538400.655 8
  21691439.886     4431257.045 6   3510149.781 6
  21890956.995   -15321123.727 6 -11779894.312 6
  23714662.433    -2539032.356 5  -1802359.601 2
  24359635.183     1291337.039 4    926282.417 2
  20612540.831   -22635067.396 7 -17563237.966 8
  22075022.425   -12954168.364 6 -10025689.780 6
 94  2 16 22 38 59.9990000  0  7 27 18  2 16 29 19 31
  20490066.604   -21347041.966 7 -16567971.068 8
  21707198.206     4514093.340 6   3574697.486 6
  21879501.940   -15381341.330 6 -11826817.046 6
  23713474.440    -2545257.300 5  -1807210.197 2
  24379431.237     1395371.842 3   1007348.258 1
  20614357.456   -22625501.992 7 -17555784.394 8
  22081935.823   -12917819.191 6  -9997365.759 6
 94  2 16 22 39 29.9990000  0  7 27 18  2 16 29 19 31
  20482878.831   -21384797.671 7 -16597391.066 8
  21723022.519     4597233.659 6   3639482.088 6
  21868085.417   -15441331.267 6 -11873562.376 7
  23712375.378    -2550989.071 4  -1811676.506 2
  24399250.659     1499514.996 3   1088498.563 1
  20616218.456   -22615724.287 7 -17548165.395 8
  22088961.573   -12880935.790 6  -9968625.473 6
 94  2 16 22 39 59.9990000  0  7 27 18  2 16 29 19 31
  20475733.784   -21422342.504 7 -16626646.761 8
  21738904.222     4680704.446 6   3704524.217 6
  21856712.354   -15501066.070 6 -11920108.899 6
  23711371.003    -2556225.496 4  -1815756.828 2
  24419073.300     1603780.605 2   1169744.276 1
  20618124.300   -22605722.419 7 -17540371.723 8
  22096081.526   -12843508.791 6  -9939461.580 6
 94  2 16 22 40 29.9990000  0  8 27 18  2  7 16 29 19 31
  20468641.315   -21459620.488 7 -16655694.523 8
  21754862.987     4764561.218 6   3769867.095 6
  21845409.479   -15560480.450 6 -11966405.744 7
  24521626.565          -0.59613
  23710496.394    -2560919.144 5  -1819414.220 1
  24438946.667          -0.60913
  20620077.589   -22595448.930 7 -17532366.400 8
  22103311.526   -12805484.077 6  -9909831.945 6
 94  2 16 22 40 59.9990000  0  7 27 18  2  7 16 19 31
  20461597.308   -21496627.293 7 -16684530.966 8
  21770898.464     4848814.051 6   3835518.595 6
  21834164.933   -15619555.361 6 -12012438.066 7
  24500259.792     -112176.978 3
  23709699.190    -2565086.581 5  -1822661.574 2
  20622086.034   -22584895.982 7 -17524143.315 8
  22110665.565   -12766856.969 6  -9879732.907 6
 94  2 16 22 41 29.9990000  0  7 27 18  2  7 16 19 31
  20454603.612   -21533395.667 7 -16713181.624 8
  21786997.995     4933420.420 6   3901445.571 6
  21822982.144   -15678318.144 6 -12058227.177 7
  24478915.995     -224377.792 3
  23708996.604    -2568770.975 5  -1825532.546 2
  20624140.229   -22574097.196 7 -17515728.661 8
  22118122.284   -12727670.132 6  -9849197.721 6
 94  2 16 22 41 59.9990000  0  7 27 18  2  7 16 19 31
  20447651.339   -21569914.472 7 -16741637.818 8
  21803160.745     5018372.467 6   3967641.907 6
  21811866.948   -15736750.791 6 -12103759.037 7
  24457582.120     -336570.693 3    -43710.31811
  23708392.253    -2571950.614 5  -1828010.161 2
  20626242.565   -22563053.902 7 -17507123.492 8
  22125689.409   -12687906.291 6  -9818212.917 6
 94  2 16 22 42 29.9990000  0  7 27 18  2  7 16 19 31
  20440745.355   -21606196.292 7 -16769909.345 8
  21819386.784     5103639.513 6   4034083.706 6
  21800807.206   -15794869.236 6 -12149046.062 7
  24436227.237     -448748.457 4   -131121.245 1
  23707885.464    -2574620.624 5  -1830090.705 2
  20628386.128   -22551769.057 7 -17498330.089 8
  22133363.175   -12647574.017 6  -9786785.178 6
 94  2 16 22 42 59.9990000  0  7 27 18  2  7 16 19 31
  20433888.433   -21642250.401 7 -16798003.440 8
  21835671.440     5189212.951 6   4100764.238 6
  21789803.667   -15852687.165 6 -12194098.919 7
  24414866.245     -560905.289 4   -218515.892 1
  23707480.394    -2576772.096 5  -1831767.164 2
  20630579.073   -22540258.048 7 -17489360.486 8
  22141147.323   -12606673.507 6  -9754914.663 6
 94  2 16 22 43 29.9990000  0  7 27 18  2  7 16 19 31
  20427066.573   -21678085.065 7 -16825926.542 8
  21852013.229     5275095.379 6   4167685.550 6
  21778854.073   -15910232.347 6 -12238939.245 6
  24393535.167     -673050.377 4   -305901.399 1
  23707154.315    -2578381.887 4  -1833021.524 2
  20632811.448   -22528530.326 7 -17480222.012 8
  22149035.112   -12565213.335 6  -9722608.028 6
 94  2 16 22 43 59.9990000  0  7 27 18  2  7 16 19 31
  20420293.784   -21713692.008 7 -16853672.201 8
  21868417.128     5361287.988 6   4234848.555 6
  21767954.323   -15967510.689 6 -12283571.635 7
  24372191.761     -785197.582 4   -393288.554 1
  23706958.581    -2579447.962 5  -1833852.216 2
  20635085.276   -22516584.886 7 -17470913.878 8
  22157030.839   -12523206.413 6  -9689875.374 6
 94  2 16 22 44 29.9990000  0  7 27 18  2  7 16 19 31
  20413558.440   -21749068.625 7 -16881238.379 8
  21884883.722     5447798.500 6   4302259.282 6
  21757101.886   -16024526.495 6 -12327999.467 6
  24350843.620     -897353.425 4   -480682.470 1
  23706864.144    -2579969.348 5  -1834258.458 2
  20637404.878   -22504405.997 7 -17461423.837 8
  22165125.683   -12480663.092 6  -9656724.764 6
 94  2 16 22 44 59.9990000  0  7 27 18  2  7 16 19 31
  20406869.636   -21784214.200 7 -16908624.529 8
  21901403.737     5534634.091 6   4369923.306 6
  21746303.026   -16081280.642 6 -12372223.400 6
  24329502.940    -1009520.214 4   -568084.900 1
  23706871.940    -2579956.608 5  -1834248.456 1
  20639767.104   -22491994.621 7 -17451752.633 8
  22173326.315   -12437591.619 6  -9623162.585 6
 94  2 16 22 45 29.9990000  0  7 27 18  2  7 16 19 31
  20400229.792   -21819118.371 7 -16935822.559 8
  21917986.519     5621789.397 6   4437836.476 6
  21735553.573   -16137761.188 6 -12416234.136 6
  24308163.925    -1121701.237 4   -655498.434 2
  23706971.933    -2579430.759 5  -1833838.809 2
  20642175.706   -22479333.659 7 -17441886.958 8
  22181620.073   -12394001.815 6  -9589196.514 6
 94  2 16 22 45 59.9990000  0  7 27 18  2  7 16 19 31
  20393639.401   -21853762.657 7 -16962818.094 8
  21934632.339     5709261.511 6   4505996.503 6
  21724867.058   -16193932.914 6 -12460004.224 6
  24286809.495    -1233870.610 3   -742902.861 2
  23707168.440    -2578400.233 5  -1833035.816 1
  20644636.401   -22466400.427 7 -17431809.121 8
  22190014.425   -12349873.396 6  -9554810.755 6
 94  2 16 22 46 29.9990000  0  7 27 18  2  7 16 19 31
  20387089.878   -21888158.189 7 -16989619.779 8
  21951344.331     5797055.992 6   4574407.732 6
  21714233.448   -16249795.719 6 -12503533.604 7
  24265474.894    -1346007.890 3   -830282.288 2
  23707455.933    -2576862.994 5  -1831837.965 2
  20647147.144   -22453193.498 7 -17421518.015 8
  22198522.417   -12305186.844 6  -9519990.074 6
 94  2 16 22 46 59.9990000  0  7 27 18  2  7 16 19 31
  20380591.073   -21922310.168 7 -17016231.695 8
  21968111.847     5885175.996 6   4643072.601 6
  21703667.683   -16305348.199 6 -12546821.170 7
  24244146.120    -1458115.252 3   -917638.435 1
  23707846.620    -2574825.758 5  -1830250.492 2
  20649711.870   -22439729.958 7 -17411026.948 8
  22207131.097   -12259927.144 6  -9484722.768 6
 94  2 16 22 47 29.9990000  0  7 27 18  2  7 16 19 31
  20374140.284   -21956227.629 7 -17042660.858 8
  21984938.925     5973606.451 6   4711979.381 6
  21693150.190   -16360605.511 6 -12589878.746 7
  24222816.323    -1570207.669 4  -1004982.982 1
  23708326.604    -2572296.051 5  -1828279.283 2
  20652321.831   -22426016.457 7 -17400341.116 8
  22215853.987   -12214094.669 6  -9449009.178 6
 94  2 16 22 47 59.9990000  0  7 27 18  2  7 16 19 31
  20367731.698   -21989910.551 7 -17068907.273 8
  22001822.894     6062347.617 6   4781128.277 6
  21682690.636   -16415570.517 6 -12632708.548 7
  24201495.847    -1682265.491 4  -1092300.530 1
  23708902.464    -2569254.003 5  -1825908.861 2
  20654975.714   -22412056.401 7 -17389463.147 8
  22224683.909   -12167676.599 6  -9412839.265 6
 94  2 16 22 48 29.9990000  0  7 27 18  2  7 16 19 31
  20361368.854   -22023349.938 7 -17094963.909 9
  22018774.042     6151409.218 6   4850526.872 6
  21672286.167   -16470250.260 6 -12675316.088 7
  24180173.917    -1794289.271 3  -1179591.545 1
  23709576.144    -2565693.240 5  -1823134.235 1
  20657678.237   -22397855.631 7 -17378397.616 8
  22233628.464   -12120683.427 6  -9376221.234 6
 94  2 16 22 48 59.9990000  0  7 27 18  2  7 16 19 31
  20355052.261   -22056534.802 7 -17120822.219 8
  22035782.565     6240790.868 6   4920174.840 6
  21661930.956   -16524651.548 6 -12717706.636 7
  24158851.339    -1906288.332 4  -1266863.305 2
  23710362.253    -2561616.217 5  -1819957.311 2
  20660428.620   -22383409.378 7 -17367140.806 8
  22242674.792   -12073138.809 6  -9339173.511 6
 94  2 16 22 49 29.9990000  0  7 27 18  2  7 16 19 31
  20348788.175   -22089434.209 7 -17146458.094 8
  22052848.456     6330505.574 6   4990082.349 6
  21651639.401   -16578757.635 7 -12759867.182 6
  24137553.620    -2018228.373 4  -1354089.097 2
  23711235.323    -2556999.605 5  -1816359.957 2
  20663229.276   -22368689.852 7 -17355671.046 8
  22251830.565   -12025042.236 6  -9301695.702 6
 94  2 16 22 49 59.9990000  0  7 27 18  2  7 16 19 31
  20342585.339   -22122041.798 7 -17171866.582 8
  22069995.659     6420566.674 6   5060259.759 6
  21641395.479   -16632562.234 6 -12801792.792 7
  24116267.128    -2130101.718 3  -1441262.910 3
  23712217.448    -2551832.946 5  -1812334.023 2
  20666079.105   -22353698.084 7 -17343989.140 8
  22261083.487   -11976403.101 6  -9263795.094 6
 94  2 16 22 50 29.9990000  0  7 27 18  2  7 16 19 31
  20336436.745   -22154356.785 7 -17197047.062 9
  22087195.112     6510979.744 6   5130711.416 6
  21631219.128   -16686070.128 6 -12843487.203 7
  24094988.980    -2241929.477 3  -1528401.185 2
  23713304.659    -2546121.142 5  -1807883.274 2
  20668989.800   -22338434.234 7 -17332095.255 8
  22270441.940   -11927228.883 6  -9225477.556 6
 94  2 16 22 50 59.9990000  0  7 27 18  2  7 16 19 31
  20330337.886   -22186399.925 7 -17222015.719 8
  22104463.253     6601722.723 6   5201420.190 5
  21621085.698   -16739279.448 6 -12884948.976 7
  24073712.097    -2353717.734 4  -1615508.716 2
  23714488.417    -2539868.769 4  -1803011.283 2
  20671939.776   -22322908.508 7 -17319997.292 8
  22279901.917   -11877519.607 6  -9186743.082 6
 94  2 16 22 51 29.9990000  0  7 27 18  2  7 16 19 31
  20324291.526   -22218177.202 7 -17246777.207 8
  22121787.761     6692768.153 6   5272364.621 5
  21611023.878   -16792178.001 6 -12926168.576 7
  24052433.831    -2465478.095 3  -1702594.494 2
  23715780.878    -2533084.175 5  -1797724.573 3
  20674942.229   -22307137.113 7 -17307707.888 8
  22289462.183   -11827268.692 6  -9147586.558 6
 94  2 16 22 51 59.9990000  0  7 27 18  2  7 16 19 31
  20318298.628   -22249674.067 7 -17271320.211 8
  22139173.979     6784124.621 6   5343551.403 6
  21601020.261   -16844737.307 6 -12967123.837 7
  24031191.386    -2577206.965 4  -1789655.773 2
  23717162.440    -2525765.504 4  -1792021.727 1
  20677994.472   -22291097.735 7 -17295209.677 8
  22299135.917   -11776448.354 6  -9107986.322 6
 94  2 16 22 52 29.9990000  0  7 27 18  2  7 16 19 31
  20312350.276   -22280922.081 7 -17295669.294 8
  22156614.831     6875756.565 6   5414952.851 6
  21591082.651   -16896967.758 6 -13007822.847 7
  24009929.292    -2688918.785 3  -1876703.739 2
  23718672.815    -2517958.612 5  -1785938.440 1
  20681092.026   -22274810.285 7 -17282518.150 8
  22308911.604   -11725084.680 6  -9067962.691 6
 94  2 16 22 52 59.9990000  0  7 27 18  2  7 16 19 31
  20306451.409   -22311924.602 7 -17319827.073 8
  22174099.331     6967660.501 6   5486566.238 5
  21581208.440   -16948862.801 6 -13048260.492 7
  23988676.409    -2800590.839 3  -1963720.692 2
  23720236.472    -2509669.795 4  -1779479.654 2
  20684242.284   -22258260.981 7 -17269622.585 8
  22318789.026   -11673176.241 6  -9027514.578 6
 94  2 16 22 53 29.9990000  0  7 27 18  2  7 16 19 31
  20300606.495   -22342654.956 7 -17343772.797 8
  22191643.753     7059864.180 6   5558413.191 5
  21571395.081   -17000423.502 6 -13088437.632 7
  23967432.628    -2912204.713 3  -2050692.349 2
  23721911.894    -2500896.800 5  -1772643.586 2
  20687446.987   -22241417.781 7 -17256498.025 8
  22328772.198   -11620713.765 6  -8986634.727 6
 94  2 16 22 53 59.9990000  0  7 27 18  2  7 16 19 31
  20294808.378   -22373118.113 7 -17367510.295 8
  22209253.308     7152389.357 6   5630510.667 5
  21561645.847   -17051664.750 6 -13128365.841 7
  23946199.581    -3023741.669 3  -2137604.039 2
  23723665.511    -2491645.042 4  -1765434.456 2
  20690709.659   -22224267.255 7 -17243133.973 7
  22338856.511   -11567708.875 6  -8945332.223 6
 94  2 16 22 54 29.9990000  0  7 27 18  2  7 16 19 31
  20289060.901   -22403321.380 7 -17391045.287 8
  22226925.019     7245241.062 6   5702862.562 5
  21551949.862   -17102608.094 6 -13168061.913 7
  23924989.964    -3135199.779 3  -2224454.278 3
  23725527.019    -2481912.478 4  -1757850.667 2
  20694032.058   -22206822.153 7 -17229540.390 8
  22349046.925   -11514177.837 6  -8903619.740 6
 94  2 16 22 54 59.9990000  0  7 27 18  2  7 16 19 31
  20283361.034   -22433274.926 7 -17414385.683 8
  22244651.026     7338396.758 6   5775451.345 5
  21542306.112   -17153289.684 6 -13207554.033 7
  23903786.745    -3246603.163 3  -2311261.878 2
  23727470.042    -2471701.325 5  -1749893.963 3
  20697403.120   -22189100.889 7 -17215731.606 8
  22359326.675   -11460134.655 6  -8861508.156 6
 94  2 16 22 55 29.9990000  0  7 27 18  2  7 16 19 31
  20277713.894   -22462954.411 7 -17437512.545 8
  22262432.308     7431858.930 6   5848278.937 5
  21532712.089   -17203702.480 6 -13246836.701 7
  23882615.089    -3357940.636 4  -2398018.123 4
  23729503.480    -2460989.584 3  -1741547.153 2
  20700825.464   -22171111.055 7 -17201713.542 8
  22369709.292   -11405570.515 6  -8818990.653 6
 94  2 16 22 55 59.9990000  0  7 27 18  2  7 16 19 31
  20272115.550   -22492366.853 7 -17460431.312 8
  22280277.339     7525617.404 6   5921337.411 5
  21523173.519   -17253829.379 6 -13285896.602 7
  23861441.987    -3469201.998 4  -2484715.045 3
  23731637.823    -2449771.574 4  -1732805.874 2
  20704300.542   -22152868.745 7 -17187498.748 8
  22380191.292   -11350483.130 6  -8776065.436 6
 94  2 16 22 56 29.9990000  0  7 27 18  2  7 16 19 31
  20266568.339   -22521503.041 7 -17483134.809 8
  22298169.362     7619650.601 6   5994609.961 5
  21513689.800   -17303669.820 6 -13324733.281 7
  23840282.815    -3580379.361 4  -2571346.553 2
  23733873.698    -2438029.423 4  -1723656.155 3
  20707816.120   -22134375.842 7 -17173088.698 7
  22390782.112   -11294855.319 6  -8732719.109 6
 94  2 16 22 56 59.9990000  0  7 27 18  2  7 16 19 31
  20261080.690   -22550355.825 7 -17505617.478 8
  22316116.534     7713936.944 6   6068079.757 5
  21504262.198   -17353213.373 7 -13363338.625 7
  23819147.222    -3691458.875 4  -2657901.793 3
  23736213.401    -2425762.772 4  -1714097.778 2
  20711384.440   -22115628.477 7 -17158480.375 8
  22401468.097   -11238687.993 6  -8688952.379 6
 94  2 16 22 57 29.9990000  0  7 27 18  2  7 16 19 31
  20255643.081   -22578927.391 7 -17527881.015 8
  22334097.503     7808466.603 6   6141739.145 5
  21494887.651   -17402464.275 6 -13401715.909 7
  23798034.050    -3802440.494 4  -2744380.769 1
  23738648.776    -2412984.361 4  -1704140.603 2
  20714998.526   -22096639.958 7 -17143684.129 8
  22412256.612   -11181995.326 6  -8644776.317 6
 94  2 16 22 57 59.9990000  0  7 27 18  2  7 16 19 31
  20250259.792   -22607217.172 7 -17549924.978 8
  22352139.956     7903243.255 6   6215591.006 5
  21485573.558   -17451415.133 7 -13439859.399 7
  23776925.050    -3913322.412 4  -2830782.076 1
  23741167.245    -2399704.245 3  -1693792.447 2
  20718661.104   -22077390.432 7 -17128684.511 7
  22423139.730   -11124780.596 6  -8600193.428 6
 94  2 16 22 58 29.9990000  0  7 27 18  2  7 16 19 31
  20244935.019   -22635210.444 7 -17571737.899 8
  22370225.261     7998274.036 6   6289640.893 5
  21476312.948   -17500075.760 6 -13477776.720 7
  23755836.097    -4024109.953 4  -2917109.845 2
  23743792.597    -2385929.156 3  -1683058.667 2
  20722376.776   -22057869.919 7 -17113473.716 8
  22434127.159   -11067049.032 6  -8555207.827 6
 94  2 16 22 58 59.9990000  0  7 27 18  2  7 16 19 31
  20239660.190   -22662907.386 7 -17593319.905 8
  22388356.456     8093575.178 6   6363901.439 5
  21467112.839   -17548433.657 7 -13515458.157 7
  23734785.604    -4134802.198 5  -3003363.378 3
  23746491.894    -2371673.212 4  -1671950.150 3
  20726141.362   -22038079.475 7 -17098052.599 7
  22445208.933   -11008818.941 6  -8509833.763 6
 94  2 16 22 59 29.9990000  0  7 27 18  2  7 16 19 31
  20234445.292   -22690324.442 7 -17614683.816 8
  22406542.901     8189152.398 6   6438377.129 5
  21457964.136   -17596506.761 7 -13552917.672 7
  23713730.175    -4245419.916 4  -3089558.836 2
  23749304.472    -2356960.152 4  -1660485.454 2
  20729954.784   -22018031.064 7 -17082430.466 7
  22456381.808   -10950103.089 6  -8464081.163 5
